[[{"header":{"parameterUnit":"m.s-1","parameterCategory":1,"la1":31.0,"la2":29.5877,"lo1":-88.7671,"lo2":-86.6584,"dy":0.0162,"dx":0.0185,"nx":115,"ny":88,"refTime":"2023-03-02T18:00:00:Z","depth":0,"parameterNumber":2,"parameterNumberName":"U-component_of_WINDS"},"data":[0.0,0.0,0.0,0.0,0.0,0.0,0.0,0.0,0.0,0.0,0.0,0.0,0.0,0.0,0.0,0.0,0.0,0.0,0.0,0.0,0.0,0.0,0.0,0.0,0.0,0.0,0.0,0.0,0.0,0.0,0.0,0.0,0.0,0.0,0.0,0.0,0.0,0.0,0.0,0.0,0.0,0.0,0.0,0.0,0.0,0.0,0.0,0.0,0.0,0.0,0.0,0.0,0.0,0.0,0.0,0.0,0.0,0.0,0.0,0.0,0.0,0.0,0.0,0.0,0.0,0.0,0.0,0.0,0.0,0.0,0.0,0.0,0.0,0.0,0.0,0.0,0.0,0.0,0.0,0.0,0.0,0.0,0.0,0.0,0.0,0.0,0.0,0.0,0.0,0.0,0.0,0.0,0.0,0.0,0.0,0.0,0.0,0.0,0.0,0.0,0.0,0.0,0.0,0.0,0.0,0.0,0.0,0.0,0.0,0.0,0.0,0.0,0.0,0.0,0.0,0.0,0.0,0.0,0.0,0.0,0.0,0.0,0.0,0.0,0.0,0.0,0.0,0.0,0.0,0.0,0.0,0.0,0.0,0.0,0.0,0.0,0.0,0.0,0.0,0.0,0.0,0.0,0.0,0.0,0.0,0.0,0.0,0.0,0.0,0.0,0.0,0.0,0.0,0.0,0.0,0.0,0.0,0.0,0.0,0.0,0.0,0.0,0.0,0.0,0.0,0.0,0.0,0.0,0.0,0.0,0.0,0.0,0.0,0.0,0.0,0.0,0.0,0.0,0.0,0.0,0.0,0.0,0.0,0.0,0.0,0.0,0.0,0.0,0.0,0.0,0.0,0.0,0.0,0.0,0.0,0.0,0.0,0.0,0.0,0.0,0.0,0.0,0.0,0.0,0.0,0.0,0.0,0.0,0.0,0.0,0.0,0.0,0.0,0.0,0.0,0.0,0.0,0.0,0.0,0.0,0.0,0.0,0.0,0.0,0.0,0.0,0.0,0.0,0.0,0.0,0.0,0.0,0.0,0.0,0.0,0.0,0.0,0.0,0.0,0.0,0.0,0.0,0.0,0.0,0.0,0.0,0.0,0.0,0.0,0.0,0.0,0.0,0.0,0.0,0.0,0.0,0.0,0.0,0.0,0.0,0.0,0.0,0.0,0.0,0.0,0.0,0.0,0.0,0.0,0.0,0.0,0.0,0.0,0.0,0.0,0.0,0.0,0.0,0.0,0.0,0.0,0.0,0.0,0.0,0.0,0.0,0.0,0.0,0.0,0.0,0.0,0.0,0.0,0.0,0.0,0.0,0.0,0.0,0.0,0.0,0.0,0.0,0.0,0.0,0.0,0.0,0.0,0.0,0.0,0.0,0.0,0.0,0.0,0.0,0.0,0.0,0.0,0.0,0.0,0.0,0.0,0.0,0.0,0.0,0.0,0.0,0.0,0.0,0.0,0.0,0.0,0.0,0.0,0.0,0.0,0.0,0.0,0.0,0.0,0.0,0.0,0.0,0.0,0.0,0.0,0.0,0.0,0.0,0.0,0.0,0.0,0.0,0.0,0.0,0.0,0.0,0.0,0.0,0.0,0.0,0.0,0.0,0.0,0.0,0.0,0.0,0.0,0.0,0.0,0.0,0.0,0.0,0.0,0.0,0.0,0.0,0.0,0.0,0.0,0.0,0.0,0.0,0.0,0.0,0.0,0.0,0.0,0.0,0.0,0.0,0.0,0.0,0.0,0.0,0.0,0.0,0.0,0.0,0.0,0.0,0.0,0.0,0.0,0.0,0.0,0.0,0.0,0.0,0.0,0.0,0.0,0.0,0.0,0.0,0.0,0.0,0.0,0.0,0.0,0.0,0.0,0.0,0.0,0.0,0.0,0.0,0.0,0.0,0.0,0.0,0.0,0.0,0.0,0.0,0.0,0.0,0.0,0.0,0.0,0.0,0.0,0.0,0.0,0.0,0.0,0.0,0.0,0.0,0.0,0.0,0.0,0.0,0.0,0.0,0.0,0.0,0.0,0.0,0.0,0.0,0.0,0.0,0.0,0.0,0.0,0.0,0.0,0.0,0.0,0.0,0.0,0.0,0.0,0.0,0.0,0.0,0.0,0.0,0.0,0.0,0.0,0.0,0.0,0.0,0.0,0.0,0.0,0.0,0.0,0.0,0.0,0.0,0.0,0.0,0.0,0.0,0.0,0.0,0.0,0.0,0.0,0.0,0.0,0.0,0.0,0.0,0.0,0.0,0.0,0.0,0.0,0.0,0.0,0.0,0.0,0.0,0.0,0.0,0.0,0.0,0.0,0.0,0.0,0.0,0.0,0.0,0.0,0.0,0.0,0.0,0.0,0.0,0.0,0.0,0.0,0.0,0.0,0.0,0.0,0.0,0.0,0.0,0.0,0.0,0.0,0.0,0.0,0.0,0.0,0.0,0.0,0.0,0.0,0.0,0.0,0.0,0.0,0.0,0.0,0.0,0.0,0.0,0.0,0.0,0.0,0.0,0.0,0.0,0.0,0.0,0.0,0.0,0.0,0.0,0.0,0.0,0.0,0.0,0.0,0.0,0.0,0.0,0.0,0.0,0.0,0.0,0.0,0.0,0.0,0.0,0.0,0.0,0.0,0.0,0.0,0.0,0.0,0.0,0.0,0.0,0.0,0.0,0.0,0.0,0.0,0.0,0.0,0.0,0.0,0.0,0.0,0.0,0.0,0.0,0.0,0.0,0.0,0.0,0.0,0.0,0.0,0.0,0.0,0.0,0.0,0.0,0.0,0.0,0.0,0.0,0.0,0.0,0.0,0.0,0.0,0.0,0.0,0.0,0.0,0.0,0.0,0.0,0.0,0.0,0.0,0.0,0.0,0.0,0.0,0.0,0.0,0.0,0.0,0.0,0.0,0.0,0.0,0.0,0.0,0.0,0.0,0.0,0.0,0.0,0.0,0.0,0.0,0.0,0.0,0.0,0.0,0.0,0.0,0.0,0.0,0.0,0.0,0.0,0.0,0.0,0.0,0.0,0.0,0.0,0.0,0.0,0.0,0.0,0.0,0.0,0.0,0.0,0.0,0.0,0.0,0.0,0.0,0.0,0.0,0.0,0.0,0.0,0.0,0.0,0.0,0.0,0.0,0.0,0.0,0.0,0.0,0.0,0.0,0.0,0.0,0.0,0.0,0.0,0.0,0.0,0.0,0.0,0.0,0.0,0.0,0.0,0.0,0.0,0.0,0.0,0.0,0.0,0.0,0.0,0.0,0.0,0.0,0.0,0.0,0.0,0.0,0.0,0.0,0.0,0.0,0.0,0.0,0.0,0.0,0.0,0.0,0.0,0.0,0.0,0.0,0.0,0.0,0.0,0.0,0.0,0.0,0.0,0.0,0.0,0.0,0.0,0.0,0.0,0.0,0.0,0.0,0.0,0.0,0.0,0.0,0.0,0.0,0.0,0.0,0.0,0.0,0.0,0.0,0.0,0.0,0.0,0.0,0.0,0.0,0.0,0.0,0.0,0.0,0.0,0.0,0.0,0.0,0.0,0.0,0.0,0.0,0.0,0.0,0.0,0.0,0.0,0.0,0.0,0.0,0.0,0.0,0.0,0.0,0.0,0.0,0.0,0.0,0.0,0.0,0.0,0.0,0.0,0.0,0.0,0.0,0.0,0.0,0.0,0.0,0.0,0.0,0.0,0.0,0.0,0.0,0.0,0.0,0.0,0.0,0.0,0.0,0.0,0.0,0.0,0.0,0.0,0.0,0.0,0.0,0.0,0.0,0.0,0.0,0.0,0.0,0.0,0.0,0.0,0.0,0.0,0.0,0.0,0.0,0.0,0.0,0.0,0.0,0.0,0.0,0.0,0.0,0.0,0.0,0.0,0.0,0.0,0.0,0.0,0.0,0.0,0.0,0.0,0.0,0.0,0.0,0.0,0.0,0.0,0.0,0.0,0.0,0.0,0.0,0.0,0.0,0.0,0.0,0.0,0.0,0.0,0.0,0.0,0.0,0.0,0.0,0.0,0.0,0.0,0.0,0.0,0.0,0.0,0.0,0.0,0.0,0.0,0.0,0.0,0.0,0.0,0.0,0.0,0.0,0.0,0.0,0.0,0.0,0.0,0.0,0.0,0.0,0.0,0.0,0.0,0.0,0.0,0.0,0.0,0.0,0.0,0.0,0.0,0.0,0.0,0.0,0.0,0.0,0.0,0.0,0.0,0.0,0.0,0.0,0.0,0.0,0.0,0.0,0.0,0.0,0.0,0.0,0.0,0.0,0.0,0.0,0.0,-1.6515,0.0,0.0,0.0,0.0,0.0,0.0,0.0,0.0,0.0,0.0,0.0,0.0,0.0,0.0,0.0,0.0,0.0,0.0,0.0,0.0,0.0,0.0,0.0,0.0,0.0,0.0,0.0,0.0,0.0,0.0,0.0,0.0,0.0,0.0,0.0,0.0,0.0,0.0,0.0,0.0,0.0,0.0,0.0,0.0,0.0,0.0,0.0,0.0,0.0,0.0,0.0,0.0,0.0,0.0,0.0,0.0,0.0,0.0,0.0,0.0,0.0,0.0,0.0,0.0,0.0,0.0,0.0,0.0,0.0,0.0,0.0,0.0,0.0,0.0,0.0,0.0,0.0,0.0,0.0,0.0,0.0,0.0,0.0,0.0,0.0,0.0,0.0,0.0,0.0,0.0,0.0,0.0,0.0,0.0,0.0,0.0,0.0,0.0,0.0,0.0,0.0,0.0,0.0,0.0,0.0,0.0,0.0,0.0,0.0,0.0,-1.5401,-1.533,-1.5471,-1.5816,-1.6515,0.0,0.0,0.0,0.0,0.0,0.0,0.0,0.0,0.0,0.0,0.0,0.0,0.0,0.0,0.0,0.0,0.0,0.0,0.0,0.0,0.0,0.0,0.0,0.0,0.0,0.0,0.0,0.0,0.0,0.0,0.0,0.0,0.0,0.0,0.0,0.0,0.0,0.0,0.0,0.0,0.0,0.0,0.0,0.0,0.0,0.0,0.0,0.0,0.0,0.0,0.0,0.0,0.0,0.0,0.0,0.0,0.0,0.0,0.0,0.0,0.0,0.0,0.0,0.0,0.0,0.0,0.0,0.0,0.0,0.0,0.0,0.0,0.0,0.0,0.0,0.0,0.0,0.0,0.0,0.0,0.0,0.0,0.0,0.0,0.0,0.0,0.0,0.0,0.0,0.0,0.0,0.0,0.0,0.0,0.0,0.0,0.0,0.0,0.0,0.0,0.0,0.0,0.0,0.0,0.0,0.0,0.0,0.0,0.0,0.0,0.0,0.0,-1.5956,-1.6306,-1.6306,0.0,0.0,0.0,0.0,0.0,0.0,0.0,0.0,0.0,0.0,0.0,0.0,0.0,0.0,0.0,0.0,0.0,0.0,0.0,0.0,0.0,0.0,0.0,0.0,0.0,0.0,0.0,0.0,0.0,0.0,0.0,0.0,0.0,0.0,0.0,0.0,0.0,0.0,0.0,0.0,0.0,0.0,0.0,0.0,0.0,0.0,0.0,0.0,0.0,0.0,0.0,0.0,0.0,0.0,0.0,0.0,0.0,0.0,0.0,0.0,0.0,0.0,0.0,0.0,0.0,0.0,0.0,0.0,0.0,0.0,0.0,0.0,0.0,0.0,0.0,0.0,0.0,0.0,0.0,0.0,0.0,0.0,0.0,0.0,0.0,0.0,0.0,0.0,0.0,0.0,0.0,0.0,0.0,0.0,0.0,0.0,0.0,0.0,0.0,0.0,0.0,0.0,0.0,0.0,0.0,0.0,0.0,0.0,0.0,0.0,-1.5313,-1.593,-1.6158,0.0,-1.6306,0.0,0.0,0.0,0.0,0.0,0.0,0.0,0.0,0.0,0.0,0.0,0.0,0.0,0.0,0.0,0.0,0.0,0.0,0.0,0.0,0.0,0.0,0.0,0.0,0.0,0.0,0.0,0.0,0.0,0.0,0.0,0.0,0.0,0.0,0.0,0.0,0.0,0.0,0.0,0.0,0.0,0.0,0.0,0.0,0.0,0.0,0.0,0.0,0.0,0.0,0.0,0.0,0.0,0.0,0.0,0.0,0.0,0.0,0.0,0.0,0.0,0.0,0.0,0.0,0.0,0.0,0.0,0.0,0.0,0.0,0.0,0.0,0.0,0.0,0.0,0.0,0.0,0.0,0.0,0.0,0.0,0.0,0.0,0.0,0.0,0.0,0.0,0.0,0.0,0.0,0.0,0.0,0.0,0.0,0.0,0.0,0.0,0.0,0.0,0.0,0.0,0.0,0.0,0.0,0.0,0.0,0.0,0.0,0.0,0.0,-1.5321,-1.5163,-1.5666,-1.5956,0.0,0.0,0.0,0.0,0.0,0.0,0.0,0.0,0.0,0.0,0.0,0.0,0.0,0.0,0.0,0.0,0.0,0.0,0.0,0.0,0.0,0.0,0.0,0.0,0.0,0.0,0.0,0.0,0.0,0.0,0.0,0.0,0.0,0.0,0.0,0.0,0.0,0.0,0.0,0.0,0.0,0.0,0.0,0.0,0.0,0.0,0.0,0.0,0.0,0.0,0.0,0.0,0.0,0.0,0.0,0.0,0.0,0.0,0.0,0.0,0.0,0.0,0.0,0.0,0.0,0.0,0.0,0.0,0.0,0.0,0.0,0.0,0.0,0.0,0.0,0.0,0.0,0.0,0.0,0.0,0.0,0.0,0.0,0.0,0.0,0.0,0.0,0.0,0.0,0.0,0.0,0.0,0.0,0.0,0.0,0.0,0.0,0.0,0.0,0.0,0.0,0.0,0.0,0.0,0.0,0.0,0.0,0.0,0.0,0.0,-1.476,-1.5251,-1.4958,-1.5384,-1.5666,-1.5666,0.0,0.0,0.0,0.0,0.0,0.0,0.0,0.0,0.0,0.0,0.0,0.0,0.0,0.0,0.0,0.0,0.0,0.0,0.0,0.0,0.0,0.0,0.0,0.0,0.0,0.0,0.0,0.0,0.0,0.0,0.0,0.0,0.0,0.0,0.0,0.0,0.0,0.0,0.0,0.0,0.0,0.0,0.0,0.0,0.0,0.0,0.0,0.0,0.0,0.0,0.0,0.0,0.0,0.0,0.0,0.0,0.0,0.0,0.0,0.0,0.0,0.0,0.0,0.0,0.0,0.0,0.0,0.0,0.0,0.0,0.0,0.0,0.0,0.0,0.0,0.0,0.0,0.0,0.0,0.0,0.0,0.0,0.0,0.0,0.0,0.0,0.0,0.0,0.0,0.0,0.0,0.0,0.0,0.0,0.0,0.0,0.0,0.0,0.0,0.0,0.0,0.0,0.0,0.0,0.0,0.0,0.0,0.0,-1.3572,-1.4266,-1.4966,-1.5534,-1.5675,-1.5666,0.0,0.0,0.0,0.0,0.0,0.0,0.0,0.0,0.0,0.0,0.0,0.0,0.0,0.0,0.0,0.0,0.0,0.0,0.0,0.0,0.0,0.0,0.0,0.0,0.0,0.0,0.0,0.0,0.0,0.0,0.0,0.0,0.0,0.0,0.0,0.0,0.0,0.0,0.0,0.0,0.0,0.0,0.0,0.0,0.0,0.0,0.0,0.0,0.0,0.0,0.0,0.0,0.0,0.0,0.0,0.0,0.0,0.0,0.0,0.0,0.0,0.0,0.0,0.0,0.0,0.0,0.0,0.0,0.0,0.0,0.0,0.0,0.0,0.0,0.0,0.0,0.0,0.0,0.0,0.0,0.0,0.0,0.0,0.0,0.0,0.0,0.0,0.0,0.0,0.0,0.0,0.0,0.0,0.0,0.0,0.0,0.0,0.0,0.0,0.0,0.0,0.0,0.0,0.0,0.0,0.0,0.0,0.0,0.0,-1.3492,-1.3768,-1.4049,-1.4266,-1.4266,-1.4266,0.0,0.0,0.0,0.0,0.0,0.0,0.0,0.0,0.0,0.0,0.0,0.0,0.0,0.0,0.0,0.0,0.0,0.0,0.0,0.0,0.0,0.0,0.0,0.0,0.0,0.0,0.0,0.0,0.0,0.0,0.0,0.0,0.0,0.0,0.0,0.0,0.0,0.0,0.0,0.0,0.0,0.0,0.0,0.0,0.0,0.0,0.0,0.0,0.0,0.0,0.0,0.0,0.0,0.0,0.0,0.0,0.0,0.0,0.0,0.0,0.0,0.0,0.0,0.0,0.0,0.0,0.0,0.0,0.0,0.0,0.0,0.0,0.0,0.0,0.0,0.0,0.0,0.0,0.0,0.0,0.0,0.0,0.0,0.0,0.0,0.0,0.0,0.0,0.0,0.0,0.0,0.0,0.0,0.0,0.0,0.0,0.0,0.0,0.0,0.0,0.0,0.0,0.0,0.0,0.0,0.0,0.0,0.0,0.0,-1.3492,0.0,-1.3492,-1.3492,-1.3775,-1.3848,0.0,0.0,0.0,0.0,0.0,0.0,0.0,0.0,0.0,0.0,0.0,0.0,0.0,0.0,0.0,0.0,0.0,0.0,0.0,0.0,0.0,0.0,0.0,0.0,0.0,0.0,0.0,0.0,0.0,0.0,0.0,0.0,0.0,0.0,0.0,0.0,0.0,0.0,0.0,0.0,0.0,0.0,0.0,0.0,0.0,0.0,0.0,0.0,0.0,0.0,0.0,0.0,0.0,0.0,0.0,0.0,0.0,0.0,0.0,0.0,0.0,0.0,0.0,0.0,0.0,0.0,0.0,0.0,0.0,0.0,0.0,0.0,0.0,0.0,0.0,0.0,0.0,0.0,0.0,0.0,0.0,0.0,0.0,0.0,0.0,0.0,0.0,0.0,0.0,0.0,0.0,0.0,0.0,0.0,0.0,0.0,0.0,0.0,0.0,0.0,0.0,0.0,0.0,0.0,0.0,0.0,0.0,0.0,-1.3499,-1.3492,-1.3499,-1.3492,-1.3492,-1.4186,-1.4537,0.0,0.0,0.0,0.0,0.0,0.0,0.0,0.0,0.0,0.0,0.0,0.0,0.0,0.0,0.0,0.0,0.0,0.0,0.0,0.0,0.0,0.0,0.0,0.0,0.0,0.0,0.0,0.0,0.0,0.0,0.0,0.0,0.0,0.0,0.0,0.0,0.0,0.0,0.0,0.0,0.0,0.0,0.0,0.0,0.0,0.0,0.0,0.0,0.0,0.0,0.0,0.0,0.0,0.0,0.0,0.0,0.0,0.0,0.0,0.0,0.0,0.0,0.0,0.0,0.0,0.0,0.0,0.0,0.0,0.0,0.0,0.0,0.0,0.0,0.0,0.0,0.0,0.0,0.0,0.0,0.0,0.0,0.0,0.0,0.0,0.0,0.0,0.0,0.0,0.0,0.0,0.0,0.0,0.0,0.0,0.0,0.0,0.0,0.0,0.0,0.0,0.0,0.0,0.0,0.0,0.0,0.0,0.0,0.0,-1.3499,-1.32,-1.32,-1.3492,-1.4057,-1.4474,0.0,0.0,0.0,0.0,0.0,0.0,0.0,0.0,0.0,0.0,0.0,0.0,0.0,0.0,0.0,0.0,0.0,0.0,0.0,0.0,0.0,0.0,0.0,0.0,0.0,0.0,0.0,0.0,0.0,0.0,0.0,0.0,0.0,0.0,0.0,0.0,0.0,0.0,0.0,0.0,0.0,0.0,0.0,0.0,0.0,0.0,0.0,0.0,0.0,0.0,0.0,0.0,0.0,0.0,0.0,0.0,0.0,0.0,0.0,0.0,0.0,0.0,0.0,0.0,0.0,0.0,0.0,0.0,0.0,0.0,0.0,0.0,0.0,0.0,0.0,0.0,0.0,0.0,0.0,0.0,0.0,0.0,0.0,0.0,0.0,0.0,0.0,0.0,0.0,0.0,0.0,0.0,0.0,0.0,0.0,0.0,0.0,0.0,0.0,0.0,0.0,0.0,0.0,0.0,0.0,0.0,0.0,0.0,0.0,-1.3932,-1.3321,-1.3119,-1.3426,-1.4338,-1.4832,-1.4958,0.0,0.0,0.0,0.0,0.0,0.0,0.0,0.0,0.0,0.0,0.0,0.0,0.0,0.0,0.0,0.0,0.0,0.0,0.0,0.0,0.0,0.0,0.0,0.0,0.0,0.0,0.0,0.0,0.0,0.0,0.0,0.0,0.0,0.0,0.0,0.0,0.0,0.0,0.0,0.0,0.0,0.0,0.0,0.0,0.0,0.0,0.0,0.0,0.0,0.0,0.0,0.0,0.0,0.0,0.0,0.0,0.0,0.0,0.0,0.0,0.0,0.0,0.0,0.0,0.0,0.0,0.0,0.0,0.0,0.0,0.0,0.0,0.0,0.0,0.0,0.0,0.0,0.0,0.0,0.0,0.0,0.0,0.0,0.0,0.0,0.0,0.0,0.0,0.0,0.0,0.0,0.0,0.0,0.0,0.0,0.0,0.0,0.0,0.0,0.0,0.0,0.0,0.0,0.0,0.0,0.0,0.0,0.0,-1.4494,-1.3722,-1.3243,-1.3302,-1.4792,-1.563,0.0,0.0,0.0,0.0,0.0,0.0,0.0,0.0,0.0,0.0,0.0,0.0,0.0,0.0,0.0,0.0,0.0,0.0,0.0,0.0,0.0,0.0,0.0,0.0,0.0,0.0,0.0,0.0,0.0,0.0,0.0,0.0,0.0,0.0,0.0,0.0,0.0,0.0,0.0,0.0,0.0,0.0,0.0,0.0,0.0,0.0,0.0,0.0,0.0,0.0,0.0,0.0,0.0,0.0,0.0,0.0,0.0,0.0,0.0,0.0,0.0,0.0,0.0,0.0,0.0,0.0,0.0,0.0,0.0,0.0,0.0,0.0,0.0,0.0,0.0,0.0,0.0,0.0,0.0,0.0,0.0,0.0,0.0,0.0,0.0,0.0,0.0,0.0,0.0,0.0,0.0,0.0,0.0,0.0,0.0,0.0,0.0,0.0,0.0,0.0,0.0,0.0,0.0,0.0,0.0,0.0,0.0,0.0,0.0,-1.4801,-1.4265,-1.3863,-1.379,-1.463,-1.4936,0.0,0.0,0.0,0.0,0.0,0.0,0.0,0.0,0.0,0.0,0.0,0.0,0.0,0.0,0.0,0.0,0.0,0.0,0.0,0.0,0.0,0.0,0.0,0.0,0.0,0.0,0.0,0.0,0.0,0.0,0.0,0.0,0.0,0.0,0.0,0.0,0.0,0.0,0.0,0.0,0.0,0.0,0.0,0.0,0.0,0.0,0.0,0.0,0.0,0.0,0.0,0.0,0.0,0.0,0.0,0.0,0.0,0.0,0.0,0.0,0.0,0.0,0.0,0.0,0.0,0.0,0.0,0.0,0.0,0.0,0.0,0.0,0.0,0.0,0.0,0.0,0.0,0.0,0.0,0.0,0.0,0.0,0.0,0.0,0.0,0.0,0.0,0.0,0.0,0.0,0.0,0.0,0.0,0.0,0.0,0.0,0.0,0.0,0.0,0.0,0.0,0.0,0.0,0.0,0.0,0.0,0.0,0.0,-1.5678,-1.481,-1.455,-1.4301,-1.4151,-1.4675,-1.4816,0.0,0.0,0.0,0.0,0.0,0.0,0.0,0.0,0.0,0.0,0.0,0.0,0.0,0.0,0.0,0.0,0.0,0.0,0.0,0.0,0.0,0.0,0.0,0.0,0.0,0.0,0.0,0.0,0.0,0.0,0.0,0.0,0.0,0.0,0.0,0.0,0.0,0.0,0.0,0.0,0.0,0.0,0.0,0.0,0.0,0.0,0.0,0.0,0.0,0.0,0.0,0.0,0.0,0.0,0.0,0.0,0.0,0.0,0.0,0.0,0.0,0.0,0.0,0.0,0.0,0.0,0.0,0.0,0.0,0.0,0.0,0.0,0.0,0.0,0.0,0.0,0.0,0.0,0.0,0.0,0.0,0.0,0.0,0.0,0.0,0.0,0.0,0.0,0.0,0.0,0.0,0.0,0.0,0.0,0.0,0.0,0.0,0.0,0.0,0.0,0.0,0.0,0.0,0.0,0.0,0.0,0.0,0.0,-1.5733,-1.4734,-1.4734,-1.4608,-1.4335,-1.4813,-1.4873,0.0,0.0,0.0,0.0,0.0,0.0,0.0,0.0,0.0,0.0,0.0,0.0,0.0,0.0,0.0,0.0,0.0,0.0,0.0,0.0,0.0,0.0,0.0,0.0,0.0,0.0,0.0,0.0,0.0,0.0,0.0,0.0,0.0,0.0,0.0,0.0,0.0,0.0,0.0,0.0,0.0,0.0,0.0,0.0,0.0,0.0,0.0,0.0,0.0,0.0,0.0,0.0,0.0,0.0,0.0,0.0,0.0,0.0,0.0,0.0,0.0,0.0,0.0,0.0,0.0,0.0,0.0,0.0,0.0,0.0,0.0,0.0,0.0,0.0,0.0,0.0,0.0,0.0,0.0,0.0,0.0,0.0,0.0,0.0,0.0,0.0,0.0,0.0,0.0,0.0,0.0,0.0,0.0,0.0,0.0,0.0,0.0,0.0,0.0,0.0,0.0,0.0,0.0,0.0,0.0,0.0,0.0,0.0,-1.4985,-1.4734,-1.4734,-1.4622,-1.4386,-1.4423,-1.4352,0.0,0.0,0.0,0.0,0.0,0.0,0.0,0.0,0.0,0.0,0.0,0.0,0.0,0.0,0.0,0.0,0.0,0.0,0.0,0.0,0.0,0.0,0.0,0.0,0.0,0.0,0.0,0.0,0.0,0.0,0.0,0.0,0.0,0.0,0.0,0.0,0.0,0.0,0.0,0.0,0.0,0.0,0.0,0.0,0.0,0.0,0.0,0.0,-1.2452,0.0,0.0,0.0,0.0,0.0,0.0,0.0,0.0,0.0,0.0,0.0,0.0,0.0,0.0,0.0,0.0,0.0,0.0,0.0,0.0,0.0,0.0,0.0,0.0,0.0,0.0,0.0,0.0,0.0,0.0,0.0,0.0,0.0,0.0,0.0,0.0,0.0,0.0,0.0,0.0,0.0,0.0,0.0,0.0,0.0,0.0,0.0,0.0,0.0,0.0,0.0,0.0,0.0,0.0,0.0,0.0,0.0,0.0,0.0,-1.4482,-1.4412,-1.4412,-1.4412,-1.4237,-1.4255,-1.4192,0.0,0.0,0.0,0.0,0.0,0.0,0.0,0.0,0.0,0.0,0.0,0.0,0.0,0.0,0.0,0.0,0.0,0.0,0.0,0.0,0.0,0.0,0.0,0.0,0.0,0.0,0.0,0.0,0.0,0.0,0.0,0.0,0.0,0.0,0.0,0.0,0.0,0.0,0.0,0.0,0.0,0.0,0.0,0.0,0.0,0.0,0.0,0.0,0.0,0.0,0.0,0.0,0.0,0.0,0.0,0.0,0.0,0.0,0.0,0.0,0.0,0.0,0.0,0.0,0.0,0.0,0.0,0.0,0.0,0.0,0.0,0.0,0.0,0.0,0.0,0.0,0.0,0.0,0.0,0.0,0.0,0.0,0.0,0.0,0.0,0.0,0.0,0.0,0.0,0.0,0.0,0.0,0.0,0.0,0.0,0.0,0.0,0.0,0.0,0.0,0.0,0.0,0.0,0.0,0.0,0.0,0.0,-1.4405,-1.4243,-1.4088,-1.4088,-1.4088,-1.4088,-1.4088,-1.4135,-1.4281,0.0,0.0,0.0,0.0,0.0,0.0,0.0,0.0,0.0,0.0,0.0,0.0,0.0,0.0,0.0,0.0,0.0,0.0,0.0,0.0,0.0,0.0,0.0,0.0,0.0,0.0,0.0,0.0,0.0,0.0,0.0,0.0,0.0,0.0,0.0,0.0,0.0,0.0,-1.2661,-1.252,0.0,0.0,0.0,0.0,0.0,0.0,0.0,0.0,-1.2993,0.0,0.0,0.0,0.0,0.0,0.0,0.0,0.0,0.0,0.0,0.0,0.0,0.0,0.0,0.0,0.0,0.0,0.0,0.0,0.0,0.0,0.0,0.0,0.0,0.0,0.0,0.0,0.0,0.0,0.0,0.0,0.0,0.0,0.0,0.0,0.0,0.0,0.0,0.0,0.0,0.0,0.0,0.0,0.0,0.0,0.0,0.0,0.0,0.0,0.0,0.0,0.0,0.0,0.0,0.0,0.0,-1.425,-1.4166,-1.4166,-1.4088,-1.4088,-1.4088,-1.4088,-1.4088,-1.4223,-1.4323,0.0,0.0,0.0,0.0,0.0,0.0,0.0,0.0,0.0,0.0,0.0,0.0,0.0,0.0,0.0,0.0,0.0,0.0,0.0,0.0,0.0,0.0,0.0,0.0,0.0,0.0,0.0,0.0,0.0,0.0,0.0,0.0,0.0,0.0,0.0,0.0,0.0,0.0,0.0,-1.2755,-1.2786,0.0,0.0,0.0,0.0,0.0,0.0,0.0,0.0,-1.3113,0.0,0.0,0.0,0.0,0.0,0.0,0.0,0.0,0.0,0.0,0.0,0.0,0.0,0.0,0.0,0.0,0.0,0.0,0.0,0.0,0.0,0.0,0.0,0.0,0.0,0.0,0.0,0.0,0.0,0.0,0.0,0.0,0.0,0.0,0.0,0.0,0.0,0.0,0.0,0.0,0.0,0.0,0.0,0.0,0.0,0.0,0.0,0.0,0.0,0.0,0.0,0.0,0.0,0.0,0.0,-1.4915,-1.4419,-1.4088,-1.4088,-1.4088,-1.4088,-1.4088,-1.4088,-1.4166,0.0,0.0,0.0,0.0,0.0,0.0,0.0,0.0,0.0,0.0,0.0,0.0,0.0,0.0,0.0,0.0,0.0,0.0,0.0,0.0,0.0,0.0,0.0,0.0,0.0,0.0,0.0,0.0,0.0,0.0,0.0,0.0,0.0,0.0,0.0,0.0,0.0,0.0,0.0,0.0,-1.2822,-1.2913,-1.3373,0.0,0.0,0.0,0.0,0.0,0.0,-1.3534,-1.344,0.0,0.0,0.0,0.0,0.0,0.0,0.0,0.0,0.0,0.0,0.0,0.0,0.0,0.0,0.0,0.0,0.0,0.0,0.0,0.0,0.0,0.0,0.0,0.0,0.0,0.0,0.0,0.0,0.0,0.0,0.0,0.0,0.0,0.0,0.0,0.0,0.0,0.0,0.0,0.0,0.0,0.0,0.0,0.0,0.0,0.0,0.0,0.0,0.0,0.0,0.0,0.0,0.0,0.0,0.0,-1.5401,-1.458,-1.4088,-1.4088,-1.4088,-1.4088,-1.4088,-1.4088,-1.4088,0.0,0.0,0.0,0.0,0.0,0.0,0.0,0.0,0.0,0.0,0.0,0.0,0.0,0.0,0.0,0.0,0.0,0.0,0.0,0.0,0.0,0.0,0.0,0.0,0.0,0.0,0.0,0.0,0.0,0.0,0.0,0.0,0.0,0.0,0.0,0.0,0.0,0.0,0.0,0.0,0.0,-1.312,-1.3654,-1.3734,0.0,0.0,0.0,0.0,-1.4088,-1.3888,0.0,0.0,0.0,0.0,0.0,0.0,0.0,0.0,0.0,0.0,0.0,0.0,0.0,0.0,0.0,0.0,0.0,0.0,0.0,0.0,0.0,0.0,0.0,0.0,0.0,0.0,0.0,0.0,0.0,0.0,0.0,0.0,0.0,0.0,0.0,0.0,0.0,0.0,0.0,0.0,0.0,0.0,0.0,0.0,0.0,0.0,0.0,0.0,0.0,0.0,0.0,0.0,0.0,0.0,0.0,0.0,-1.4566,-1.425,-1.4088,-1.4088,-1.4088,-1.4088,-1.4088,-1.4088,-1.4088,0.0,0.0,0.0,0.0,0.0,0.0,0.0,0.0,0.0,0.0,0.0,0.0,0.0,0.0,0.0,0.0,0.0,0.0,0.0,0.0,0.0,0.0,0.0,0.0,0.0,0.0,0.0,0.0,0.0,0.0,0.0,0.0,0.0,0.0,0.0,0.0,0.0,0.0,0.0,0.0,0.0,-1.3661,-1.3988,-1.4041,-1.4048,0.0,0.0,-1.4088,-1.4088,-1.4055,0.0,0.0,0.0,0.0,0.0,0.0,0.0,0.0,0.0,0.0,0.0,0.0,0.0,0.0,0.0,0.0,0.0,0.0,0.0,0.0,0.0,0.0,0.0,0.0,0.0,0.0,0.0,0.0,0.0,0.0,0.0,0.0,0.0,0.0,0.0,0.0,0.0,0.0,0.0,0.0,0.0,0.0,0.0,0.0,0.0,0.0,0.0,0.0,0.0,0.0,0.0,0.0,0.0,0.0,0.0,-1.5137,-1.4977,-1.4412,-1.4088,-1.4088,-1.4088,-1.4088,-1.4088,-1.4088,-1.4088,0.0,0.0,0.0,0.0,0.0,0.0,0.0,0.0,0.0,0.0,0.0,0.0,0.0,0.0,0.0,0.0,0.0,0.0,0.0,0.0,0.0,0.0,0.0,0.0,0.0,0.0,0.0,0.0,0.0,0.0,0.0,0.0,0.0,0.0,0.0,0.0,0.0,0.0,0.0,0.0,0.0,0.0,-1.4041,-1.4088,0.0,0.0,0.0,-1.4088,-1.4088,0.0,0.0,0.0,0.0,0.0,0.0,0.0,0.0,0.0,0.0,0.0,0.0,0.0,0.0,0.0,0.0,0.0,0.0,0.0,0.0,0.0,0.0,0.0,0.0,0.0,0.0,0.0,0.0,0.0,0.0,0.0,0.0,0.0,0.0,0.0,0.0,0.0,0.0,0.0,0.0,0.0,0.0,0.0,0.0,0.0,0.0,0.0,0.0,0.0,0.0,0.0,0.0,0.0,0.0,0.0,0.0,0.0,-1.5228,-1.4496,-1.4088,-1.4088,-1.4088,-1.4088,-1.4088,-1.4088,0.0,0.0,0.0,0.0,0.0,0.0,0.0,0.0,0.0,0.0,0.0,0.0,0.0,0.0,0.0,0.0,0.0,0.0,0.0,0.0,0.0,0.0,0.0,0.0,0.0,0.0,0.0,-1.2619,0.0,0.0,0.0,0.0,0.0,0.0,0.0,0.0,0.0,0.0,0.0,0.0,0.0,0.0,-1.3834,-1.4062,-1.4088,-1.4088,0.0,0.0,-1.4088,-1.4088,-1.4088,-1.4088,0.0,0.0,0.0,0.0,0.0,0.0,0.0,0.0,0.0,0.0,0.0,0.0,0.0,0.0,0.0,0.0,0.0,0.0,0.0,0.0,0.0,0.0,0.0,0.0,0.0,0.0,0.0,0.0,0.0,0.0,0.0,0.0,0.0,0.0,0.0,0.0,0.0,0.0,0.0,0.0,0.0,0.0,0.0,0.0,0.0,0.0,0.0,0.0,0.0,0.0,0.0,0.0,0.0,0.0,0.0,-1.4734,-1.4334,-1.4088,-1.4088,-1.4088,-1.4088,-1.4088,-1.4088,-1.4088,0.0,0.0,0.0,0.0,0.0,0.0,0.0,0.0,0.0,0.0,0.0,0.0,0.0,0.0,0.0,0.0,0.0,0.0,0.0,0.0,0.0,0.0,0.0,0.0,0.0,0.0,0.0,0.0,0.0,0.0,0.0,0.0,0.0,0.0,0.0,0.0,0.0,0.0,0.0,0.0,0.0,-1.4068,-1.4088,-1.4088,-1.4088,0.0,0.0,-1.4088,-1.4088,-1.4088,-1.4088,-1.4088,0.0,0.0,0.0,0.0,0.0,0.0,0.0,0.0,0.0,0.0,0.0,0.0,0.0,0.0,0.0,0.0,0.0,0.0,0.0,0.0,0.0,0.0,0.0,0.0,0.0,0.0,0.0,0.0,0.0,0.0,0.0,0.0,0.0,0.0,0.0,0.0,0.0,0.0,0.0,0.0,0.0,0.0,0.0,0.0,0.0,0.0,0.0,0.0,0.0,0.0,0.0,0.0,0.0,-1.4977,-1.4328,-1.4166,-1.4088,-1.4088,-1.4088,-1.4088,-1.4088,-1.4088,-1.4088,0.0,0.0,0.0,0.0,0.0,0.0,0.0,0.0,0.0,0.0,0.0,0.0,0.0,0.0,0.0,0.0,0.0,0.0,0.0,0.0,0.0,0.0,0.0,0.0,0.0,0.0,0.0,0.0,-1.348,-1.3547,-1.3728,0.0,0.0,0.0,0.0,0.0,0.0,0.0,0.0,0.0,0.0,-1.4088,-1.4088,-1.4088,0.0,0.0,-1.4088,-1.4088,-1.4088,-1.4088,-1.4088,-1.4088,-1.4088,0.0,0.0,0.0,0.0,0.0,0.0,0.0,0.0,0.0,0.0,0.0,0.0,0.0,0.0,0.0,0.0,0.0,0.0,0.0,0.0,0.0,0.0,0.0,0.0,0.0,0.0,0.0,0.0,0.0,0.0,0.0,0.0,0.0,0.0,0.0,0.0,0.0,0.0,0.0,0.0,0.0,0.0,0.0,0.0,0.0,0.0,0.0,0.0,0.0,0.0,0.0,0.0,-1.497,-1.4159,-1.4082,-1.4088,-1.4088,-1.4088,-1.4088,-1.4088,-1.4088,-1.4088,0.0,0.0,0.0,0.0,0.0,0.0,0.0,0.0,0.0,0.0,0.0,0.0,0.0,0.0,0.0,0.0,0.0,0.0,0.0,0.0,0.0,0.0,0.0,0.0,0.0,0.0,0.0,0.0,-1.3781,-1.3854,-1.4062,0.0,0.0,0.0,0.0,0.0,0.0,0.0,0.0,0.0,0.0,-1.4088,-1.4088,-1.4088,-1.4088,-1.4088,-1.4088,-1.4088,-1.4088,-1.4088,-1.4088,-1.4088,0.0,0.0,0.0,0.0,0.0,0.0,0.0,0.0,0.0,0.0,0.0,0.0,0.0,0.0,0.0,0.0,0.0,0.0,0.0,0.0,0.0,0.0,0.0,0.0,0.0,0.0,0.0,0.0,0.0,0.0,-1.509,0.0,0.0,0.0,0.0,0.0,0.0,0.0,0.0,0.0,0.0,0.0,0.0,0.0,0.0,0.0,0.0,0.0,0.0,0.0,0.0,0.0,0.0,-1.4475,-1.4398,-1.4166,-1.4088,-1.4088,-1.4088,-1.4088,-1.4088,-1.4088,-1.4088,-1.4088,0.0,0.0,0.0,0.0,0.0,0.0,0.0,0.0,0.0,0.0,0.0,0.0,0.0,0.0,0.0,0.0,0.0,0.0,0.0,0.0,0.0,0.0,0.0,0.0,0.0,0.0,-1.4068,-1.4075,-1.4075,0.0,0.0,0.0,0.0,0.0,0.0,0.0,0.0,0.0,0.0,-1.4088,-1.4088,-1.4088,-1.4088,-1.4088,-1.4088,-1.4088,-1.4088,-1.4088,-1.4088,-1.4088,0.0,0.0,0.0,0.0,0.0,0.0,0.0,0.0,0.0,0.0,0.0,0.0,0.0,0.0,0.0,0.0,0.0,0.0,0.0,0.0,0.0,0.0,0.0,0.0,0.0,0.0,0.0,-1.5741,-1.5567,0.0,0.0,0.0,0.0,0.0,0.0,0.0,0.0,0.0,0.0,0.0,-1.4243,-1.425,0.0,0.0,0.0,0.0,0.0,0.0,0.0,0.0,0.0,0.0,0.0,0.0,-1.5061,-1.4243,-1.4166,-1.4088,-1.4088,-1.4088,-1.4088,-1.4088,-1.4088,-1.4088,-1.4088,0.0,0.0,0.0,0.0,0.0,0.0,0.0,0.0,0.0,0.0,0.0,0.0,0.0,0.0,0.0,0.0,0.0,0.0,0.0,0.0,0.0,0.0,0.0,0.0,0.0,-1.4088,0.0,0.0,0.0,0.0,0.0,0.0,0.0,0.0,0.0,0.0,0.0,-1.4088,-1.4088,-1.4088,-1.4088,-1.4088,-1.4088,-1.4088,0.0,0.0,0.0,0.0,0.0,0.0,0.0,0.0,0.0,0.0,0.0,0.0,0.0,0.0,-1.4088,-1.4088,-1.4004,-1.3997,-1.3997,0.0,0.0,0.0,0.0,0.0,0.0,0.0,0.0,0.0,0.0,0.0,0.0,0.0,0.0,0.0,0.0,-1.4915,0.0,0.0,0.0,0.0,0.0,0.0,0.0,0.0,-1.4166,-1.4088,-1.4088,-1.4166,-1.4166,0.0,-1.4321,-1.4398,0.0,0.0,0.0,0.0,0.0,0.0,0.0,0.0,-1.4901,-1.4173,-1.4088,-1.4088,-1.4088,-1.4088,-1.4088,-1.4088,-1.4088,-1.4088,-1.4088,-1.4088,-1.4088,0.0,0.0,0.0,0.0,0.0,0.0,0.0,0.0,0.0,0.0,0.0,0.0,0.0,0.0,0.0,0.0,0.0,0.0,0.0,0.0,0.0,0.0,0.0,-1.4088,0.0,0.0,0.0,0.0,0.0,0.0,0.0,0.0,0.0,-1.4088,-1.4088,-1.4088,-1.4088,-1.4088,-1.4088,-1.4088,0.0,0.0,0.0,0.0,0.0,0.0,0.0,-1.4088,-1.4088,-1.4088,-1.4082,-1.3997,-1.3997,-1.3913,-1.3822,0.0,0.0,-1.4082,-1.4004,-1.3822,-1.3828,-1.3828,-1.3743,-1.3743,-1.3652,-1.3476,0.0,0.0,0.0,0.0,0.0,0.0,0.0,0.0,-1.4824,-1.4824,0.0,-1.4573,0.0,0.0,0.0,0.0,0.0,-1.4321,0.0,0.0,-1.4088,-1.4088,-1.4082,-1.4328,-1.4328,-1.4082,-1.4321,-1.4321,-1.4173,-1.4496,0.0,0.0,0.0,0.0,0.0,0.0,-1.4088,-1.4088,-1.4088,-1.4088,-1.4088,-1.4088,-1.4088,-1.4088,-1.4088,-1.4088,-1.4088,-1.4088,-1.4088,-1.4088,-1.4088,0.0,0.0,0.0,0.0,0.0,0.0,0.0,0.0,0.0,0.0,0.0,0.0,0.0,0.0,0.0,0.0,0.0,0.0,0.0,0.0,-1.4088,0.0,0.0,0.0,0.0,0.0,0.0,0.0,0.0,0.0,0.0,-1.4088,-1.4088,-1.4088,-1.4088,0.0,0.0,0.0,0.0,-1.4088,-1.4088,-1.4088,-1.4088,-1.4088,-1.4088,-1.4088,-1.4088,0.0,0.0,-1.3737,-1.3737,-1.3652,-1.3483,-1.3476,-1.3568,-1.4004,-1.3737,-1.3398,-1.3398,-1.3307,-1.3143,-1.3143,-1.3222,-1.3137,-1.6952,0.0,0.0,0.0,0.0,-1.5347,-1.534,-1.5257,-1.509,-1.4908,-1.4824,-1.4482,0.0,0.0,0.0,0.0,0.0,0.0,-1.4166,-1.4088,-1.4088,-1.4088,-1.4088,-1.4166,-1.4166,-1.4088,-1.4166,-1.4166,-1.4088,-1.4243,-1.4321,-1.4398,0.0,0.0,0.0,0.0,-1.4243,-1.4088,-1.4088,-1.4088,-1.4088,-1.4088,-1.4088,-1.4088,-1.4088,-1.4088,-1.4088,-1.4088,-1.4088,-1.4088,-1.4088,0.0,0.0,0.0,0.0,0.0,0.0,0.0,0.0,0.0,0.0,0.0,0.0,0.0,0.0,0.0,0.0,0.0,0.0,0.0,-1.4088,-1.4088,-1.4088,0.0,0.0,0.0,0.0,0.0,0.0,0.0,0.0,0.0,-1.4088,-1.4088,-1.4088,0.0,0.0,-1.4088,-1.4088,-1.4088,-1.4088,-1.4088,-1.4088,0.0,0.0,-1.4088,-1.4088,-1.4088,-1.4088,-1.4082,-1.3997,-1.3997,-1.3997,-1.3913,-1.3737,-1.3652,-1.3743,-1.3568,-1.3398,-1.3398,-1.3398,-1.3313,-1.3313,-1.3313,-1.3313,-1.6221,-1.5431,-1.5431,-1.534,-1.5257,-1.5264,-1.5257,-1.5082,-1.4915,-1.4741,-1.465,-1.4482,-1.4482,-1.465,-1.4566,0.0,0.0,0.0,-1.4088,-1.4088,-1.4088,-1.4088,-1.4088,-1.4088,-1.4088,-1.4088,-1.4088,-1.4088,-1.4088,-1.4088,-1.4166,-1.4237,0.0,0.0,-1.4321,-1.4321,-1.4243,-1.4088,-1.4088,-1.4088,-1.4088,-1.4088,-1.4088,-1.4088,-1.4088,-1.4088,-1.4088,-1.4088,-1.4088,-1.4088,-1.4088,-1.4088,0.0,0.0,0.0,0.0,0.0,0.0,0.0,0.0,0.0,0.0,0.0,-1.4088,0.0,0.0,0.0,0.0,-1.4088,-1.4088,-1.4088,-1.4088,0.0,0.0,0.0,0.0,0.0,0.0,0.0,-1.4088,-1.4088,-1.4088,-1.4088,-1.4088,-1.4088,-1.4088,-1.4088,-1.4088,-1.4088,0.0,-1.4088,-1.4088,-1.4088,-1.4088,-1.4088,-1.4088,-1.4088,-1.4088,-1.4088,-1.4088,-1.3913,-1.3913,-1.3913,-1.3828,-1.3652,-1.3561,-1.3561,-1.3483,-1.3398,-1.3313,-1.3222,-1.313,-1.3137,-1.3137,-1.3137,-1.6223,-1.5504,-1.5504,-1.5307,-1.509,-1.509,-1.4999,-1.4741,-1.4566,-1.4566,-1.465,-1.4475,-1.4657,-1.5006,-1.4748,0.0,-1.4398,-1.4159,-1.4088,-1.4088,-1.4088,-1.4088,-1.4088,-1.4088,-1.4088,-1.4088,-1.4088,-1.4088,-1.4088,-1.4088,-1.4088,-1.4088,-1.4082,-1.4088,-1.4088,-1.4088,-1.4088,-1.4088,-1.4088,-1.4088,-1.4088,-1.4088,-1.4088,-1.4088,-1.4088,-1.4088,-1.4088,-1.4088,-1.4088,-1.4088,-1.4088,-1.4088,-1.4088,0.0,0.0,0.0,0.0,0.0,0.0,0.0,0.0,0.0,0.0,0.0,0.0,0.0,0.0,0.0,-1.4088,0.0,-1.4088,-1.4088,0.0,0.0,0.0,-1.4088,-1.4088,-1.4088,-1.4088,-1.4088,0.0,0.0,-1.4088,-1.4088,-1.4088,-1.4088,-1.4088,-1.4088,-1.4088,-1.4088,-1.4088,-1.4088,-1.4088,-1.4088,-1.4088,-1.4088,-1.4082,-1.4088,-1.4082,-1.3997,-1.3737,-1.3652,-1.3568,-1.3483,-1.3398,-1.3398,-1.3398,-1.3313,-1.3313,-1.3137,-1.296,-1.279,-1.279,-1.279,-1.2875,-1.6307,-1.6148,-1.6148,-1.587,-1.5347,-1.5347,-1.5257,-1.5257,-1.5006,-1.4824,-1.465,-1.4482,-1.4405,-1.4334,-1.425,-1.425,-1.4166,-1.4088,-1.4088,-1.4088,-1.4088,-1.4159,-1.4321,-1.4166,-1.4166,-1.4321,-1.4159,-1.4088,-1.4088,-1.4088,-1.4088,-1.4088,-1.4243,-1.4243,-1.4088,-1.4088,-1.4088,-1.4088,-1.4088,-1.4088,-1.4088,-1.4088,-1.4088,-1.4088,-1.4088,-1.4088,-1.4088,-1.4088,-1.4088,-1.4088,-1.4088,-1.4088,-1.4088,-1.4088,0.0,0.0,0.0,0.0,0.0,0.0,0.0,0.0,0.0,-1.4088,-1.4088,0.0,-1.4088,0.0,-1.4088,-1.4088,-1.4088,-1.4088,0.0,0.0,-1.4088,-1.4088,-1.4088,-1.4088,-1.4088,-1.4088,-1.4088,-1.4088,-1.4088,-1.4088,-1.4088,-1.4088,-1.4088,-1.4088,-1.4088,-1.4088,-1.4088,-1.4102,-1.4108,-1.4088,-1.4108,-1.4088,-1.4017,-1.3828,-1.3828,-1.3737,-1.3483,-1.3483,-1.3483,-1.3392,-1.3307,-1.3222,-1.3222,-1.2966,-1.2875,-1.279,-1.3052,-1.3137,-1.3052,-1.3137,-1.3137,-1.6367,-1.6367,-1.6367,-1.6162,-1.5848,-1.5848,-1.5762,-1.5676,-1.5419,-1.5247,-1.5154,-1.5147,-1.5147,-1.5161,-1.4988,-1.4902,-1.4902,-1.4815,-1.4822,-1.4815,-1.4822,-1.4902,-1.4974,-1.4809,-1.4895,-1.4974,-1.4895,-1.4815,-1.4822,-1.4822,-1.4822,-1.4815,-1.4895,-1.4895,-1.4809,-1.4464,-1.4226,-1.4275,-1.4148,-1.4088,-1.4088,-1.4088,-1.4088,-1.4088,-1.4088,-1.4088,-1.4088,-1.4088,-1.4088,-1.4088,-1.4088,-1.4088,-1.4088,-1.4088,-1.4088,0.0,0.0,0.0,0.0,0.0,0.0,0.0,0.0,0.0,0.0,0.0,-1.4088,-1.4088,-1.4088,-1.4088,-1.4088,-1.4088,-1.4088,-1.4088,-1.4088,-1.4135,-1.4262,-1.4275,-1.4329,-1.4462,-1.4476,-1.4476,-1.4476,-1.4476,-1.4476,-1.4482,-1.4476,-1.4429,-1.4309,-1.4282,-1.4322,-1.4449,-1.4476,-1.4476,-1.4482,-1.4482,-1.4476,-1.4302,-1.4295,-1.4169,-1.3959,-1.384,-1.3808,-1.36,-1.3476,-1.3313,-1.3228,-1.2796,-1.2357,-1.2357,-1.2266,-1.2351,-1.279,-1.3045,-1.2881,-1.6491,-1.6491,-1.6491,-1.6491,-1.6484,-1.6491,-1.6366,-1.6027,-1.5842,-1.5754,-1.5754,-1.5938,-1.6109,-1.6286,-1.6027,-1.5938,-1.5938,-1.5754,-1.5665,-1.5665,-1.5665,-1.5761,-1.5754,-1.5761,-1.5761,-1.5754,-1.5761,-1.5665,-1.5665,-1.5665,-1.5665,-1.5665,-1.5665,-1.5686,-1.57,-1.4967,-1.4566,-1.465,-1.4408,-1.4273,-1.428,-1.4162,-1.4142,-1.4142,-1.4102,-1.4088,-1.4088,-1.4088,-1.4088,-1.4088,-1.4088,-1.4088,-1.4088,-1.4088,-1.4088,0.0,-1.4088,0.0,0.0,0.0,0.0,0.0,0.0,0.0,0.0,-1.4122,-1.4142,-1.4142,-1.4182,-1.4195,-1.4195,-1.4202,-1.4195,-1.4195,-1.4195,-1.4302,-1.4543,-1.4576,-1.4676,-1.4937,-1.506,-1.506,-1.4943,-1.506,-1.5053,-1.5019,-1.4917,-1.485,-1.4689,-1.4603,-1.4663,-1.493,-1.506,-1.489,-1.491,-1.5026,-1.493,-1.4943,-1.4827,-1.4877,-1.4441,-1.4401,-1.4315,-1.3926,-1.3801,-1.3696,-1.3585,-1.2733,-1.2117,-1.2054,-1.1353,-1.106,-1.2032,-1.2357,-1.218,-1.715,-1.715,-1.715,-1.7143,-1.715,-1.715,-1.6843,-1.6286,-1.6286,-1.6109,-1.5931,-1.585,-1.5754,-1.5842,-1.5754,-1.5754,-1.5754,-1.5761,-1.5665,-1.5665,-1.5665,-1.5761,-1.5931,-1.5754,-1.5761,-1.5931,-1.5761,-1.5665,-1.5665,-1.5665,-1.5665,-1.5665,-1.5665,-1.5791,-1.6001,0.0,0.0,0.0,-1.5246,-1.5035,-1.5035,-1.4643,-1.4442,-1.4429,-1.4208,0.0,-1.4088,-1.4088,-1.4088,-1.4088,-1.4088,0.0,0.0,0.0,0.0,0.0,0.0,0.0,0.0,0.0,0.0,0.0,-1.4309,-1.4335,-1.4115,-1.4302,-1.4436,-1.4442,-1.4656,-1.4796,-1.4796,-1.4796,-1.4796,-1.4796,-1.4796,-1.4823,-1.4877,-1.4883,-1.4903,-1.4957,-1.506,-1.497,-1.499,-1.506,-1.4977,-1.5003,-1.506,-1.5044,-1.5211,-1.5023,-1.491,-1.4963,-1.501,-1.5073,-1.506,-1.499,-1.5017,-1.4777,-1.4687,-1.4584,-1.4436,-1.4423,-1.4327,-1.4231,-1.4161,-1.4142,-1.4059,-1.3159,-1.2215,-1.2237,-1.1242,-1.0514,-1.0702,-1.088,-1.0788,-1.7333,0.0,-1.7333,-1.7333,0.0,-1.7333,-1.7143,-1.6843,-1.6759,-1.6584,-1.65,-1.6408,-1.6401,-1.6478,-1.6485,-1.6478,-1.6485,-1.6485,-1.6478,-1.6485,-1.6485,-1.6577,-1.6668,-1.6569,-1.6577,-1.6668,-1.6569,-1.6485,-1.6478,-1.6485,-1.6485,-1.6485,-1.6485,-1.6564,-1.6707,-1.6557,-1.6237,-1.5672,-1.5569,-1.5486,-1.5479,-1.5246,-1.5089,-1.5075,0.0,0.0,0.0,0.0,0.0,0.0,0.0,0.0,0.0,0.0,0.0,-1.4088,-1.4088,-1.4148,-1.4282,-1.4295,-1.4362,-1.4516,-1.4656,-1.4676,-1.4529,-1.4656,-1.4743,-1.4743,-1.4877,-1.506,-1.506,-1.506,-1.506,-1.506,-1.506,-1.501,-1.515,-1.5177,-1.5237,-1.5371,-1.5398,-1.5391,-1.5391,-1.5391,-1.5384,-1.5391,-1.5391,-1.5431,-1.5551,-1.5364,-1.5224,-1.5357,-1.5391,-1.5398,-1.5391,-1.5391,-1.5384,-1.52,-1.52,-1.5134,-1.4924,-1.4806,-1.476,-1.4546,-1.4411,-1.4321,-1.3592,-1.2569,-1.1645,-1.1104,-1.0186,-0.9402,-0.9289,-0.9876,-1.0234,-1.7512,-1.7333,-1.7333,-1.7333,-1.7333,-1.7333,-1.7333,-1.7333,0.0,0.0,0.0,-1.7073,-1.7153,-1.7333,-1.7333,-1.7333,-1.7333,-1.7333,-1.7333,-1.7333,-1.7333,-1.7333,-1.7333,-1.7333,-1.7333,-1.7333,-1.7333,-1.7333,-1.7333,-1.7333,-1.7333,-1.7333,-1.7246,-1.7239,-1.7239,-1.7232,-1.6878,-1.6034,-1.5922,-1.5922,-1.5922,-1.5866,-1.5749,-1.5749,-1.5693,-1.5575,-1.5383,-1.5149,-1.4844,-1.4677,-1.4369,-1.4242,-1.4242,-1.4242,-1.4242,-1.4242,-1.4242,-1.4349,-1.4583,-1.4596,-1.4723,-1.5023,-1.5037,-1.5023,-1.4977,-1.501,-1.5044,-1.5044,-1.509,-1.5124,-1.5117,-1.5117,-1.5117,-1.5117,-1.5117,-1.5224,-1.5438,-1.5471,-1.5558,-1.5778,-1.5805,-1.5825,-1.5798,-1.5798,-1.5825,-1.5818,-1.5778,-1.5825,-1.5798,-1.5618,-1.5545,-1.5732,-1.5745,-1.5798,-1.5818,-1.5798,-1.5825,-1.5778,-1.5792,-1.5738,-1.5551,-1.5471,-1.5186,-1.4649,-1.4559,-1.4031,-1.2911,-1.1905,-1.0944,-1.0113,-0.9181,-0.843,-0.8332,-0.9173,-0.9801,-1.8064,-1.7333,-1.7333,-1.7333,-1.7333,-1.7333,-1.7333,-1.7333,-1.7239,-1.7239,-1.7239,-1.7239,-1.7239,-1.7333,-1.7333,-1.7333,-1.7333,-1.7333,-1.7333,0.0,-1.7333,-1.7333,-1.7333,-1.7333,-1.7333,-1.7333,-1.7333,-1.7333,-1.7333,-1.7333,-1.7333,-1.7239,-1.716,-1.7066,-1.7066,-1.7239,-1.7188,-1.7101,-1.6929,-1.6843,-1.6843,-1.6395,-1.6155,-1.6043,-1.5805,-1.5665,-1.5658,-1.5349,-1.5233,-1.5144,-1.4945,-1.4843,-1.4843,-1.483,-1.4843,-1.4843,-1.4836,-1.4863,-1.4897,-1.4903,-1.5023,-1.5304,-1.5337,-1.5237,-1.4997,-1.5197,-1.5331,-1.5344,-1.5545,-1.5705,-1.5712,-1.5678,-1.5665,-1.5685,-1.5698,-1.5725,-1.5752,-1.5752,-1.5765,-1.5818,-1.5825,-1.5825,-1.5825,-1.5825,-1.5825,-1.5825,-1.5825,-1.5825,-1.5818,-1.5798,-1.5785,-1.5818,-1.5825,-1.5825,-1.5825,-1.5825,-1.5825,-1.5825,-1.5825,-1.5812,-1.5752,-1.5637,-1.5328,-1.4551,-1.4313,-1.3844,-1.289,-1.1666,-1.095,-1.0462,-0.949,-0.8724,-0.8721,-0.9018,-0.8945,-1.8519,-1.8064,-1.7512,-1.7333,-1.7333,-1.7333,-1.7333,-1.7333,-1.7333,-1.7333,-1.7333,-1.7333,-1.7333,-1.7333,-1.7333,-1.7333,-1.7333,-1.7333,-1.7333,-1.7333,-1.7333,-1.7333,-1.7333,-1.7333,-1.7333,-1.7333,-1.7333,-1.7333,-1.7333,-1.7333,-1.7333,-1.7333,-1.7239,-1.7153,-1.7153,-1.7239,-1.7333,-1.7333,-1.7239,-1.7153,-1.7153,-1.6915,-1.6743,-1.6572,-1.643,-1.6267,-1.5991,-1.5734,-1.5463,-1.5372,-1.5134,-1.506,-1.506,-1.506,-1.506,-1.506,-1.506,-1.503,-1.519,-1.5344,-1.5484,-1.5618,-1.5631,-1.5578,-1.5444,-1.5551,-1.5631,-1.5631,-1.5758,-1.5825,-1.5825,-1.5825,-1.5825,-1.5825,-1.5825,-1.5825,-1.5825,-1.5825,-1.5825,-1.5825,-1.5825,-1.5825,-1.5825,-1.5825,-1.5825,-1.5825,-1.5825,-1.5825,-1.5825,-1.5825,-1.5825,-1.5825,-1.5825,-1.5825,-1.5825,-1.5825,-1.5825,-1.5825,-1.5825,-1.5825,-1.573,-1.5445,-1.5064,-1.4968,-1.4292,-1.3318,-1.2732,-1.1755,-1.0979,-1.0203,-0.9719,-0.9225,-0.9031,-0.9034,-0.8871,-1.888,-1.8334,-1.7598,-1.7333,-1.7333,-1.7333,-1.7333,-1.7333,-1.7333,-1.7333,-1.7333,-1.7333,-1.7333,-1.7333,-1.7333,-1.7333,-1.7333,-1.7333,-1.7333,-1.7333,-1.7333,-1.7333,-1.7333,-1.7333,-1.7333,-1.7333,-1.7333,-1.7333,-1.7333,-1.7333,-1.7333,-1.7333,-1.7333,-1.7333,-1.7333,-1.7333,-1.7333,-1.7333,-1.7333,-1.7333,-1.7333,-1.7333,-1.7239,-1.7066,-1.6979,-1.6791,-1.64,-1.6099,-1.5783,-1.5584,-1.5284,-1.5157,-1.5157,-1.5157,-1.5157,-1.5157,-1.5157,-1.5257,-1.5478,-1.5698,-1.5825,-1.5825,-1.5825,-1.5825,-1.5825,-1.5825,-1.5825,-1.5825,-1.5818,-1.5825,-1.5825,-1.5825,-1.5825,-1.5825,-1.5825,-1.5825,-1.5825,-1.5825,-1.5825,-1.5825,-1.5825,-1.5825,-1.5825,-1.5825,-1.5825,-1.5825,-1.5825,-1.5825,-1.5825,-1.5825,-1.5825,-1.5825,-1.5825,-1.5825,-1.5825,-1.5825,-1.5825,-1.5825,-1.5825,-1.5825,-1.5635,-1.4962,-1.4388,-1.4675,-1.3505,-1.2344,-1.1955,-1.137,-1.0493,-0.9821,-0.9624,-0.9529,-0.9331,-0.9335,-0.9229,-1.9055,-1.7512,-1.7333,-1.7333,-1.7333,-1.7333,-1.7333,-1.7333,-1.7333,-1.7333,-1.7333,-1.7333,-1.7333,-1.7333,-1.7333,-1.7333,-1.7333,-1.7333,-1.7333,-1.7333,-1.7333,-1.7333,-1.7333,-1.7333,-1.7333,-1.7333,-1.7333,-1.7333,-1.7333,-1.7333,-1.7333,-1.7333,-1.7333,-1.7333,-1.7333,-1.7333,-1.7333,-1.7333,-1.7333,-1.7333,-1.7333,-1.7333,-1.7333,-1.7232,-1.7066,-1.6979,-1.6885,-1.6473,-1.6177,-1.6089,-1.5846,-1.5732,-1.5738,-1.5738,-1.5738,-1.5732,-1.5732,-1.5765,-1.5785,-1.5812,-1.5825,-1.5825,-1.5825,-1.5825,-1.5825,-1.5825,-1.5825,-1.5825,-1.5825,-1.5825,-1.5825,-1.5825,-1.5825,-1.5825,-1.5825,-1.5825,-1.5825,-1.5825,-1.5825,-1.5825,-1.5825,-1.5825,-1.5825,-1.5825,-1.5825,-1.5825,-1.5825,-1.5825,-1.5825,-1.5825,-1.5825,-1.5825,-1.5825,-1.5825,-1.5825,-1.5825,-1.5825,-1.5825,-1.5825,-1.573,-1.554,-1.4867,-1.41,-1.3505,-1.2242,-1.1179,-1.0498,-0.9821,-0.9821,-0.9723,-0.9624,-0.9628,-0.9525,-0.9529,-0.9525,-1.9422,-1.8156,-1.7505,-1.7333,-1.7333,-1.7333,-1.7333,-1.7333,-1.7333,-1.7333,-1.7333,-1.7333,-1.7333,-1.7333,-1.7333,-1.7333,-1.7333,-1.7333,-1.7333,-1.7333,-1.7333,-1.7333,-1.7333,-1.7333,-1.7333,-1.7333,-1.7333,-1.7333,-1.7333,-1.7333,-1.7333,-1.7333,-1.7333,-1.7333,-1.7333,-1.7333,-1.7333,-1.7333,-1.7333,-1.7333,-1.7333,-1.7333,-1.7239,-1.7153,-1.7066,-1.6885,-1.6784,-1.6407,-1.6224,-1.6224,-1.5927,-1.5825,-1.5825,-1.5825,-1.5825,-1.5825,-1.5825,-1.5825,-1.5825,-1.5825,-1.5825,-1.5825,-1.5825,-1.5825,-1.5825,-1.5825,-1.5825,-1.5825,-1.5825,-1.5825,-1.5825,-1.5825,-1.5825,-1.5825,-1.5825,-1.5825,-1.5825,-1.5825,-1.5825,-1.5825,-1.5825,-1.5825,-1.5825,-1.5825,-1.5825,-1.5825,-1.5825,-1.5825,-1.5825,-1.5825,-1.5825,-1.5825,-1.5825,-1.5825,-1.5825,-1.5825,-1.5825,-1.5825,-1.5825,-1.573,-1.4968,-1.4094,-1.3119,-1.2727,-1.137,-1.0596,-1.0788,-0.9916,-0.9624,-0.9624,-0.9624,-0.9624,-0.9624,-0.9624,-0.9624,-1.9513,-1.8326,-1.7606,-1.7333,-1.7333,-1.7333,-1.7333,-1.7333,-1.7333,-1.7333,-1.7333,-1.7333,-1.7333,-1.7333,-1.7333,-1.7333,-1.7333,-1.7333,-1.7333,-1.7333,-1.7333,-1.7333,-1.7333,-1.7333,-1.7333,-1.7333,-1.7333,-1.7333,-1.7333,-1.7333,-1.7333,-1.7333,-1.7333,-1.7333,-1.7333,-1.7333,-1.7333,-1.7333,-1.7333,-1.7333,-1.7333,-1.7333,-1.7246,-1.7059,-1.6979,-1.6878,-1.669,-1.6508,-1.6312,-1.6224,-1.6116,-1.5927,-1.5825,-1.5832,-1.5832,-1.5825,-1.5825,-1.5825,-1.5825,-1.5825,-1.5825,-1.5825,-1.5825,-1.5825,-1.5825,-1.5825,-1.5825,-1.5825,-1.5825,-1.5825,-1.5825,-1.5825,-1.5825,-1.5825,-1.5825,-1.5825,-1.5825,-1.5825,-1.5825,-1.5825,-1.5825,-1.5825,-1.5825,-1.5825,-1.5825,-1.5825,-1.5825,-1.5825,-1.5825,-1.5825,-1.5825,-1.5825,-1.5825,-1.5825,-1.5825,-1.5825,-1.5825,-1.5825,-1.5825,-1.554,-1.4675,-1.3703,-1.2732,-1.2533,-1.0792,-0.992,-1.0207,-0.9821,-0.9624,-0.9624,-0.9624,-0.9624,-0.9624,-0.9624,-0.9624,-1.9055,-1.7512,-1.7333,-1.7333,-1.7333,-1.7333,-1.7333,-1.7333,-1.7333,-1.7333,-1.7333,-1.7333,-1.7333,-1.7333,-1.7333,-1.7333,-1.7333,-1.7333,-1.7333,-1.7333,-1.7333,-1.7333,-1.7333,-1.7333,-1.7333,-1.7333,-1.7333,-1.7333,-1.7333,-1.7333,-1.7333,-1.7333,-1.7333,-1.7333,-1.7333,-1.7333,-1.7333,-1.7333,-1.7333,-1.7333,-1.7333,-1.7333,-1.7333,-1.7239,-1.7059,-1.6972,-1.6972,-1.6683,-1.6494,-1.6224,-1.6407,-1.6305,-1.5927,-1.6021,-1.6028,-1.5832,-1.5825,-1.5825,-1.5825,-1.5825,-1.5825,-1.5825,-1.5825,-1.5825,-1.5825,-1.5825,-1.5825,-1.5825,-1.5825,-1.5825,-1.5825,-1.5825,-1.5825,-1.5825,-1.5825,-1.5825,-1.5825,-1.5825,-1.5825,-1.5825,-1.5825,-1.5825,-1.5825,-1.5825,-1.5825,-1.5825,-1.5825,-1.5825,-1.5825,-1.5825,-1.5825,-1.5825,-1.5825,-1.5825,-1.5825,-1.5825,-1.5825,-1.5825,-1.5825,-1.5635,-1.5051,-1.4274,-1.3312,-1.2247,-1.0694,-0.9821,-0.9727,-0.9628,-0.9628,-0.9624,-0.9624,-0.9624,-0.9624,-0.9624,-0.9624,-1.9055,-1.7326,-1.7333,-1.7333,-1.7333,-1.7333,-1.7333,-1.7333,-1.7333,-1.7333,-1.7333,-1.7333,-1.7333,-1.7333,-1.7333,-1.7333,-1.7333,-1.7333,-1.7333,-1.7333,-1.7333,-1.7333,-1.7333,-1.7333,-1.7333,-1.7333,-1.7333,-1.7333,-1.7333,-1.7333,-1.7333,-1.7333,-1.7333,-1.7333,-1.7333,-1.7333,-1.7333,-1.7333,-1.7333,-1.7333,-1.7333,-1.7333,-1.7333,-1.7333,-1.7239,-1.7153,-1.7145,-1.6965,-1.6791,-1.6697,-1.6494,-1.6218,-1.6028,-1.6028,-1.5927,-1.5825,-1.5825,-1.5825,-1.5825,-1.5825,-1.5825,-1.5825,-1.5825,-1.5825,-1.5825,-1.5825,-1.5825,-1.5825,-1.5825,-1.5825,-1.5825,-1.5825,-1.5825,-1.5825,-1.5825,-1.5825,-1.5825,-1.5825,-1.5825,-1.5825,-1.5825,-1.5825,-1.5825,-1.5825,-1.5825,-1.5825,-1.5825,-1.5825,-1.5825,-1.5825,-1.5825,-1.5825,-1.5825,-1.5825,-1.5825,-1.5825,-1.5825,-1.5825,-1.5635,-1.486,-1.4184,-1.3698,-1.2732,-1.1375,-1.0015,-0.9723,-0.9628,-0.9628,-0.9624,-0.9624,-0.9624,-0.9624,-0.9624,-0.9624,-0.9624,-1.8964,-1.7785,-1.7419,-1.7512,-1.7692,-1.7419,-1.7333,-1.7333,-1.7333,-1.7333,-1.7333,-1.7333,-1.7333,-1.7333,-1.7333,-1.7333,-1.7333,-1.7333,-1.7333,-1.7333,-1.7333,-1.7333,-1.7333,-1.7333,-1.7333,-1.7333,-1.7333,-1.7333,-1.7333,-1.7333,-1.7333,-1.7333,-1.7333,-1.7333,-1.7333,-1.7333,-1.7333,-1.7333,-1.7333,-1.7333,-1.7333,-1.7333,-1.7333,-1.7333,-1.7333,-1.7333,-1.7333,-1.7153,-1.7073,-1.6979,-1.669,-1.6501,-1.6407,-1.6123,-1.5933,-1.5927,-1.5832,-1.5825,-1.5825,-1.5825,-1.5825,-1.5825,-1.5825,-1.5825,-1.5825,-1.5825,-1.5825,-1.5825,-1.5825,-1.5825,-1.5825,-1.5825,-1.5825,-1.5825,-1.5825,-1.5825,-1.5825,-1.5825,-1.5825,-1.5825,-1.5825,-1.5825,-1.5825,-1.5825,-1.5825,-1.5825,-1.5825,-1.5825,-1.5825,-1.5825,-1.5825,-1.5825,-1.5825,-1.5825,-1.5825,-1.5825,-1.573,-1.573,-1.5635,-1.4669,-1.3601,-1.3022,-1.2052,-1.06,-0.9821,-0.9723,-0.9624,-0.9624,-0.9624,-0.9624,-0.9624,-0.9624,-0.9624,-0.9624,-0.9624,-1.888,-1.8703,-1.7792,-1.7963,-1.8603,-1.7878,-1.7333,-1.7419,-1.7326,-1.7333,-1.7333,-1.7333,-1.7333,-1.7333,-1.7333,-1.7333,-1.7333,-1.7333,-1.7333,-1.7333,-1.7333,-1.7333,-1.7333,-1.7333,-1.7333,-1.7333,-1.7333,-1.7333,-1.7333,-1.7333,-1.7333,-1.7333,-1.7333,-1.7333,-1.7333,-1.7333,-1.7333,-1.7333,-1.7333,-1.7333,-1.7333,-1.7333,-1.7333,-1.7333,-1.7333,-1.7333,-1.7333,-1.7333,-1.7239,-1.7066,-1.7153,-1.7145,-1.6784,-1.6407,-1.6123,-1.6123,-1.5933,-1.5825,-1.5825,-1.5825,-1.5825,-1.5825,-1.5825,-1.5825,-1.5825,-1.5825,-1.5825,-1.5825,-1.5825,-1.5825,-1.5825,-1.5825,-1.5825,-1.5825,-1.5825,-1.5825,-1.5825,-1.5825,-1.5825,-1.5825,-1.5825,-1.5825,-1.5825,-1.5825,-1.5825,-1.5825,-1.5825,-1.5825,-1.5825,-1.5825,-1.5825,-1.5825,-1.5825,-1.5825,-1.5825,-1.5825,-1.573,-1.573,-1.554,-1.4962,-1.38,-1.2926,-1.1858,-1.0498,-0.9821,-0.9628,-0.9624,-0.9624,-0.9624,-0.9624,-0.9624,-0.9624,-0.9624,-0.9624,-0.9624,-1.9786,-1.9786,-1.9422,-1.9513,-1.9596,-1.8788,-1.8334,-1.8241,-1.7598,-1.7333,-1.7333,-1.7333,-1.7333,-1.7333,-1.7333,-1.7333,-1.7333,-1.7333,-1.7333,-1.7333,-1.7333,-1.7333,-1.7333,-1.7333,-1.7333,-1.7333,-1.7333,-1.7333,-1.7333,-1.7333,-1.7333,-1.7333,-1.7333,-1.7333,-1.7333,-1.7333,-1.7333,-1.7333,-1.7333,-1.7333,-1.7333,-1.7333,-1.7333,-1.7333,-1.7333,-1.7333,-1.7333,-1.7333,-1.7239,-1.7239,-1.6965,-1.6581,-1.6211,-1.6028,-1.5927,-1.5933,-1.5832,-1.5825,-1.5825,-1.5825,-1.5825,-1.5825,-1.5825,-1.5825,-1.5825,-1.5825,-1.5825,-1.5825,-1.5825,-1.5825,-1.5825,-1.5825,-1.5825,-1.5825,-1.5825,-1.5825,-1.5825,-1.5825,-1.5825,-1.5825,-1.5825,-1.5825,-1.5825,-1.5825,-1.5825,-1.5825,-1.5825,-1.5825,-1.5825,-1.5825,-1.5825,-1.5825,-1.5825,-1.5825,-1.5825,-1.573,-1.5635,-1.554,-1.535,-1.4567,-1.3505,-1.2829,-1.1663,-1.0596,-0.992,-0.9628,-0.9628,-0.9624,-0.9624,-0.9624,-0.9624,-0.9624,-0.9624,-0.9624,-0.9624,-2.0782,-2.0683,-2.0322,-2.0421,-2.0602,-1.9695,-1.933,-1.9239,-1.8696,-1.8419,-1.8419,-1.8419,-1.8326,-1.8419,-1.8419,-1.8141,-1.787,-1.7878,-1.7606,-1.7326,-1.7333,-1.7333,-1.7333,-1.7333,-1.7333,-1.7333,-1.7333,-1.7333,-1.7333,-1.7333,-1.7333,-1.7333,-1.7333,-1.7333,-1.7333,-1.7333,-1.7333,-1.7333,-1.7333,-1.7333,-1.7333,-1.7333,-1.7333,-1.7333,-1.7333,-1.7333,-1.7333,-1.7333,-1.7333,-1.7232,-1.6951,-1.6676,-1.6312,-1.6305,-1.6211,-1.6116,-1.6116,-1.6116,-1.6021,-1.5933,-1.5927,-1.5832,-1.5825,-1.5825,-1.5825,-1.5825,-1.5825,-1.5825,-1.5825,-1.5825,-1.5825,-1.5825,-1.5825,-1.5825,-1.5825,-1.5825,-1.5825,-1.5825,-1.5825,-1.5825,-1.5825,-1.5825,-1.5825,-1.5825,-1.5825,-1.5825,-1.5825,-1.5825,-1.5825,-1.5825,-1.5825,-1.5825,-1.5825,-1.5825,-1.5825,-1.573,-1.5547,-1.5356,-1.5159,-1.389,-1.263,-1.2533,-1.1853,-1.0498,-0.9628,-0.9628,-0.9624,-0.9624,-0.9624,-0.9624,-0.9624,-0.9624,-0.9624,-0.9624,-0.9624,-2.1784,-2.1695,-2.0782,-2.0962,-2.1596,-2.0692,-2.0322,-2.0232,-2.0141,-1.996,-2.0051,-1.996,-2.0059,-2.0141,-1.9869,-1.9513,-1.8972,-1.888,-1.8519,-1.7878,-1.7606,-1.7512,-1.7326,-1.7333,-1.7333,-1.7333,-1.7333,-1.7333,-1.7333,-1.7333,-1.7333,-1.7333,-1.7333,-1.7333,-1.7333,-1.7333,-1.7333,-1.7333,-1.7333,-1.7333,-1.7333,-1.7333,-1.7333,-1.7333,-1.7333,-1.7333,-1.7333,-1.7333,-1.7333,-1.7333,-1.7239,-1.7052,-1.6972,-1.6979,-1.6784,-1.6588,-1.6588,-1.6407,-1.6312,-1.6218,-1.6116,-1.592,-1.592,-1.5825,-1.5832,-1.5832,-1.5825,-1.5825,-1.5825,-1.5825,-1.5825,-1.5825,-1.5825,-1.5825,-1.5825,-1.5825,-1.5825,-1.5825,-1.5825,-1.5825,-1.5825,-1.5825,-1.5825,-1.5825,-1.5825,-1.5825,-1.5825,-1.5825,-1.5825,-1.5825,-1.5825,-1.5825,-1.5825,-1.5825,-1.5825,-1.5825,-1.554,-1.5064,-1.4968,-1.3992,-1.2339,-1.195,-1.1565,-1.0306,-0.9624,-0.9624,-0.9624,-0.9624,-0.9624,-0.9624,-0.9624,-0.9624,-0.9624,-0.9624,-0.9624,-2.2775,-2.2687,-2.2413,-2.2501,-2.2599,-2.1686,-2.1329,-2.1239,-2.0503,-2.0322,-2.0232,-2.0232,-2.0331,-2.0232,-2.0232,-2.0059,-1.9869,-1.9869,-1.9786,-1.933,-1.8696,-1.7963,-1.7419,-1.7333,-1.7333,-1.7326,-1.7333,-1.7333,-1.7333,-1.7333,-1.7333,-1.7333,-1.7333,-1.7333,-1.7333,-1.7333,-1.7333,-1.7333,-1.7333,-1.7333,-1.7333,-1.7333,-1.7333,-1.7333,-1.7333,-1.7333,-1.7333,-1.7333,-1.7239,-1.7066,-1.7059,-1.6972,-1.6777,-1.6777,-1.6683,-1.6683,-1.6588,-1.6588,-1.6494,-1.6494,-1.6494,-1.6393,-1.6211,-1.6123,-1.6123,-1.5933,-1.5832,-1.5825,-1.5825,-1.5825,-1.5825,-1.5825,-1.5825,-1.5825,-1.5825,-1.5825,-1.5825,-1.5825,-1.5825,-1.5825,-1.5825,-1.5825,-1.5825,-1.5825,-1.5825,-1.5825,-1.5825,-1.5825,-1.5825,-1.5825,-1.5825,-1.5825,-1.5825,-1.5825,-1.5825,-1.5825,-1.554,-1.4867,-1.4675,-1.4573,-1.2732,-1.1277,-1.06,-0.9628,-0.9628,-0.9624,-0.9624,-0.9624,-0.9624,-0.9624,-0.9624,-0.9624,-0.9624,-0.9624,-0.9624,-2.3232,-2.3242,-2.3135,-2.3144,-2.3057,-2.2501,-2.2325,-2.2148,-2.1686,-2.1409,-2.1409,-2.1409,-2.1409,-2.1409,-2.1418,-2.115,-2.0872,-2.0782,-2.0602,-2.0141,-1.9596,-1.8603,-1.7785,-1.7963,-1.8149,-1.7419,-1.7792,-1.7692,-1.7419,-1.7333,-1.7333,-1.7333,-1.7333,-1.7333,-1.7333,-1.7333,-1.7333,-1.7333,-1.7333,-1.7333,-1.7333,-1.7333,-1.7333,-1.7333,-1.7333,-1.7333,-1.7333,-1.7333,-1.7239,-1.7153,-1.7153,-1.6965,-1.6777,-1.6864,-1.6864,-1.6777,-1.6871,-1.6864,-1.6777,-1.6784,-1.6683,-1.6588,-1.64,-1.6407,-1.6305,-1.6211,-1.6109,-1.6021,-1.6028,-1.5927,-1.5825,-1.5825,-1.5825,-1.5825,-1.5825,-1.5825,-1.5825,-1.5825,-1.5825,-1.5825,-1.5825,-1.5825,-1.5825,-1.5825,-1.5825,-1.5825,-1.5825,-1.5825,-1.5825,-1.5825,-1.5825,-1.5825,-1.5825,-1.5825,-1.5825,-1.5825,-1.5825,-1.5153,-1.4286,-1.428,-1.3119,-1.1184,-1.0212,-0.9628,-0.9628,-0.9624,-0.9624,-0.9624,-0.9624,-0.9624,-0.9624,-0.9624,-0.9624,-0.9624,-0.9624,-2.3503,-2.3503,-2.3222,-2.3135,-2.3135,-2.3057,-2.296,-2.3047,-2.296,-2.296,-2.296,-2.3047,-2.2775,-2.3144,-2.2687,-2.2599,-2.1872,-2.1784,-2.123,-2.0773,-2.0413,-1.9687,-1.8234,-1.9239,-1.9055,-1.8149,-1.8603,-1.8419,-1.8056,-1.7699,-1.7512,-1.7505,-1.7419,-1.7333,-1.7333,-1.7333,-1.7333,-1.7333,-1.7333,-1.7333,-1.7333,-1.7333,-1.7333,-1.7333,-1.7333,-1.7333,-1.7333,-1.7333,-1.7333,-1.7333,-1.7333,-1.7145,-1.7066,-1.7239,-1.7239,-1.7059,-1.7153,-1.7145,-1.7066,-1.6972,-1.6972,-1.677,-1.6683,-1.6683,-1.6588,-1.6588,-1.64,-1.6218,-1.6218,-1.6123,-1.5927,-1.5825,-1.5825,-1.5825,-1.5825,-1.5825,-1.5825,-1.5825,-1.5825,-1.5825,-1.5825,-1.5825,-1.5825,-1.5825,-1.5825,-1.5825,-1.5825,-1.5825,-1.5825,-1.5825,-1.5825,-1.5825,-1.5825,-1.5825,-1.5825,-1.5825,-1.5825,-1.554,-1.4184,-1.3601,-1.3119,-1.1668,-1.0306,-0.9624,-0.9624,-0.9624,-0.9624,-0.9624,-0.9624,-0.9624,-0.9624,-0.9624,-0.9624,-0.9624,-0.9624,-2.3754,-2.3754,-2.3493,-2.3406,-2.3416,-2.3222,-2.3135,-2.3144,-2.3144,-2.3144,-2.3144,-2.3144,-2.3144,-2.3144,-2.3057,-2.296,-2.2775,-2.2687,-2.2325,-2.1596,-2.2227,-2.132,-1.996,-2.0232,-1.9968,-1.9596,-1.9687,-1.9786,-1.9422,-1.8788,-1.8511,-1.8419,-1.787,-1.7333,-1.7419,-1.7606,-1.7333,-1.7333,-1.7333,-1.7326,-1.7326,-1.7326,-1.7419,-1.7512,-1.7419,-1.7333,-1.7333,-1.7333,-1.7333,-1.7333,-1.7333,-1.7239,-1.7246,-1.7239,-1.7239,-1.7239,-1.7239,-1.7239,-1.7239,-1.7246,-1.7246,-1.7145,-1.6965,-1.6878,-1.6878,-1.6777,-1.6588,-1.6494,-1.6487,-1.6407,-1.6123,-1.5927,-1.5832,-1.5825,-1.5825,-1.5825,-1.5825,-1.5825,-1.5825,-1.5825,-1.5825,-1.5825,-1.5825,-1.5825,-1.5825,-1.5825,-1.5825,-1.5825,-1.5825,-1.5825,-1.5825,-1.5825,-1.5825,-1.5825,-1.5825,-1.573,-1.5635,-1.5445,-1.4382,-1.3312,-1.2829,-1.2155,-1.0792,-1.0015,-0.9624,-0.9723,-0.9916,-0.9624,-0.9624,-0.9624,-0.9624,-0.9624,-0.9624,-0.9624,-0.9624,-2.4024,-2.3937,-2.3764,-2.358,-2.3493,-2.3319,-2.3232,-2.3144,-2.3144,-2.3144,-2.3144,-2.3144,-2.3144,-2.3144,-2.3144,-2.3144,-2.3144,-2.3047,-2.2872,-2.2511,-2.2872,-2.2501,-2.1872,-2.1409,-2.1239,-2.0512,-2.0692,-2.0692,-2.0141,-1.9778,-1.9422,-1.9422,-1.8872,-1.878,-1.8688,-1.8596,-1.8419,-1.8149,-1.7971,-1.7785,-1.7419,-1.7785,-1.8326,-1.8419,-1.8241,-1.7971,-1.8056,-1.7512,-1.7333,-1.7333,-1.7333,-1.7333,-1.7333,-1.7333,-1.7333,-1.7333,-1.7333,-1.7333,-1.7333,-1.7333,-1.7333,-1.7333,-1.7153,-1.7153,-1.7153,-1.6958,-1.6864,-1.6777,-1.6784,-1.6697,-1.6407,-1.6312,-1.6116,-1.6021,-1.6021,-1.5927,-1.5825,-1.5825,-1.5825,-1.5825,-1.5825,-1.5825,-1.5825,-1.5825,-1.5825,-1.5825,-1.5825,-1.5825,-1.5825,-1.5825,-1.5825,-1.5825,-1.5825,-1.5825,-1.5825,-1.573,-1.5445,-1.5159,-1.4484,-1.3607,-1.3028,-1.2252,-1.1277,-1.089,-1.0596,-1.04,-1.0498,-1.0109,-0.9723,-0.9624,-0.9624,-0.9624,-0.9628,-0.9628,-0.9628,-2.4196,-2.4206,-2.3927,-2.3754,-2.359,-2.358,-2.3406,-2.3144,-2.3144,-2.3135,-2.3144,-2.3144,-2.3144,-2.3144,-2.3144,-2.3144,-2.3144,-2.3144,-2.296,-2.3047,-2.3057,-2.296,-2.2775,-2.2687,-2.2227,-2.0872,-2.1507,-2.1418,-2.0962,-2.0512,-2.0421,-2.0413,-2.0141,-1.9869,-2.0051,-2.0141,-1.9695,-1.9063,-1.8964,-1.8696,-1.8141,-1.8696,-1.9322,-1.9687,-1.9422,-1.888,-1.8603,-1.8064,-1.7512,-1.7333,-1.7333,-1.7333,-1.7333,-1.7333,-1.7333,-1.7333,-1.7333,-1.7333,-1.7333,-1.7333,-1.7333,-1.7333,-1.7333,-1.7333,-1.7239,-1.7239,-1.7145,-1.7059,-1.6972,-1.6885,-1.669,-1.6588,-1.6494,-1.6305,-1.6218,-1.6123,-1.5927,-1.5832,-1.5927,-1.5825,-1.5825,-1.5825,-1.5825,-1.5825,-1.5825,-1.5825,-1.5825,-1.5825,-1.5825,-1.5825,-1.5825,-1.5825,-1.5825,-1.5825,-1.5825,-1.5825,-1.554,-1.5255,-1.4682,-1.4286,-1.3703,-1.3505,-1.3022,-1.2247,-1.1955,-1.1663,-1.1175,-1.069,-1.0306,-0.9916,-0.9723,-0.9723,-0.9723,-0.9727,-0.9628,-2.4454,-2.4454,-2.4196,-2.4024,-2.3754,-2.3754,-2.3484,-2.3144,-2.3319,-2.3319,-2.3144,-2.3144,-2.3144,-2.3135,-2.3144,-2.3144,-2.3144,-2.3144,-2.3144,-2.3144,-2.3144,-2.3144,-2.3144,-2.3047,-2.2862,-2.2775,-2.2775,-2.2599,-2.2325,-2.1872,-2.1507,-2.123,-2.0773,-2.0413,-2.0413,-2.0232,-2.0322,-2.0059,-1.996,-1.9786,-1.9596,-1.9778,-2.0051,-2.0331,-1.9968,-1.9521,-1.888,-1.8611,-1.8149,-1.7419,-1.7333,-1.7333,-1.7333,-1.7333,-1.7333,-1.7333,-1.7333,-1.7333,-1.7333,-1.7333,-1.7333,-1.7333,-1.7333,-1.7333,-1.7333,-1.7333,-1.7239,-1.7239,-1.7066,-1.6979,-1.6979,-1.6777,-1.6581,-1.6588,-1.6501,-1.6407,-1.6218,-1.6123,-1.6028,-1.5927,-1.592,-1.5825,-1.5825,-1.5825,-1.5825,-1.5825,-1.5825,-1.5825,-1.5825,-1.5825,-1.5825,-1.5825,-1.5825,-1.5825,-1.5825,-1.5825,-1.573,-1.573,-1.535,-1.535,-1.5051,-1.5248,-1.486,-1.3794,-1.3022,-1.2538,-1.2052,-1.1468,-1.137,-1.137,-1.0694,-1.0015,-1.0109,-1.0306,-0.9727,-2.455,-2.4454,-2.4368,-2.4206,-2.4024,-2.4013,-2.3851,-2.3493,-2.358,-2.3493,-2.3406,-2.3406,-2.3309,-2.3222,-2.3232,-2.3232,-2.3144,-2.3144,-2.3144,-2.3144,-2.3144,-2.3144,-2.3144,-2.3144,-2.3144,-2.3047,-2.3057,-2.3144,-2.3047,-2.2687,-2.2413,-2.2325,-2.1872,-2.1686,-2.1686,-2.1784,-2.1418,-2.115,-2.0962,-2.0692,-2.0413,-2.0692,-2.0962,-2.0872,-2.0413,-1.9695,-1.888,-1.8149,-1.7785,-1.7419,-1.7333,-1.7333,-1.7333,-1.7333,-1.7333,-1.7333,-1.7333,-1.7333,-1.7333,-1.7333,-1.7333,-1.7333,-1.7333,-1.7333,-1.7333,-1.7333,-1.7333,-1.7239,-1.7239,-1.716,-1.7153,-1.7052,-1.6965,-1.6878,-1.6784,-1.669,-1.6501,-1.6407,-1.6305,-1.6116,-1.6021,-1.5927,-1.5825,-1.5825,-1.5825,-1.5825,-1.5825,-1.5825,-1.5825,-1.5825,-1.5825,-1.5825,-1.5825,-1.5825,-1.5825,-1.5825,-1.5825,-1.5825,-1.5825,-1.5825,-1.5825,-1.573,-1.554,-1.486,-1.4184,-1.3607,-1.3221,-1.2732,-1.2732,-1.2533,-1.1858,-1.1179,-1.0984,-1.0788,-1.0113,-2.455,-2.455,-2.455,-2.4368,-2.4206,-2.4206,-2.411,-2.3841,-2.3841,-2.3754,-2.359,-2.3667,-2.358,-2.3406,-2.3406,-2.3406,-2.3135,-2.3135,-2.3144,-2.3144,-2.3144,-2.3144,-2.3144,-2.3144,-2.3144,-2.3144,-2.3144,-2.3144,-2.3144,-2.3047,-2.3047,-2.296,-2.3047,-2.3144,-2.296,-2.2775,-2.2511,-2.2236,-2.1971,-2.1507,-2.115,-2.1338,-2.1695,-2.1606,-2.0692,-1.9786,-1.888,-1.8241,-1.7692,-1.7419,-1.7333,-1.7333,-1.7333,-1.7333,-1.7333,-1.7333,-1.7333,-1.7333,-1.7333,-1.7333,-1.7333,-1.7333,-1.7333,-1.7333,-1.7333,-1.7333,-1.7333,-1.7333,-1.7333,-1.7239,-1.7239,-1.7333,-1.7246,-1.7066,-1.7066,-1.6972,-1.6784,-1.6683,-1.6588,-1.64,-1.6116,-1.6116,-1.6109,-1.5927,-1.6021,-1.5927,-1.5927,-1.5825,-1.5825,-1.5825,-1.5825,-1.5825,-1.5825,-1.5825,-1.5825,-1.5825,-1.5825,-1.5825,-1.5825,-1.5825,-1.5825,-1.5825,-1.5534,-1.5343,-1.5153,-1.4478,-1.419,-1.3806,-1.3511,-1.3221,-1.2732,-1.215,-1.137,-1.069,-1.0113,-2.455,-2.455,-2.455,-2.4368,-2.4206,-2.4378,-2.4186,-2.3841,-2.4024,-2.4024,-2.3764,-2.3841,-2.3754,-2.3667,-2.3503,-2.3503,-2.3406,-2.3222,-2.3144,-2.3144,-2.3144,-2.3144,-2.3144,-2.3144,-2.3144,-2.3144,-2.3144,-2.3144,-2.3144,-2.3144,-2.3144,-2.3144,-2.3144,-2.3144,-2.3144,-2.3144,-2.3047,-2.296,-2.2872,-2.2775,-2.2501,-2.1971,-2.1695,-2.1239,-2.0593,-1.9596,-1.8788,-1.8241,-1.8056,-1.7326,-1.7333,-1.7333,-1.7333,-1.7333,-1.7333,-1.7333,-1.7333,-1.7333,-1.7333,-1.7333,-1.7333,-1.7333,-1.7333,-1.7333,-1.7333,-1.7333,-1.7333,-1.7333,-1.7333,-1.7333,-1.7333,-1.7333,-1.7326,-1.7239,-1.7246,-1.716,-1.6972,-1.6965,-1.6871,-1.6777,-1.6581,-1.6487,-1.6581,-1.6305,-1.6123,-1.6028,-1.5933,-1.5927,-1.5825,-1.5825,-1.5825,-1.5825,-1.5825,-1.5825,-1.5825,-1.5825,-1.5825,-1.5825,-1.5825,-1.5825,-1.5825,-1.5825,-1.5825,-1.5635,-1.5445,-1.535,-1.5057,-1.4675,-1.4292,-1.3806,-1.3409,-1.2436,-1.1268,-1.0694,-1.0212,-2.455,-2.455,-2.455,-2.4464,-2.4368,-2.4464,-2.4378,-2.4282,-2.4282,-2.4196,-2.411,-2.411,-2.411,-2.4013,-2.3677,-2.3493,-2.3416,-2.3232,-2.3144,-2.3144,-2.3144,-2.3144,-2.3144,-2.3144,-2.3144,-2.3144,-2.3144,-2.3144,-2.3144,-2.3135,-2.3144,-2.3144,-2.3144,-2.3144,-2.3144,-2.3144,-2.3057,-2.3057,-2.3047,-2.2784,-2.2325,-2.1872,-2.115,-2.0141,-1.9695,-1.8964,-1.8241,-1.7971,-1.7785,-1.7333,-1.7333,-1.7333,-1.7333,-1.7333,-1.7333,-1.7333,-1.7333,-1.7333,-1.7333,-1.7333,-1.7333,-1.7333,-1.7333,-1.7333,-1.7333,-1.7333,-1.7333,-1.7333,-1.7333,-1.7333,-1.7333,-1.7333,-1.7333,-1.7333,-1.7333,-1.7239,-1.7153,-1.7145,-1.7145,-1.7044,-1.6951,-1.6958,-1.6864,-1.6676,-1.64,-1.6218,-1.6123,-1.6021,-1.5927,-1.5825,-1.5825,-1.5825,-1.5825,-1.5825,-1.5825,-1.5825,-1.5825,-1.5825,-1.5825,-1.5825,-1.5825,-1.5825,-1.5825,-1.5825,-1.573,-1.5635,-1.5737,-1.554,-1.4962,-1.4478,-1.3992,-1.292,-1.195,-1.117,-1.069,-2.455,-2.455,-2.455,-2.455,-2.455,-2.455,-2.4464,-2.4454,-2.4464,-2.4368,-2.4378,-2.4368,-2.4368,-2.4196,-2.3851,-2.3754,-2.3677,-2.3406,-2.3319,-2.3232,-2.3232,-2.3319,-2.3319,-2.3319,-2.3309,-2.3232,-2.3309,-2.3309,-2.3309,-2.3309,-2.3232,-2.3144,-2.3144,-2.3144,-2.3144,-2.3144,-2.3144,-2.3144,-2.3144,-2.2775,-2.2236,-2.1872,-2.0782,-1.9695,-1.888,-1.8334,-1.7512,-1.7333,-1.7326,-1.7333,-1.7333,-1.7333,-1.7333,-1.7333,-1.7333,-1.7333,-1.7333,-1.7333,-1.7333,-1.7333,-1.7333,-1.7333,-1.7333,-1.7333,-1.7333,-1.7333,-1.7333,-1.7333,-1.7333,-1.7333,-1.7333,-1.7333,-1.7333,-1.7333,-1.7333,-1.7333,-1.7333,-1.7239,-1.7239,-1.7239,-1.7145,-1.7239,-1.7145,-1.6951,-1.6676,-1.6501,-1.6312,-1.6218,-1.6116,-1.592,-1.5927,-1.5927,-1.5832,-1.5832,-1.5825,-1.5825,-1.5825,-1.5825,-1.5825,-1.5825,-1.5825,-1.5825,-1.5825,-1.5825,-1.5825,-1.5825,-1.5825,-1.573,-1.5635,-1.4771,-1.3998,-1.3607,-1.2829,-1.195,-1.0979,-2.455,-2.455,-2.455,-2.455,-2.455,-2.455,-2.455,-2.455,-2.455,-2.4464,-2.4464,-2.4454,-2.4454,-2.4368,-2.4196,-2.411,-2.411,-2.3841,-2.3667,-2.3667,-2.3754,-2.3667,-2.3667,-2.3667,-2.3657,-2.3667,-2.3667,-2.3657,-2.3744,-2.3667,-2.3406,-2.3144,-2.3232,-2.3144,-2.3135,-2.3135,-2.3135,-2.3144,-2.3144,-2.3047,-2.2589,-2.205,-2.106,-2.0051,-1.9147,-1.8334,-1.7426,-1.7333,-1.7333,-1.7333,-1.7333,-1.7333,-1.7333,-1.7333,-1.7333,-1.7333,-1.7333,-1.7333,-1.7333,-1.7333,-1.7333,-1.7333,-1.7333,-1.7333,-1.7333,-1.7333,-1.7333,-1.7333,-1.7333,-1.7333,-1.7333,-1.7333,-1.7333,-1.7333,-1.7333,-1.7333,-1.7333,-1.7333,-1.7333,-1.7333,-1.7333,-1.7333,-1.7333,-1.7138,-1.6958,-1.6784,-1.6501,-1.64,-1.64,-1.6305,-1.6218,-1.6123,-1.5933,-1.5832,-1.5832,-1.5832,-1.5825,-1.5825,-1.5825,-1.5825,-1.5825,-1.5825,-1.5825,-1.5825,-1.5825,-1.5825,-1.5825,-1.5825,-1.554,-1.4777,-1.4106,-1.3709,-1.2931,-1.195,-1.0979,-2.455,-2.455,-2.455,-2.455,-2.455,-2.455,-2.455,-2.455,-2.455,-2.455,-2.455,-2.455,-2.455,-2.4464,-2.4292,-2.4196,-2.4196,-2.3927,-2.3841,-2.3841,-2.3841,-2.3841,-2.3841,-2.3841,-2.3754,-2.3841,-2.3841,-2.3841,-2.3754,-2.3841,-2.3754,-2.358,-2.3493,-2.3406,-2.3406,-2.3222,-2.3135,-2.3144,-2.3047,-2.2872,-2.2236,-2.1872,-2.097,-1.9422,-1.9147,-1.8334,-1.7512,-1.7333,-1.7333,-1.7333,-1.7333,-1.7333,-1.7333,-1.7333,-1.7333,-1.7333,-1.7326,-1.7333,-1.7333,-1.7333,-1.7333,-1.7333,-1.7333,-1.7333,-1.7333,-1.7333,-1.7333,-1.7333,-1.7333,-1.7333,-1.7333,-1.7333,-1.7333,-1.7333,-1.7333,-1.7333,-1.7333,-1.7333,-1.7333,-1.7333,-1.7333,-1.7333,-1.7333,-1.7239,-1.7153,-1.6972,-1.6784,-1.6588,-1.6588,-1.6588,-1.6501,-1.6407,-1.6218,-1.6123,-1.6021,-1.5927,-1.5825,-1.5825,-1.5825,-1.5825,-1.5825,-1.5825,-1.5825,-1.5825,-1.5825,-1.5825,-1.5825,-1.5825,-1.554,-1.5159,-1.4484,-1.3811,-1.2931,-1.2047,-1.137,-2.455,-2.455,-2.455,-2.455,-2.455,-2.455,-2.455,-2.455,-2.455,-2.455,-2.455,-2.455,-2.455,-2.4464,-2.4368,-2.4292,-2.4282,-2.41,-2.4013,-2.4013,-2.4024,-2.4013,-2.4013,-2.4013,-2.411,-2.4013,-2.4013,-2.4013,-2.41,-2.4013,-2.4013,-2.4013,-2.4013,-2.3841,-2.358,-2.3406,-2.3222,-2.3232,-2.3057,-2.2872,-2.2236,-2.2138,-2.1507,-1.9968,-1.9604,-1.8788,-1.7971,-1.7606,-1.7606,-1.7606,-1.7598,-1.7505,-1.7512,-1.7512,-1.7333,-1.7419,-1.7598,-1.7606,-1.7419,-1.7333,-1.7333,-1.7333,-1.7333,-1.7333,-1.7333,-1.7333,-1.7333,-1.7333,-1.7333,-1.7333,-1.7333,-1.7333,-1.7333,-1.7333,-1.7333,-1.7333,-1.7333,-1.7333,-1.7333,-1.7333,-1.7333,-1.7333,-1.7333,-1.7333,-1.7239,-1.7153,-1.7059,-1.6958,-1.6864,-1.6871,-1.6784,-1.6595,-1.6501,-1.6407,-1.6312,-1.6123,-1.6021,-1.5927,-1.5927,-1.5825,-1.5825,-1.5825,-1.5825,-1.5825,-1.5825,-1.5825,-1.5825,-1.5825,-1.5825,-1.573,-1.5153,-1.4484,-1.3806,-1.3022,-1.2436,-2.455,-2.455,-2.455,-2.455,-2.455,-2.455,-2.455,-2.455,-2.455,-2.455,-2.455,-2.455,-2.455,-2.4454,-2.4454,-2.4464,-2.4464,-2.4454,-2.4368,-2.4368,-2.4368,-2.4454,-2.4454,-2.4368,-2.4368,-2.4464,-2.4368,-2.4368,-2.4454,-2.4368,-2.4368,-2.4378,-2.4368,-2.4196,-2.3851,-2.359,-2.3503,-2.3503,-2.3232,-2.3135,-2.3047,-2.295,-2.2315,-2.1409,-2.0593,-1.9786,-1.8972,-1.8234,-1.8241,-1.8603,-1.8149,-1.8149,-1.8603,-1.8064,-1.7785,-1.7699,-1.8427,-1.8334,-1.7505,-1.7419,-1.7512,-1.7333,-1.7333,-1.7333,-1.7333,-1.7333,-1.7333,-1.7333,-1.7333,-1.7333,-1.7333,-1.7333,-1.7333,-1.7333,-1.7333,-1.7333,-1.7333,-1.7333,-1.7333,-1.7333,-1.7333,-1.7333,-1.7333,-1.7333,-1.7333,-1.7239,-1.7333,-1.7239,-1.7138,-1.7145,-1.6972,-1.6878,-1.6784,-1.669,-1.6595,-1.6312,-1.6218,-1.6123,-1.6028,-1.5927,-1.5825,-1.5825,-1.5825,-1.5825,-1.5825,-1.5825,-1.5825,-1.5825,-1.5825,-1.5825,-1.5825,-1.5343,-1.4675,-1.3998,-1.3318,-2.455,-2.455,-2.455,-2.455,-2.455,-2.455,-2.455,-2.455,-2.455,-2.455,-2.455,-2.455,-2.455,-2.455,-2.455,-2.455,-2.455,-2.455,-2.455,-2.455,-2.455,-2.4464,-2.455,-2.455,-2.455,-2.455,-2.455,-2.455,-2.4454,-2.455,-2.455,-2.455,-2.4464,-2.4368,-2.411,-2.3851,-2.3677,-2.3667,-2.3667,-2.358,-2.358,-2.3493,-2.3135,-2.2227,-2.1587,-2.0863,-2.0059,-1.9322,-1.9322,-1.9687,-1.9147,-1.933,-1.9604,-1.9147,-1.9147,-1.9147,-1.9695,-1.9604,-1.9231,-1.9147,-1.8511,-1.7878,-1.7512,-1.7512,-1.7326,-1.7333,-1.7333,-1.7333,-1.7333,-1.7333,-1.7333,-1.7333,-1.7333,-1.7333,-1.7333,-1.7333,-1.7333,-1.7333,-1.7333,-1.7333,-1.7333,-1.7333,-1.7326,-1.7333,-1.7333,-1.7333,-1.7333,-1.7333,-1.7239,-1.7239,-1.7153,-1.7153,-1.7059,-1.6972,-1.6784,-1.6595,-1.6414,-1.6319,-1.6218,-1.6021,-1.5927,-1.5832,-1.5825,-1.5825,-1.5825,-1.5825,-1.5825,-1.5825,-1.5825,-1.5825,-1.5825,-1.5825,-1.5343,-1.4675,-1.41,-2.455,-2.455,-2.455,-2.455,-2.455,-2.455,-2.455,-2.455,-2.455,-2.455,-2.455,-2.455,-2.455,-2.455,-2.455,-2.455,-2.455,-2.455,-2.455,-2.455,-2.455,-2.455,-2.455,-2.455,-2.455,-2.455,-2.455,-2.455,-2.455,-2.455,-2.455,-2.455,-2.455,-2.4454,-2.4282,-2.411,-2.3937,-2.3937,-2.3841,-2.3754,-2.3754,-2.3667,-2.3484,-2.294,-2.2394,-2.1765,-2.1221,-2.0773,-2.0503,-2.0593,-2.0503,-2.0512,-2.0512,-2.0413,-2.0322,-2.0232,-2.0232,-2.0331,-2.0512,-2.0141,-1.9422,-1.8688,-1.8326,-1.8149,-1.7963,-1.7971,-1.7878,-1.7792,-1.7606,-1.7606,-1.7785,-1.7692,-1.7512,-1.7512,-1.7512,-1.7512,-1.7512,-1.7512,-1.7692,-1.7699,-1.7692,-1.7598,-1.7419,-1.7326,-1.7333,-1.7333,-1.7333,-1.7333,-1.7333,-1.7333,-1.7333,-1.7239,-1.7239,-1.7153,-1.6972,-1.6878,-1.669,-1.6508,-1.6414,-1.6218,-1.6123,-1.6028,-1.5927,-1.5832,-1.5825,-1.5825,-1.5825,-1.5825,-1.5825,-1.5825,-1.5825,-1.5825,-1.5825,-1.535,-1.4682,-2.455,-2.455,-2.455,-2.455,-2.455,-2.455,-2.455,-2.455,-2.455,-2.455,-2.455,-2.455,-2.455,-2.455,-2.455,-2.455,-2.455,-2.455,-2.455,-2.455,-2.455,-2.455,-2.455,-2.455,-2.455,-2.455,-2.455,-2.455,-2.455,-2.455,-2.455,-2.455,-2.455,-2.4464,-2.4368,-2.4282,-2.4206,-2.411,-2.4013,-2.4013,-2.4013,-2.3927,-2.3841,-2.3474,-2.3028,-2.2668,-2.2217,-2.1676,-2.1578,-2.1489,-2.1221,-2.123,-2.1141,-2.0863,-2.0503,-2.0322,-2.0503,-2.1051,-2.1418,-2.0962,-2.0692,-2.0322,-2.0322,-1.9778,-1.9147,-1.8788,-1.8788,-1.8603,-1.8427,-1.8511,-1.8603,-1.8241,-1.7777,-1.7777,-1.7785,-1.7785,-1.7878,-1.8064,-1.8241,-1.8334,-1.8427,-1.8334,-1.7785,-1.7512,-1.7512,-1.7333,-1.7333,-1.7333,-1.7333,-1.7333,-1.7333,-1.7333,-1.7239,-1.7333,-1.7145,-1.7059,-1.6972,-1.6791,-1.6697,-1.6501,-1.6319,-1.613,-1.6035,-1.5933,-1.5832,-1.5825,-1.5825,-1.5825,-1.5825,-1.5825,-1.5825,-1.5825,-1.5825,-1.5825,-1.535,-2.455,-2.455,-2.455,-2.455,-2.455,-2.455,-2.455,-2.455,-2.455,-2.455,-2.455,-2.455,-2.455,-2.455,-2.455,-2.455,-2.455,-2.455,-2.455,-2.455,-2.455,-2.455,-2.455,-2.455,-2.455,-2.455,-2.455,-2.455,-2.455,-2.455,-2.455,-2.455,-2.455,-2.455,-2.4464,-2.4454,-2.4454,-2.4368,-2.4272,-2.4282,-2.4282,-2.4196,-2.4282,-2.4013,-2.3841,-2.356,-2.3299,-2.3028,-2.2931,-2.2931,-2.294,-2.295,-2.2775,-2.2687,-2.2511,-2.2315,-2.2325,-2.2422,-2.2599,-2.2422,-2.2148,-2.205,-2.205,-2.123,-2.0421,-1.9877,-1.9869,-1.9604,-1.933,-1.9422,-1.9513,-1.9239,-1.8872,-1.8872,-1.8872,-1.8872,-1.8964,-1.9239,-1.933,-1.9422,-1.9513,-1.888,-1.8326,-1.7971,-1.7785,-1.7512,-1.7333,-1.7426,-1.7333,-1.7333,-1.7333,-1.7333,-1.7333,-1.7333,-1.7333,-1.7239,-1.716,-1.6972,-1.6878,-1.6784,-1.6595,-1.6414,-1.6224,-1.613,-1.5927,-1.5832,-1.5825,-1.5825,-1.5825,-1.5825,-1.5825,-1.5825,-1.5825,-1.5825,-1.5825,-2.502,-2.5031,-2.5009,-2.5189,-2.5516,-2.5516,-2.5516,-2.5443,-2.4775,-2.455,-2.455,-2.455,-2.455,-2.455,-2.455,-2.455,-2.455,-2.455,-2.455,-2.455,-2.455,-2.455,-2.455,-2.455,-2.455,-2.455,-2.455,-2.455,-2.455,-2.455,-2.455,-2.455,-2.455,-2.455,-2.4464,-2.4464,-2.4464,-2.4464,-2.4464,-2.455,-2.455,-2.455,-2.455,-2.4464,-2.4368,-2.4282,-2.4292,-2.4013,-2.3937,-2.3927,-2.3937,-2.3754,-2.358,-2.3503,-2.3416,-2.3135,-2.296,-2.296,-2.296,-2.3047,-2.3047,-2.3144,-2.3057,-2.2501,-2.1784,-2.115,-2.097,-2.0692,-2.0421,-2.024,-2.0421,-2.0413,-2.0322,-2.0141,-2.0141,-2.0141,-2.0322,-2.0593,-2.0593,-2.0593,-2.0232,-1.9596,-1.9147,-1.8603,-1.8419,-1.8603,-1.8427,-1.8064,-1.7878,-1.7512,-1.7419,-1.7333,-1.7333,-1.7333,-1.7333,-1.7333,-1.7246,-1.7153,-1.7153,-1.6965,-1.6784,-1.6602,-1.6508,-1.6319,-1.6028,-1.5927,-1.5832,-1.5825,-1.5825,-1.5825,-1.5825,-1.5825,-1.5825,-1.5825,-1.5825,-2.5902,-2.5913,-2.5902,-2.6318,-2.7058,-2.6987,-2.6987,-2.6894,-2.5432,-2.47,-2.4871,-2.4786,-2.4956,-2.5115,-2.4946,-2.4775,-2.47,-2.4615,-2.455,-2.454,-2.455,-2.455,-2.455,-2.455,-2.455,-2.455,-2.455,-2.455,-2.455,-2.455,-2.455,-2.455,-2.455,-2.455,-2.455,-2.455,-2.455,-2.455,-2.455,-2.455,-2.455,-2.455,-2.455,-2.455,-2.4464,-2.4464,-2.4454,-2.4378,-2.4206,-2.412,-2.4024,-2.3927,-2.3754,-2.3677,-2.359,-2.3503,-2.3319,-2.3232,-2.3232,-2.3222,-2.3135,-2.3135,-2.3047,-2.296,-2.2422,-2.2059,-2.1872,-2.1695,-2.1507,-2.1418,-2.1507,-2.1409,-2.123,-2.123,-2.1239,-2.123,-2.132,-2.1507,-2.1686,-2.1596,-2.1051,-2.0503,-2.0232,-1.9786,-1.9239,-1.9596,-1.9513,-1.8972,-1.8611,-1.8149,-1.7692,-1.7512,-1.7326,-1.7326,-1.7333,-1.7333,-1.7333,-1.7239,-1.7239,-1.7246,-1.7059,-1.6878,-1.6791,-1.6508,-1.6218,-1.6028,-1.5927,-1.5927,-1.592,-1.5825,-1.5825,-1.5825,-1.5825,-1.5825,-1.5825,-2.6812,-2.6812,-2.6823,-2.6894,-2.7058,-2.7139,-2.7139,-2.7069,-2.6659,-2.6494,-2.6494,-2.6412,-2.6412,-2.6246,-2.5673,-2.5505,-2.5421,-2.5105,-2.4625,-2.4711,-2.47,-2.4786,-2.454,-2.47,-2.454,-2.455,-2.455,-2.455,-2.455,-2.455,-2.455,-2.455,-2.455,-2.455,-2.455,-2.455,-2.455,-2.455,-2.455,-2.455,-2.455,-2.455,-2.455,-2.455,-2.455,-2.455,-2.4464,-2.4464,-2.4464,-2.4378,-2.4368,-2.4282,-2.411,-2.3841,-2.3754,-2.3754,-2.3667,-2.3493,-2.3406,-2.3319,-2.3319,-2.3144,-2.3144,-2.3144,-2.296,-2.2872,-2.2696,-2.2599,-2.2599,-2.2589,-2.2501,-2.2325,-2.2227,-2.2236,-2.2236,-2.2227,-2.2227,-2.2413,-2.2687,-2.2325,-2.1774,-2.1507,-2.123,-2.0872,-2.0322,-2.0141,-2.0051,-1.9778,-1.9513,-1.9147,-1.8334,-1.7963,-1.7419,-1.7326,-1.7326,-1.7333,-1.7333,-1.7333,-1.7333,-1.7239,-1.7246,-1.7066,-1.6878,-1.6595,-1.6312,-1.6218,-1.6123,-1.6123,-1.6021,-1.5927,-1.5832,-1.5927,-1.5825,-1.5825,-1.5825,-2.7718,-2.7718,-2.7718,-2.7971,-2.8223,-2.8303,-2.8303,-2.8303,-2.8303,-2.8303,-2.8131,-2.7557,-2.7139,-2.7151,-2.6577,-2.64,-2.6318,-2.5924,-2.5852,-2.5768,-2.5432,-2.5432,-2.5263,-2.5009,-2.4786,-2.4625,-2.454,-2.455,-2.455,-2.455,-2.455,-2.455,-2.455,-2.455,-2.455,-2.455,-2.455,-2.455,-2.455,-2.455,-2.455,-2.455,-2.455,-2.455,-2.455,-2.455,-2.455,-2.455,-2.455,-2.455,-2.4454,-2.4454,-2.4282,-2.411,-2.4024,-2.3927,-2.3841,-2.3754,-2.3667,-2.359,-2.3503,-2.3329,-2.3144,-2.3144,-2.3144,-2.296,-2.296,-2.2872,-2.2872,-2.2872,-2.2872,-2.2775,-2.2775,-2.2775,-2.2775,-2.2775,-2.2775,-2.2862,-2.296,-2.2775,-2.2501,-2.2413,-2.2227,-2.2227,-2.1774,-2.1596,-2.1409,-2.0872,-2.0602,-2.015,-1.9239,-1.8603,-1.8141,-1.7505,-1.7333,-1.7333,-1.7333,-1.7333,-1.7333,-1.7239,-1.7239,-1.7153,-1.7059,-1.6784,-1.6595,-1.6501,-1.6407,-1.6312,-1.6218,-1.6123,-1.6028,-1.5933,-1.5927,-1.5825,-1.5825,-2.87,-2.8621,-2.8621,-2.904,-2.9714,-2.9779,-2.9702,-2.9702,-2.9702,-2.9702,-2.9456,-2.8131,-2.7557,-2.7476,-2.7313,-2.7313,-2.7151,-2.6741,-2.6905,-2.6905,-2.6894,-2.64,-2.6069,-2.5902,-2.5505,-2.4946,-2.4615,-2.454,-2.455,-2.455,-2.455,-2.455,-2.455,-2.455,-2.455,-2.455,-2.455,-2.455,-2.455,-2.455,-2.455,-2.455,-2.455,-2.455,-2.455,-2.455,-2.455,-2.455,-2.455,-2.455,-2.455,-2.4464,-2.4454,-2.4282,-2.4292,-2.4196,-2.41,-2.3927,-2.3851,-2.3764,-2.3677,-2.3503,-2.3319,-2.3232,-2.3232,-2.3144,-2.3144,-2.3144,-2.3144,-2.3135,-2.3135,-2.3144,-2.3144,-2.3144,-2.3144,-2.3144,-2.3144,-2.3144,-2.3144,-2.3144,-2.3047,-2.3047,-2.3047,-2.3047,-2.296,-2.2872,-2.2599,-2.2236,-2.1686,-2.1051,-2.0322,-1.9695,-1.9147,-1.8511,-1.7785,-1.7326,-1.7419,-1.7333,-1.7333,-1.7333,-1.7333,-1.7239,-1.7153,-1.7073,-1.6885,-1.6784,-1.669,-1.6595,-1.6407,-1.6319,-1.613,-1.6028,-1.5927,-1.5825,-1.5825,-2.9689,-2.9546,-2.9546,-2.9624,-2.9792,-2.9779,-2.9779,-2.9779,-2.9779,-2.9779,-2.9702,-2.9624,-2.93,-2.9209,-2.8462,-2.8211,-2.8131,-2.7718,-2.7221,-2.7058,-2.7476,-2.7151,-2.6812,-2.6648,-2.6235,-2.5663,-2.502,-2.4529,-2.47,-2.4625,-2.455,-2.455,-2.455,-2.455,-2.455,-2.455,-2.455,-2.455,-2.455,-2.455,-2.455,-2.455,-2.455,-2.455,-2.455,-2.455,-2.455,-2.455,-2.455,-2.455,-2.455,-2.455,-2.4454,-2.4454,-2.4378,-2.4378,-2.4282,-2.4196,-2.411,-2.4034,-2.3947,-2.3764,-2.358,-2.358,-2.358,-2.3493,-2.3406,-2.3319,-2.3319,-2.3135,-2.3135,-2.3135,-2.3144,-2.3144,-2.3144,-2.3144,-2.3144,-2.3144,-2.3144,-2.3144,-2.3047,-2.3047,-2.3047,-2.3047,-2.3047,-2.296,-2.296,-2.2599,-2.2501,-2.1961,-2.1409,-2.0872,-2.024,-1.9422,-1.8696,-1.7692,-1.7505,-1.7419,-1.7333,-1.7333,-1.7333,-1.7333,-1.7246,-1.716,-1.7066,-1.7052,-1.6965,-1.6878,-1.6595,-1.6407,-1.6319,-1.6123,-1.5927,-1.5825,-1.5832]},{"header":{"parameterUnit":"m.s-1","parameterCategory":1,"la1":31.0,"la2":29.5877,"lo1":-88.7671,"lo2":-86.6584,"dy":0.0162,"dx":0.0185,"nx":115,"ny":88,"refTime":"2023-03-02T18:00:00:Z","depth":0,"parameterNumber":3,"parameterNumberName":"V-component_of_WINDS"},"data":[0.0,0.0,0.0,0.0,0.0,0.0,0.0,0.0,0.0,0.0,0.0,0.0,0.0,0.0,0.0,0.0,0.0,0.0,0.0,0.0,0.0,0.0,0.0,0.0,0.0,0.0,0.0,0.0,0.0,0.0,0.0,0.0,0.0,0.0,0.0,0.0,0.0,0.0,0.0,0.0,0.0,0.0,0.0,0.0,0.0,0.0,0.0,0.0,0.0,0.0,0.0,0.0,0.0,0.0,0.0,0.0,0.0,0.0,0.0,0.0,0.0,0.0,0.0,0.0,0.0,0.0,0.0,0.0,0.0,0.0,0.0,0.0,0.0,0.0,0.0,0.0,0.0,0.0,0.0,0.0,0.0,0.0,0.0,0.0,0.0,0.0,0.0,0.0,0.0,0.0,0.0,0.0,0.0,0.0,0.0,0.0,0.0,0.0,0.0,0.0,0.0,0.0,0.0,0.0,0.0,0.0,0.0,0.0,0.0,0.0,0.0,0.0,0.0,0.0,0.0,0.0,0.0,0.0,0.0,0.0,0.0,0.0,0.0,0.0,0.0,0.0,0.0,0.0,0.0,0.0,0.0,0.0,0.0,0.0,0.0,0.0,0.0,0.0,0.0,0.0,0.0,0.0,0.0,0.0,0.0,0.0,0.0,0.0,0.0,0.0,0.0,0.0,0.0,0.0,0.0,0.0,0.0,0.0,0.0,0.0,0.0,0.0,0.0,0.0,0.0,0.0,0.0,0.0,0.0,0.0,0.0,0.0,0.0,0.0,0.0,0.0,0.0,0.0,0.0,0.0,0.0,0.0,0.0,0.0,0.0,0.0,0.0,0.0,0.0,0.0,0.0,0.0,0.0,0.0,0.0,0.0,0.0,0.0,0.0,0.0,0.0,0.0,0.0,0.0,0.0,0.0,0.0,0.0,0.0,0.0,0.0,0.0,0.0,0.0,0.0,0.0,0.0,0.0,0.0,0.0,0.0,0.0,0.0,0.0,0.0,0.0,0.0,0.0,0.0,0.0,0.0,0.0,0.0,0.0,0.0,0.0,0.0,0.0,0.0,0.0,0.0,0.0,0.0,0.0,0.0,0.0,0.0,0.0,0.0,0.0,0.0,0.0,0.0,0.0,0.0,0.0,0.0,0.0,0.0,0.0,0.0,0.0,0.0,0.0,0.0,0.0,0.0,0.0,0.0,0.0,0.0,0.0,0.0,0.0,0.0,0.0,0.0,0.0,0.0,0.0,0.0,0.0,0.0,0.0,0.0,0.0,0.0,0.0,0.0,0.0,0.0,0.0,0.0,0.0,0.0,0.0,0.0,0.0,0.0,0.0,0.0,0.0,0.0,0.0,0.0,0.0,0.0,0.0,0.0,0.0,0.0,0.0,0.0,0.0,0.0,0.0,0.0,0.0,0.0,0.0,0.0,0.0,0.0,0.0,0.0,0.0,0.0,0.0,0.0,0.0,0.0,0.0,0.0,0.0,0.0,0.0,0.0,0.0,0.0,0.0,0.0,0.0,0.0,0.0,0.0,0.0,0.0,0.0,0.0,0.0,0.0,0.0,0.0,0.0,0.0,0.0,0.0,0.0,0.0,0.0,0.0,0.0,0.0,0.0,0.0,0.0,0.0,0.0,0.0,0.0,0.0,0.0,0.0,0.0,0.0,0.0,0.0,0.0,0.0,0.0,0.0,0.0,0.0,0.0,0.0,0.0,0.0,0.0,0.0,0.0,0.0,0.0,0.0,0.0,0.0,0.0,0.0,0.0,0.0,0.0,0.0,0.0,0.0,0.0,0.0,0.0,0.0,0.0,0.0,0.0,0.0,0.0,0.0,0.0,0.0,0.0,0.0,0.0,0.0,0.0,0.0,0.0,0.0,0.0,0.0,0.0,0.0,0.0,0.0,0.0,0.0,0.0,0.0,0.0,0.0,0.0,0.0,0.0,0.0,0.0,0.0,0.0,0.0,0.0,0.0,0.0,0.0,0.0,0.0,0.0,0.0,0.0,0.0,0.0,0.0,0.0,0.0,0.0,0.0,0.0,0.0,0.0,0.0,0.0,0.0,0.0,0.0,0.0,0.0,0.0,0.0,0.0,0.0,0.0,0.0,0.0,0.0,0.0,0.0,0.0,0.0,0.0,0.0,0.0,0.0,0.0,0.0,0.0,0.0,0.0,0.0,0.0,0.0,0.0,0.0,0.0,0.0,0.0,0.0,0.0,0.0,0.0,0.0,0.0,0.0,0.0,0.0,0.0,0.0,0.0,0.0,0.0,0.0,0.0,0.0,0.0,0.0,0.0,0.0,0.0,0.0,0.0,0.0,0.0,0.0,0.0,0.0,0.0,0.0,0.0,0.0,0.0,0.0,0.0,0.0,0.0,0.0,0.0,0.0,0.0,0.0,0.0,0.0,0.0,0.0,0.0,0.0,0.0,0.0,0.0,0.0,0.0,0.0,0.0,0.0,0.0,0.0,0.0,0.0,0.0,0.0,0.0,0.0,0.0,0.0,0.0,0.0,0.0,0.0,0.0,0.0,0.0,0.0,0.0,0.0,0.0,0.0,0.0,0.0,0.0,0.0,0.0,0.0,0.0,0.0,0.0,0.0,0.0,0.0,0.0,0.0,0.0,0.0,0.0,0.0,0.0,0.0,0.0,0.0,0.0,0.0,0.0,0.0,0.0,0.0,0.0,0.0,0.0,0.0,0.0,0.0,0.0,0.0,0.0,0.0,0.0,0.0,0.0,0.0,0.0,0.0,0.0,0.0,0.0,0.0,0.0,0.0,0.0,0.0,0.0,0.0,0.0,0.0,0.0,0.0,0.0,0.0,0.0,0.0,0.0,0.0,0.0,0.0,0.0,0.0,0.0,0.0,0.0,0.0,0.0,0.0,0.0,0.0,0.0,0.0,0.0,0.0,0.0,0.0,0.0,0.0,0.0,0.0,0.0,0.0,0.0,0.0,0.0,0.0,0.0,0.0,0.0,0.0,0.0,0.0,0.0,0.0,0.0,0.0,0.0,0.0,0.0,0.0,0.0,0.0,0.0,0.0,0.0,0.0,0.0,0.0,0.0,0.0,0.0,0.0,0.0,0.0,0.0,0.0,0.0,0.0,0.0,0.0,0.0,0.0,0.0,0.0,0.0,0.0,0.0,0.0,0.0,0.0,0.0,0.0,0.0,0.0,0.0,0.0,0.0,0.0,0.0,0.0,0.0,0.0,0.0,0.0,0.0,0.0,0.0,0.0,0.0,0.0,0.0,0.0,0.0,0.0,0.0,0.0,0.0,0.0,0.0,0.0,0.0,0.0,0.0,0.0,0.0,0.0,0.0,0.0,0.0,0.0,0.0,0.0,0.0,0.0,0.0,0.0,0.0,0.0,0.0,0.0,0.0,0.0,0.0,0.0,0.0,0.0,0.0,0.0,0.0,0.0,0.0,0.0,0.0,0.0,0.0,0.0,0.0,0.0,0.0,0.0,0.0,0.0,0.0,0.0,0.0,0.0,0.0,0.0,0.0,0.0,0.0,0.0,0.0,0.0,0.0,0.0,0.0,0.0,0.0,0.0,0.0,0.0,0.0,0.0,0.0,0.0,0.0,0.0,0.0,0.0,0.0,0.0,0.0,0.0,0.0,0.0,0.0,0.0,0.0,0.0,0.0,0.0,0.0,0.0,0.0,0.0,0.0,0.0,0.0,0.0,0.0,0.0,0.0,0.0,0.0,0.0,0.0,0.0,0.0,0.0,0.0,0.0,0.0,0.0,0.0,0.0,0.0,0.0,0.0,0.0,0.0,0.0,0.0,0.0,0.0,0.0,0.0,0.0,0.0,0.0,0.0,0.0,0.0,0.0,0.0,0.0,0.0,0.0,0.0,0.0,0.0,0.0,0.0,0.0,0.0,0.0,0.0,0.0,0.0,0.0,0.0,0.0,0.0,0.0,0.0,0.0,0.0,0.0,0.0,0.0,0.0,0.0,0.0,0.0,0.0,0.0,0.0,0.0,0.0,0.0,0.0,0.0,0.0,0.0,0.0,0.0,0.0,0.0,0.0,0.0,0.0,0.0,0.0,0.0,0.0,0.0,0.0,0.0,0.0,0.0,0.0,0.0,0.0,0.0,0.0,0.0,0.0,0.0,0.0,0.0,0.0,0.0,0.0,0.0,0.0,0.0,0.0,0.0,0.0,0.0,0.0,0.0,0.0,0.0,0.0,0.0,0.0,0.0,0.0,0.0,0.0,0.0,0.0,0.0,0.0,0.0,0.0,0.0,0.0,0.0,0.0,0.0,0.0,-3.1896,0.0,0.0,0.0,0.0,0.0,0.0,0.0,0.0,0.0,0.0,0.0,0.0,0.0,0.0,0.0,0.0,0.0,0.0,0.0,0.0,0.0,0.0,0.0,0.0,0.0,0.0,0.0,0.0,0.0,0.0,0.0,0.0,0.0,0.0,0.0,0.0,0.0,0.0,0.0,0.0,0.0,0.0,0.0,0.0,0.0,0.0,0.0,0.0,0.0,0.0,0.0,0.0,0.0,0.0,0.0,0.0,0.0,0.0,0.0,0.0,0.0,0.0,0.0,0.0,0.0,0.0,0.0,0.0,0.0,0.0,0.0,0.0,0.0,0.0,0.0,0.0,0.0,0.0,0.0,0.0,0.0,0.0,0.0,0.0,0.0,0.0,0.0,0.0,0.0,0.0,0.0,0.0,0.0,0.0,0.0,0.0,0.0,0.0,0.0,0.0,0.0,0.0,0.0,0.0,0.0,0.0,0.0,0.0,0.0,0.0,-3.247,-3.2504,-3.2437,-3.2248,-3.1896,0.0,0.0,0.0,0.0,0.0,0.0,0.0,0.0,0.0,0.0,0.0,0.0,0.0,0.0,0.0,0.0,0.0,0.0,0.0,0.0,0.0,0.0,0.0,0.0,0.0,0.0,0.0,0.0,0.0,0.0,0.0,0.0,0.0,0.0,0.0,0.0,0.0,0.0,0.0,0.0,0.0,0.0,0.0,0.0,0.0,0.0,0.0,0.0,0.0,0.0,0.0,0.0,0.0,0.0,0.0,0.0,0.0,0.0,0.0,0.0,0.0,0.0,0.0,0.0,0.0,0.0,0.0,0.0,0.0,0.0,0.0,0.0,0.0,0.0,0.0,0.0,0.0,0.0,0.0,0.0,0.0,0.0,0.0,0.0,0.0,0.0,0.0,0.0,0.0,0.0,0.0,0.0,0.0,0.0,0.0,0.0,0.0,0.0,0.0,0.0,0.0,0.0,0.0,0.0,0.0,0.0,0.0,0.0,0.0,0.0,0.0,0.0,-3.2179,-3.2003,-3.2003,0.0,0.0,0.0,0.0,0.0,0.0,0.0,0.0,0.0,0.0,0.0,0.0,0.0,0.0,0.0,0.0,0.0,0.0,0.0,0.0,0.0,0.0,0.0,0.0,0.0,0.0,0.0,0.0,0.0,0.0,0.0,0.0,0.0,0.0,0.0,0.0,0.0,0.0,0.0,0.0,0.0,0.0,0.0,0.0,0.0,0.0,0.0,0.0,0.0,0.0,0.0,0.0,0.0,0.0,0.0,0.0,0.0,0.0,0.0,0.0,0.0,0.0,0.0,0.0,0.0,0.0,0.0,0.0,0.0,0.0,0.0,0.0,0.0,0.0,0.0,0.0,0.0,0.0,0.0,0.0,0.0,0.0,0.0,0.0,0.0,0.0,0.0,0.0,0.0,0.0,0.0,0.0,0.0,0.0,0.0,0.0,0.0,0.0,0.0,0.0,0.0,0.0,0.0,0.0,0.0,0.0,0.0,0.0,0.0,0.0,-3.2468,-3.2127,-3.2056,0.0,-3.2003,0.0,0.0,0.0,0.0,0.0,0.0,0.0,0.0,0.0,0.0,0.0,0.0,0.0,0.0,0.0,0.0,0.0,0.0,0.0,0.0,0.0,0.0,0.0,0.0,0.0,0.0,0.0,0.0,0.0,0.0,0.0,0.0,0.0,0.0,0.0,0.0,0.0,0.0,0.0,0.0,0.0,0.0,0.0,0.0,0.0,0.0,0.0,0.0,0.0,0.0,0.0,0.0,0.0,0.0,0.0,0.0,0.0,0.0,0.0,0.0,0.0,0.0,0.0,0.0,0.0,0.0,0.0,0.0,0.0,0.0,0.0,0.0,0.0,0.0,0.0,0.0,0.0,0.0,0.0,0.0,0.0,0.0,0.0,0.0,0.0,0.0,0.0,0.0,0.0,0.0,0.0,0.0,0.0,0.0,0.0,0.0,0.0,0.0,0.0,0.0,0.0,0.0,0.0,0.0,0.0,0.0,0.0,0.0,0.0,0.0,-3.2486,-3.2517,-3.2299,-3.2179,0.0,0.0,0.0,0.0,0.0,0.0,0.0,0.0,0.0,0.0,0.0,0.0,0.0,0.0,0.0,0.0,0.0,0.0,0.0,0.0,0.0,0.0,0.0,0.0,0.0,0.0,0.0,0.0,0.0,0.0,0.0,0.0,0.0,0.0,0.0,0.0,0.0,0.0,0.0,0.0,0.0,0.0,0.0,0.0,0.0,0.0,0.0,0.0,0.0,0.0,0.0,0.0,0.0,0.0,0.0,0.0,0.0,0.0,0.0,0.0,0.0,0.0,0.0,0.0,0.0,0.0,0.0,0.0,0.0,0.0,0.0,0.0,0.0,0.0,0.0,0.0,0.0,0.0,0.0,0.0,0.0,0.0,0.0,0.0,0.0,0.0,0.0,0.0,0.0,0.0,0.0,0.0,0.0,0.0,0.0,0.0,0.0,0.0,0.0,0.0,0.0,0.0,0.0,0.0,0.0,0.0,0.0,0.0,0.0,0.0,-3.2766,-3.2519,-3.2634,-3.2435,-3.2299,-3.2299,0.0,0.0,0.0,0.0,0.0,0.0,0.0,0.0,0.0,0.0,0.0,0.0,0.0,0.0,0.0,0.0,0.0,0.0,0.0,0.0,0.0,0.0,0.0,0.0,0.0,0.0,0.0,0.0,0.0,0.0,0.0,0.0,0.0,0.0,0.0,0.0,0.0,0.0,0.0,0.0,0.0,0.0,0.0,0.0,0.0,0.0,0.0,0.0,0.0,0.0,0.0,0.0,0.0,0.0,0.0,0.0,0.0,0.0,0.0,0.0,0.0,0.0,0.0,0.0,0.0,0.0,0.0,0.0,0.0,0.0,0.0,0.0,0.0,0.0,0.0,0.0,0.0,0.0,0.0,0.0,0.0,0.0,0.0,0.0,0.0,0.0,0.0,0.0,0.0,0.0,0.0,0.0,0.0,0.0,0.0,0.0,0.0,0.0,0.0,0.0,0.0,0.0,0.0,0.0,0.0,0.0,0.0,0.0,-3.3382,-3.3006,-3.2651,-3.2385,-3.2317,-3.2299,0.0,0.0,0.0,0.0,0.0,0.0,0.0,0.0,0.0,0.0,0.0,0.0,0.0,0.0,0.0,0.0,0.0,0.0,0.0,0.0,0.0,0.0,0.0,0.0,0.0,0.0,0.0,0.0,0.0,0.0,0.0,0.0,0.0,0.0,0.0,0.0,0.0,0.0,0.0,0.0,0.0,0.0,0.0,0.0,0.0,0.0,0.0,0.0,0.0,0.0,0.0,0.0,0.0,0.0,0.0,0.0,0.0,0.0,0.0,0.0,0.0,0.0,0.0,0.0,0.0,0.0,0.0,0.0,0.0,0.0,0.0,0.0,0.0,0.0,0.0,0.0,0.0,0.0,0.0,0.0,0.0,0.0,0.0,0.0,0.0,0.0,0.0,0.0,0.0,0.0,0.0,0.0,0.0,0.0,0.0,0.0,0.0,0.0,0.0,0.0,0.0,0.0,0.0,0.0,0.0,0.0,0.0,0.0,0.0,-3.3393,-3.3238,-3.3099,-3.3006,-3.3006,-3.3006,0.0,0.0,0.0,0.0,0.0,0.0,0.0,0.0,0.0,0.0,0.0,0.0,0.0,0.0,0.0,0.0,0.0,0.0,0.0,0.0,0.0,0.0,0.0,0.0,0.0,0.0,0.0,0.0,0.0,0.0,0.0,0.0,0.0,0.0,0.0,0.0,0.0,0.0,0.0,0.0,0.0,0.0,0.0,0.0,0.0,0.0,0.0,0.0,0.0,0.0,0.0,0.0,0.0,0.0,0.0,0.0,0.0,0.0,0.0,0.0,0.0,0.0,0.0,0.0,0.0,0.0,0.0,0.0,0.0,0.0,0.0,0.0,0.0,0.0,0.0,0.0,0.0,0.0,0.0,0.0,0.0,0.0,0.0,0.0,0.0,0.0,0.0,0.0,0.0,0.0,0.0,0.0,0.0,0.0,0.0,0.0,0.0,0.0,0.0,0.0,0.0,0.0,0.0,0.0,0.0,0.0,0.0,0.0,0.0,-3.3393,0.0,-3.3393,-3.3393,-3.3256,-3.3226,0.0,0.0,0.0,0.0,0.0,0.0,0.0,0.0,0.0,0.0,0.0,0.0,0.0,0.0,0.0,0.0,0.0,0.0,0.0,0.0,0.0,0.0,0.0,0.0,0.0,0.0,0.0,0.0,0.0,0.0,0.0,0.0,0.0,0.0,0.0,0.0,0.0,0.0,0.0,0.0,0.0,0.0,0.0,0.0,0.0,0.0,0.0,0.0,0.0,0.0,0.0,0.0,0.0,0.0,0.0,0.0,0.0,0.0,0.0,0.0,0.0,0.0,0.0,0.0,0.0,0.0,0.0,0.0,0.0,0.0,0.0,0.0,0.0,0.0,0.0,0.0,0.0,0.0,0.0,0.0,0.0,0.0,0.0,0.0,0.0,0.0,0.0,0.0,0.0,0.0,0.0,0.0,0.0,0.0,0.0,0.0,0.0,0.0,0.0,0.0,0.0,0.0,0.0,0.0,0.0,0.0,0.0,0.0,-3.3411,-3.3393,-3.3411,-3.3393,-3.3393,-3.3019,-3.2844,0.0,0.0,0.0,0.0,0.0,0.0,0.0,0.0,0.0,0.0,0.0,0.0,0.0,0.0,0.0,0.0,0.0,0.0,0.0,0.0,0.0,0.0,0.0,0.0,0.0,0.0,0.0,0.0,0.0,0.0,0.0,0.0,0.0,0.0,0.0,0.0,0.0,0.0,0.0,0.0,0.0,0.0,0.0,0.0,0.0,0.0,0.0,0.0,0.0,0.0,0.0,0.0,0.0,0.0,0.0,0.0,0.0,0.0,0.0,0.0,0.0,0.0,0.0,0.0,0.0,0.0,0.0,0.0,0.0,0.0,0.0,0.0,0.0,0.0,0.0,0.0,0.0,0.0,0.0,0.0,0.0,0.0,0.0,0.0,0.0,0.0,0.0,0.0,0.0,0.0,0.0,0.0,0.0,0.0,0.0,0.0,0.0,0.0,0.0,0.0,0.0,0.0,0.0,0.0,0.0,0.0,0.0,0.0,0.0,-3.3411,-3.3509,-3.3509,-3.3393,-3.3117,-3.2894,0.0,0.0,0.0,0.0,0.0,0.0,0.0,0.0,0.0,0.0,0.0,0.0,0.0,0.0,0.0,0.0,0.0,0.0,0.0,0.0,0.0,0.0,0.0,0.0,0.0,0.0,0.0,0.0,0.0,0.0,0.0,0.0,0.0,0.0,0.0,0.0,0.0,0.0,0.0,0.0,0.0,0.0,0.0,0.0,0.0,0.0,0.0,0.0,0.0,0.0,0.0,0.0,0.0,0.0,0.0,0.0,0.0,0.0,0.0,0.0,0.0,0.0,0.0,0.0,0.0,0.0,0.0,0.0,0.0,0.0,0.0,0.0,0.0,0.0,0.0,0.0,0.0,0.0,0.0,0.0,0.0,0.0,0.0,0.0,0.0,0.0,0.0,0.0,0.0,0.0,0.0,0.0,0.0,0.0,0.0,0.0,0.0,0.0,0.0,0.0,0.0,0.0,0.0,0.0,0.0,0.0,0.0,0.0,0.0,-3.4268,-3.3818,-3.352,-3.3441,-3.2975,-3.2734,-3.2634,0.0,0.0,0.0,0.0,0.0,0.0,0.0,0.0,0.0,0.0,0.0,0.0,0.0,0.0,0.0,0.0,0.0,0.0,0.0,0.0,0.0,0.0,0.0,0.0,0.0,0.0,0.0,0.0,0.0,0.0,0.0,0.0,0.0,0.0,0.0,0.0,0.0,0.0,0.0,0.0,0.0,0.0,0.0,0.0,0.0,0.0,0.0,0.0,0.0,0.0,0.0,0.0,0.0,0.0,0.0,0.0,0.0,0.0,0.0,0.0,0.0,0.0,0.0,0.0,0.0,0.0,0.0,0.0,0.0,0.0,0.0,0.0,0.0,0.0,0.0,0.0,0.0,0.0,0.0,0.0,0.0,0.0,0.0,0.0,0.0,0.0,0.0,0.0,0.0,0.0,0.0,0.0,0.0,0.0,0.0,0.0,0.0,0.0,0.0,0.0,0.0,0.0,0.0,0.0,0.0,0.0,0.0,0.0,-3.5874,-3.4395,-3.3619,-3.3553,-3.2838,-3.2404,0.0,0.0,0.0,0.0,0.0,0.0,0.0,0.0,0.0,0.0,0.0,0.0,0.0,0.0,0.0,0.0,0.0,0.0,0.0,0.0,0.0,0.0,0.0,0.0,0.0,0.0,0.0,0.0,0.0,0.0,0.0,0.0,0.0,0.0,0.0,0.0,0.0,0.0,0.0,0.0,0.0,0.0,0.0,0.0,0.0,0.0,0.0,0.0,0.0,0.0,0.0,0.0,0.0,0.0,0.0,0.0,0.0,0.0,0.0,0.0,0.0,0.0,0.0,0.0,0.0,0.0,0.0,0.0,0.0,0.0,0.0,0.0,0.0,0.0,0.0,0.0,0.0,0.0,0.0,0.0,0.0,0.0,0.0,0.0,0.0,0.0,0.0,0.0,0.0,0.0,0.0,0.0,0.0,0.0,0.0,0.0,0.0,0.0,0.0,0.0,0.0,0.0,0.0,0.0,0.0,0.0,0.0,0.0,0.0,-3.6635,-3.5755,-3.4969,-3.4347,-3.3849,-3.3351,0.0,0.0,0.0,0.0,0.0,0.0,0.0,0.0,0.0,0.0,0.0,0.0,0.0,0.0,0.0,0.0,0.0,0.0,0.0,0.0,0.0,0.0,0.0,0.0,0.0,0.0,0.0,0.0,0.0,0.0,0.0,0.0,0.0,0.0,0.0,0.0,0.0,0.0,0.0,0.0,0.0,0.0,0.0,0.0,0.0,0.0,0.0,0.0,0.0,0.0,0.0,0.0,0.0,0.0,0.0,0.0,0.0,0.0,0.0,0.0,0.0,0.0,0.0,0.0,0.0,0.0,0.0,0.0,0.0,0.0,0.0,0.0,0.0,0.0,0.0,0.0,0.0,0.0,0.0,0.0,0.0,0.0,0.0,0.0,0.0,0.0,0.0,0.0,0.0,0.0,0.0,0.0,0.0,0.0,0.0,0.0,0.0,0.0,0.0,0.0,0.0,0.0,0.0,0.0,0.0,0.0,0.0,0.0,-3.716,-3.7598,-3.7176,-3.6539,-3.5696,-3.4997,-3.4279,0.0,0.0,0.0,0.0,0.0,0.0,0.0,0.0,0.0,0.0,0.0,0.0,0.0,0.0,0.0,0.0,0.0,0.0,0.0,0.0,0.0,0.0,0.0,0.0,0.0,0.0,0.0,0.0,0.0,0.0,0.0,0.0,0.0,0.0,0.0,0.0,0.0,0.0,0.0,0.0,0.0,0.0,0.0,0.0,0.0,0.0,0.0,0.0,0.0,0.0,0.0,0.0,0.0,0.0,0.0,0.0,0.0,0.0,0.0,0.0,0.0,0.0,0.0,0.0,0.0,0.0,0.0,0.0,0.0,0.0,0.0,0.0,0.0,0.0,0.0,0.0,0.0,0.0,0.0,0.0,0.0,0.0,0.0,0.0,0.0,0.0,0.0,0.0,0.0,0.0,0.0,0.0,0.0,0.0,0.0,0.0,0.0,0.0,0.0,0.0,0.0,0.0,0.0,0.0,0.0,0.0,0.0,0.0,-3.7984,-3.8382,-3.8382,-3.8054,-3.7343,-3.6208,-3.5253,0.0,0.0,0.0,0.0,0.0,0.0,0.0,0.0,0.0,0.0,0.0,0.0,0.0,0.0,0.0,0.0,0.0,0.0,0.0,0.0,0.0,0.0,0.0,0.0,0.0,0.0,0.0,0.0,0.0,0.0,0.0,0.0,0.0,0.0,0.0,0.0,0.0,0.0,0.0,0.0,0.0,0.0,0.0,0.0,0.0,0.0,0.0,0.0,0.0,0.0,0.0,0.0,0.0,0.0,0.0,0.0,0.0,0.0,0.0,0.0,0.0,0.0,0.0,0.0,0.0,0.0,0.0,0.0,0.0,0.0,0.0,0.0,0.0,0.0,0.0,0.0,0.0,0.0,0.0,0.0,0.0,0.0,0.0,0.0,0.0,0.0,0.0,0.0,0.0,0.0,0.0,0.0,0.0,0.0,0.0,0.0,0.0,0.0,0.0,0.0,0.0,0.0,0.0,0.0,0.0,0.0,0.0,0.0,-3.8285,-3.8382,-3.8382,-3.8342,-3.8222,-3.733,-3.6435,0.0,0.0,0.0,0.0,0.0,0.0,0.0,0.0,0.0,0.0,0.0,0.0,0.0,0.0,0.0,0.0,0.0,0.0,0.0,0.0,0.0,0.0,0.0,0.0,0.0,0.0,0.0,0.0,0.0,0.0,0.0,0.0,0.0,0.0,0.0,0.0,0.0,0.0,0.0,0.0,0.0,0.0,0.0,0.0,0.0,0.0,0.0,0.0,-3.3753,0.0,0.0,0.0,0.0,0.0,0.0,0.0,0.0,0.0,0.0,0.0,0.0,0.0,0.0,0.0,0.0,0.0,0.0,0.0,0.0,0.0,0.0,0.0,0.0,0.0,0.0,0.0,0.0,0.0,0.0,0.0,0.0,0.0,0.0,0.0,0.0,0.0,0.0,0.0,0.0,0.0,0.0,0.0,0.0,0.0,0.0,0.0,0.0,0.0,0.0,0.0,0.0,0.0,0.0,0.0,0.0,0.0,0.0,0.0,-3.8478,-3.8546,-3.8546,-3.8546,-3.859,-3.8125,-3.746,0.0,0.0,0.0,0.0,0.0,0.0,0.0,0.0,0.0,0.0,0.0,0.0,0.0,0.0,0.0,0.0,0.0,0.0,0.0,0.0,0.0,0.0,0.0,0.0,0.0,0.0,0.0,0.0,0.0,0.0,0.0,0.0,0.0,0.0,0.0,0.0,0.0,0.0,0.0,0.0,0.0,0.0,0.0,0.0,0.0,0.0,0.0,0.0,0.0,0.0,0.0,0.0,0.0,0.0,0.0,0.0,0.0,0.0,0.0,0.0,0.0,0.0,0.0,0.0,0.0,0.0,0.0,0.0,0.0,0.0,0.0,0.0,0.0,0.0,0.0,0.0,0.0,0.0,0.0,0.0,0.0,0.0,0.0,0.0,0.0,0.0,0.0,0.0,0.0,0.0,0.0,0.0,0.0,0.0,0.0,0.0,0.0,0.0,0.0,0.0,0.0,0.0,0.0,0.0,0.0,0.0,0.0,-3.8528,-3.8609,-3.8707,-3.8707,-3.8707,-3.8707,-3.8707,-3.8315,-3.7447,0.0,0.0,0.0,0.0,0.0,0.0,0.0,0.0,0.0,0.0,0.0,0.0,0.0,0.0,0.0,0.0,0.0,0.0,0.0,0.0,0.0,0.0,0.0,0.0,0.0,0.0,0.0,0.0,0.0,0.0,0.0,0.0,0.0,0.0,0.0,0.0,0.0,0.0,-3.3863,-3.3936,0.0,0.0,0.0,0.0,0.0,0.0,0.0,0.0,-3.5697,0.0,0.0,0.0,0.0,0.0,0.0,0.0,0.0,0.0,0.0,0.0,0.0,0.0,0.0,0.0,0.0,0.0,0.0,0.0,0.0,0.0,0.0,0.0,0.0,0.0,0.0,0.0,0.0,0.0,0.0,0.0,0.0,0.0,0.0,0.0,0.0,0.0,0.0,0.0,0.0,0.0,0.0,0.0,0.0,0.0,0.0,0.0,0.0,0.0,0.0,0.0,0.0,0.0,0.0,0.0,0.0,-3.8627,-3.8658,-3.8658,-3.8707,-3.8707,-3.8707,-3.8707,-3.8707,-3.8554,-3.8308,0.0,0.0,0.0,0.0,0.0,0.0,0.0,0.0,0.0,0.0,0.0,0.0,0.0,0.0,0.0,0.0,0.0,0.0,0.0,0.0,0.0,0.0,0.0,0.0,0.0,0.0,0.0,0.0,0.0,0.0,0.0,0.0,0.0,0.0,0.0,0.0,0.0,0.0,0.0,-3.4807,-3.5128,0.0,0.0,0.0,0.0,0.0,0.0,0.0,0.0,-3.6028,0.0,0.0,0.0,0.0,0.0,0.0,0.0,0.0,0.0,0.0,0.0,0.0,0.0,0.0,0.0,0.0,0.0,0.0,0.0,0.0,0.0,0.0,0.0,0.0,0.0,0.0,0.0,0.0,0.0,0.0,0.0,0.0,0.0,0.0,0.0,0.0,0.0,0.0,0.0,0.0,0.0,0.0,0.0,0.0,0.0,0.0,0.0,0.0,0.0,0.0,0.0,0.0,0.0,0.0,0.0,-3.8354,-3.8564,-3.8707,-3.8707,-3.8707,-3.8707,-3.8707,-3.8707,-3.8658,0.0,0.0,0.0,0.0,0.0,0.0,0.0,0.0,0.0,0.0,0.0,0.0,0.0,0.0,0.0,0.0,0.0,0.0,0.0,0.0,0.0,0.0,0.0,0.0,0.0,0.0,0.0,0.0,0.0,0.0,0.0,0.0,0.0,0.0,0.0,0.0,0.0,0.0,0.0,0.0,-3.499,-3.5477,-3.6743,0.0,0.0,0.0,0.0,0.0,0.0,-3.7184,-3.6927,0.0,0.0,0.0,0.0,0.0,0.0,0.0,0.0,0.0,0.0,0.0,0.0,0.0,0.0,0.0,0.0,0.0,0.0,0.0,0.0,0.0,0.0,0.0,0.0,0.0,0.0,0.0,0.0,0.0,0.0,0.0,0.0,0.0,0.0,0.0,0.0,0.0,0.0,0.0,0.0,0.0,0.0,0.0,0.0,0.0,0.0,0.0,0.0,0.0,0.0,0.0,0.0,0.0,0.0,0.0,-3.8119,-3.8483,-3.8707,-3.8707,-3.8707,-3.8707,-3.8707,-3.8707,-3.8707,0.0,0.0,0.0,0.0,0.0,0.0,0.0,0.0,0.0,0.0,0.0,0.0,0.0,0.0,0.0,0.0,0.0,0.0,0.0,0.0,0.0,0.0,0.0,0.0,0.0,0.0,0.0,0.0,0.0,0.0,0.0,0.0,0.0,0.0,0.0,0.0,0.0,0.0,0.0,0.0,0.0,-3.6046,-3.7514,-3.7734,0.0,0.0,0.0,0.0,-3.8707,-3.8157,0.0,0.0,0.0,0.0,0.0,0.0,0.0,0.0,0.0,0.0,0.0,0.0,0.0,0.0,0.0,0.0,0.0,0.0,0.0,0.0,0.0,0.0,0.0,0.0,0.0,0.0,0.0,0.0,0.0,0.0,0.0,0.0,0.0,0.0,0.0,0.0,0.0,0.0,0.0,0.0,0.0,0.0,0.0,0.0,0.0,0.0,0.0,0.0,0.0,0.0,0.0,0.0,0.0,0.0,0.0,0.0,-3.8446,-3.8627,-3.8707,-3.8707,-3.8707,-3.8707,-3.8707,-3.8707,-3.8707,0.0,0.0,0.0,0.0,0.0,0.0,0.0,0.0,0.0,0.0,0.0,0.0,0.0,0.0,0.0,0.0,0.0,0.0,0.0,0.0,0.0,0.0,0.0,0.0,0.0,0.0,0.0,0.0,0.0,0.0,0.0,0.0,0.0,0.0,0.0,0.0,0.0,0.0,0.0,0.0,0.0,-3.7533,-3.8432,-3.8579,-3.8597,0.0,0.0,-3.8707,-3.8707,-3.8615,0.0,0.0,0.0,0.0,0.0,0.0,0.0,0.0,0.0,0.0,0.0,0.0,0.0,0.0,0.0,0.0,0.0,0.0,0.0,0.0,0.0,0.0,0.0,0.0,0.0,0.0,0.0,0.0,0.0,0.0,0.0,0.0,0.0,0.0,0.0,0.0,0.0,0.0,0.0,0.0,0.0,0.0,0.0,0.0,0.0,0.0,0.0,0.0,0.0,0.0,0.0,0.0,0.0,0.0,0.0,-3.8183,-3.8267,-3.8546,-3.8707,-3.8707,-3.8707,-3.8707,-3.8707,-3.8707,-3.8707,0.0,0.0,0.0,0.0,0.0,0.0,0.0,0.0,0.0,0.0,0.0,0.0,0.0,0.0,0.0,0.0,0.0,0.0,0.0,0.0,0.0,0.0,0.0,0.0,0.0,0.0,0.0,0.0,0.0,0.0,0.0,0.0,0.0,0.0,0.0,0.0,0.0,0.0,0.0,0.0,0.0,0.0,-3.8579,-3.8707,0.0,0.0,0.0,-3.8707,-3.8707,0.0,0.0,0.0,0.0,0.0,0.0,0.0,0.0,0.0,0.0,0.0,0.0,0.0,0.0,0.0,0.0,0.0,0.0,0.0,0.0,0.0,0.0,0.0,0.0,0.0,0.0,0.0,0.0,0.0,0.0,0.0,0.0,0.0,0.0,0.0,0.0,0.0,0.0,0.0,0.0,0.0,0.0,0.0,0.0,0.0,0.0,0.0,0.0,0.0,0.0,0.0,0.0,0.0,0.0,0.0,0.0,0.0,-3.8168,-3.8515,-3.8707,-3.8707,-3.8707,-3.8707,-3.8707,-3.8707,0.0,0.0,0.0,0.0,0.0,0.0,0.0,0.0,0.0,0.0,0.0,0.0,0.0,0.0,0.0,0.0,0.0,0.0,0.0,0.0,0.0,0.0,0.0,0.0,0.0,0.0,0.0,-3.4669,0.0,0.0,0.0,0.0,0.0,0.0,0.0,0.0,0.0,0.0,0.0,0.0,0.0,0.0,-3.801,-3.8634,-3.8707,-3.8707,0.0,0.0,-3.8707,-3.8707,-3.8707,-3.8707,0.0,0.0,0.0,0.0,0.0,0.0,0.0,0.0,0.0,0.0,0.0,0.0,0.0,0.0,0.0,0.0,0.0,0.0,0.0,0.0,0.0,0.0,0.0,0.0,0.0,0.0,0.0,0.0,0.0,0.0,0.0,0.0,0.0,0.0,0.0,0.0,0.0,0.0,0.0,0.0,0.0,0.0,0.0,0.0,0.0,0.0,0.0,0.0,0.0,0.0,0.0,0.0,0.0,0.0,0.0,-3.8382,-3.8596,-3.8707,-3.8707,-3.8707,-3.8707,-3.8707,-3.8707,-3.8707,0.0,0.0,0.0,0.0,0.0,0.0,0.0,0.0,0.0,0.0,0.0,0.0,0.0,0.0,0.0,0.0,0.0,0.0,0.0,0.0,0.0,0.0,0.0,0.0,0.0,0.0,0.0,0.0,0.0,0.0,0.0,0.0,0.0,0.0,0.0,0.0,0.0,0.0,0.0,0.0,0.0,-3.8652,-3.8707,-3.8707,-3.8707,0.0,0.0,-3.8707,-3.8707,-3.8707,-3.8707,-3.8707,0.0,0.0,0.0,0.0,0.0,0.0,0.0,0.0,0.0,0.0,0.0,0.0,0.0,0.0,0.0,0.0,0.0,0.0,0.0,0.0,0.0,0.0,0.0,0.0,0.0,0.0,0.0,0.0,0.0,0.0,0.0,0.0,0.0,0.0,0.0,0.0,0.0,0.0,0.0,0.0,0.0,0.0,0.0,0.0,0.0,0.0,0.0,0.0,0.0,0.0,0.0,0.0,0.0,-3.8267,-3.8578,-3.8658,-3.8707,-3.8707,-3.8707,-3.8707,-3.8707,-3.8707,-3.8707,0.0,0.0,0.0,0.0,0.0,0.0,0.0,0.0,0.0,0.0,0.0,0.0,0.0,0.0,0.0,0.0,0.0,0.0,0.0,0.0,0.0,0.0,0.0,0.0,0.0,0.0,0.0,0.0,-3.7037,-3.7221,-3.7716,0.0,0.0,0.0,0.0,0.0,0.0,0.0,0.0,0.0,0.0,-3.8707,-3.8707,-3.8707,0.0,0.0,-3.8707,-3.8707,-3.8707,-3.8707,-3.8707,-3.8707,-3.8707,0.0,0.0,0.0,0.0,0.0,0.0,0.0,0.0,0.0,0.0,0.0,0.0,0.0,0.0,0.0,0.0,0.0,0.0,0.0,0.0,0.0,0.0,0.0,0.0,0.0,0.0,0.0,0.0,0.0,0.0,0.0,0.0,0.0,0.0,0.0,0.0,0.0,0.0,0.0,0.0,0.0,0.0,0.0,0.0,0.0,0.0,0.0,0.0,0.0,0.0,0.0,0.0,-3.8249,-3.864,-3.8689,-3.8707,-3.8707,-3.8707,-3.8707,-3.8707,-3.8707,-3.8707,0.0,0.0,0.0,0.0,0.0,0.0,0.0,0.0,0.0,0.0,0.0,0.0,0.0,0.0,0.0,0.0,0.0,0.0,0.0,0.0,0.0,0.0,0.0,0.0,0.0,0.0,0.0,0.0,-3.7863,-3.8065,-3.8634,0.0,0.0,0.0,0.0,0.0,0.0,0.0,0.0,0.0,0.0,-3.8707,-3.8707,-3.8707,-3.8707,-3.8707,-3.8707,-3.8707,-3.8707,-3.8707,-3.8707,-3.8707,0.0,0.0,0.0,0.0,0.0,0.0,0.0,0.0,0.0,0.0,0.0,0.0,0.0,0.0,0.0,0.0,0.0,0.0,0.0,0.0,0.0,0.0,0.0,0.0,0.0,0.0,0.0,0.0,0.0,0.0,-3.8307,0.0,0.0,0.0,0.0,0.0,0.0,0.0,0.0,0.0,0.0,0.0,0.0,0.0,0.0,0.0,0.0,0.0,0.0,0.0,0.0,0.0,0.0,-3.846,-3.851,-3.8658,-3.8707,-3.8707,-3.8707,-3.8707,-3.8707,-3.8707,-3.8707,-3.8707,0.0,0.0,0.0,0.0,0.0,0.0,0.0,0.0,0.0,0.0,0.0,0.0,0.0,0.0,0.0,0.0,0.0,0.0,0.0,0.0,0.0,0.0,0.0,0.0,0.0,0.0,-3.8652,-3.867,-3.867,0.0,0.0,0.0,0.0,0.0,0.0,0.0,0.0,0.0,0.0,-3.8707,-3.8707,-3.8707,-3.8707,-3.8707,-3.8707,-3.8707,-3.8707,-3.8707,-3.8707,-3.8707,0.0,0.0,0.0,0.0,0.0,0.0,0.0,0.0,0.0,0.0,0.0,0.0,0.0,0.0,0.0,0.0,0.0,0.0,0.0,0.0,0.0,0.0,0.0,0.0,0.0,0.0,0.0,-3.8002,-3.8052,0.0,0.0,0.0,0.0,0.0,0.0,0.0,0.0,0.0,0.0,0.0,-3.8609,-3.8627,0.0,0.0,0.0,0.0,0.0,0.0,0.0,0.0,0.0,0.0,0.0,0.0,-3.8234,-3.8609,-3.8658,-3.8707,-3.8707,-3.8707,-3.8707,-3.8707,-3.8707,-3.8707,-3.8707,0.0,0.0,0.0,0.0,0.0,0.0,0.0,0.0,0.0,0.0,0.0,0.0,0.0,0.0,0.0,0.0,0.0,0.0,0.0,0.0,0.0,0.0,0.0,0.0,0.0,-3.8707,0.0,0.0,0.0,0.0,0.0,0.0,0.0,0.0,0.0,0.0,0.0,-3.8707,-3.8707,-3.8707,-3.8707,-3.8707,-3.8707,-3.8707,0.0,0.0,0.0,0.0,0.0,0.0,0.0,0.0,0.0,0.0,0.0,0.0,0.0,0.0,-3.8707,-3.8707,-3.8738,-3.8719,-3.8719,0.0,0.0,0.0,0.0,0.0,0.0,0.0,0.0,0.0,0.0,0.0,0.0,0.0,0.0,0.0,0.0,-3.8354,0.0,0.0,0.0,0.0,0.0,0.0,0.0,0.0,-3.8658,-3.8707,-3.8707,-3.8658,-3.8658,0.0,-3.8559,-3.851,0.0,0.0,0.0,0.0,0.0,0.0,0.0,0.0,-3.8318,-3.8676,-3.8707,-3.8707,-3.8707,-3.8707,-3.8707,-3.8707,-3.8707,-3.8707,-3.8707,-3.8707,-3.8707,0.0,0.0,0.0,0.0,0.0,0.0,0.0,0.0,0.0,0.0,0.0,0.0,0.0,0.0,0.0,0.0,0.0,0.0,0.0,0.0,0.0,0.0,0.0,-3.8707,0.0,0.0,0.0,0.0,0.0,0.0,0.0,0.0,0.0,-3.8707,-3.8707,-3.8707,-3.8707,-3.8707,-3.8707,-3.8707,0.0,0.0,0.0,0.0,0.0,0.0,0.0,-3.8707,-3.8707,-3.8707,-3.8689,-3.8719,-3.8719,-3.875,-3.8762,0.0,0.0,-3.8689,-3.8738,-3.8762,-3.878,-3.878,-3.881,-3.881,-3.8822,-3.8862,0.0,0.0,0.0,0.0,0.0,0.0,0.0,0.0,-3.8368,-3.8368,0.0,-3.8465,0.0,0.0,0.0,0.0,0.0,-3.8559,0.0,0.0,-3.8707,-3.8707,-3.8689,-3.8578,-3.8578,-3.8689,-3.8559,-3.8559,-3.8676,-3.8515,0.0,0.0,0.0,0.0,0.0,0.0,-3.8707,-3.8707,-3.8707,-3.8707,-3.8707,-3.8707,-3.8707,-3.8707,-3.8707,-3.8707,-3.8707,-3.8707,-3.8707,-3.8707,-3.8707,0.0,0.0,0.0,0.0,0.0,0.0,0.0,0.0,0.0,0.0,0.0,0.0,0.0,0.0,0.0,0.0,0.0,0.0,0.0,0.0,-3.8707,0.0,0.0,0.0,0.0,0.0,0.0,0.0,0.0,0.0,0.0,-3.8707,-3.8707,-3.8707,-3.8707,0.0,0.0,0.0,0.0,-3.8707,-3.8707,-3.8707,-3.8707,-3.8707,-3.8707,-3.8707,-3.8707,0.0,0.0,-3.8792,-3.8792,-3.8822,-3.8881,-3.8862,-3.8851,-3.8738,-3.8792,-3.891,-3.891,-3.8921,-3.8997,-3.8997,-3.895,-3.8979,-3.7413,0.0,0.0,0.0,0.0,-3.8225,-3.8207,-3.8241,-3.8307,-3.8336,-3.8368,-3.8478,0.0,0.0,0.0,0.0,0.0,0.0,-3.8658,-3.8707,-3.8707,-3.8707,-3.8707,-3.8658,-3.8658,-3.8707,-3.8658,-3.8658,-3.8707,-3.8609,-3.8559,-3.851,0.0,0.0,0.0,0.0,-3.8609,-3.8707,-3.8707,-3.8707,-3.8707,-3.8707,-3.8707,-3.8707,-3.8707,-3.8707,-3.8707,-3.8707,-3.8707,-3.8707,-3.8707,0.0,0.0,0.0,0.0,0.0,0.0,0.0,0.0,0.0,0.0,0.0,0.0,0.0,0.0,0.0,0.0,0.0,0.0,0.0,-3.8707,-3.8707,-3.8707,0.0,0.0,0.0,0.0,0.0,0.0,0.0,0.0,0.0,-3.8707,-3.8707,-3.8707,0.0,0.0,-3.8707,-3.8707,-3.8707,-3.8707,-3.8707,-3.8707,0.0,0.0,-3.8707,-3.8707,-3.8707,-3.8707,-3.8689,-3.8719,-3.8719,-3.8719,-3.875,-3.8792,-3.8822,-3.881,-3.8851,-3.891,-3.891,-3.891,-3.8939,-3.8939,-3.8939,-3.8939,-3.7756,-3.8192,-3.8192,-3.8207,-3.8241,-3.8259,-3.8241,-3.8289,-3.8354,-3.8401,-3.8415,-3.8478,-3.8478,-3.8415,-3.8446,0.0,0.0,0.0,-3.8707,-3.8707,-3.8707,-3.8707,-3.8707,-3.8707,-3.8707,-3.8707,-3.8707,-3.8707,-3.8707,-3.8707,-3.8658,-3.859,0.0,0.0,-3.8559,-3.8559,-3.8609,-3.8707,-3.8707,-3.8707,-3.8707,-3.8707,-3.8707,-3.8707,-3.8707,-3.8707,-3.8707,-3.8707,-3.8707,-3.8707,-3.8707,-3.8707,0.0,0.0,0.0,0.0,0.0,0.0,0.0,0.0,0.0,0.0,0.0,-3.8707,0.0,0.0,0.0,0.0,-3.8707,-3.8707,-3.8707,-3.8707,0.0,0.0,0.0,0.0,0.0,0.0,0.0,-3.8707,-3.8707,-3.8707,-3.8707,-3.8707,-3.8707,-3.8707,-3.8707,-3.8707,-3.8707,0.0,-3.8707,-3.8707,-3.8707,-3.8707,-3.8707,-3.8707,-3.8707,-3.8707,-3.8707,-3.8707,-3.875,-3.875,-3.875,-3.878,-3.8822,-3.8833,-3.8833,-3.8881,-3.891,-3.8939,-3.895,-3.896,-3.8979,-3.8979,-3.8979,-3.7989,-3.8373,-3.8373,-3.8368,-3.8307,-3.8307,-3.8322,-3.8401,-3.8446,-3.8446,-3.8415,-3.846,-3.8433,-3.834,-3.8419,0.0,-3.851,-3.864,-3.8707,-3.8707,-3.8707,-3.8707,-3.8707,-3.8707,-3.8707,-3.8707,-3.8707,-3.8707,-3.8707,-3.8707,-3.8707,-3.8707,-3.8689,-3.8707,-3.8707,-3.8707,-3.8707,-3.8707,-3.8707,-3.8707,-3.8707,-3.8707,-3.8707,-3.8707,-3.8707,-3.8707,-3.8707,-3.8707,-3.8707,-3.8707,-3.8707,-3.8707,-3.8707,0.0,0.0,0.0,0.0,0.0,0.0,0.0,0.0,0.0,0.0,0.0,0.0,0.0,0.0,0.0,-3.8707,0.0,-3.8707,-3.8707,0.0,0.0,0.0,-3.8707,-3.8707,-3.8707,-3.8707,-3.8707,0.0,0.0,-3.8707,-3.8707,-3.8707,-3.8707,-3.8707,-3.8707,-3.8707,-3.8707,-3.8707,-3.8707,-3.8707,-3.8707,-3.8707,-3.8707,-3.8689,-3.8707,-3.8689,-3.8719,-3.8792,-3.8822,-3.8851,-3.8881,-3.891,-3.891,-3.891,-3.8939,-3.8939,-3.8979,-3.9017,-3.9073,-3.9073,-3.9073,-3.9045,-3.986,-3.9967,-3.9967,-3.9278,-3.8225,-3.8225,-3.8241,-3.8241,-3.834,-3.8368,-3.8415,-3.8478,-3.8528,-3.8596,-3.8627,-3.8627,-3.8658,-3.8707,-3.8707,-3.8707,-3.8707,-3.864,-3.8559,-3.8658,-3.8658,-3.8559,-3.864,-3.8707,-3.8707,-3.8707,-3.8707,-3.8707,-3.8609,-3.8609,-3.8707,-3.8707,-3.8707,-3.8707,-3.8707,-3.8707,-3.8707,-3.8707,-3.8707,-3.8707,-3.8707,-3.8707,-3.8707,-3.8707,-3.8707,-3.8707,-3.8707,-3.8707,-3.8707,-3.8707,0.0,0.0,0.0,0.0,0.0,0.0,0.0,0.0,0.0,-3.8707,-3.8707,0.0,-3.8707,0.0,-3.8707,-3.8707,-3.8707,-3.8707,0.0,0.0,-3.8707,-3.8707,-3.8707,-3.8707,-3.8707,-3.8707,-3.8707,-3.8707,-3.8707,-3.8707,-3.8707,-3.8707,-3.8707,-3.8707,-3.8707,-3.8707,-3.8707,-3.8744,-3.8762,-3.8707,-3.8762,-3.8707,-3.8775,-3.878,-3.878,-3.8792,-3.8881,-3.8881,-3.8881,-3.8892,-3.8921,-3.895,-3.895,-3.9036,-3.9045,-3.9073,-3.9007,-3.8979,-3.9007,-3.8979,-3.8979,-4.051,-4.051,-4.051,-4.0003,-3.9224,-3.9224,-3.9259,-3.9293,-3.9395,-3.9462,-3.9477,-3.9458,-3.9458,-3.9495,-3.9561,-3.9593,-3.9593,-3.9626,-3.9644,-3.9626,-3.9644,-3.9593,-3.9524,-3.9607,-3.9575,-3.9524,-3.9575,-3.9626,-3.9644,-3.9644,-3.9644,-3.9626,-3.9575,-3.9575,-3.9607,-3.8944,-3.8823,-3.9221,-3.8872,-3.8707,-3.8707,-3.8707,-3.8707,-3.8707,-3.8707,-3.8707,-3.8707,-3.8707,-3.8707,-3.8707,-3.8707,-3.8707,-3.8707,-3.8707,-3.8707,0.0,0.0,0.0,0.0,0.0,0.0,0.0,0.0,0.0,0.0,0.0,-3.8707,-3.8707,-3.8707,-3.8707,-3.8707,-3.8707,-3.8707,-3.8707,-3.8707,-3.8836,-3.9184,-3.9221,-3.9368,-3.9735,-3.9772,-3.9772,-3.9772,-3.9772,-3.9772,-3.979,-3.9772,-3.9643,-3.9313,-3.9239,-3.935,-3.9698,-3.9772,-3.9772,-3.979,-3.979,-3.9772,-3.9834,-3.9816,-3.9737,-3.9418,-3.9356,-3.9264,-3.8944,-3.8862,-3.8939,-3.8968,-3.9092,-3.9192,-3.9192,-3.92,-3.9173,-3.9073,-3.8989,-3.9064,-4.0818,-4.0818,-4.0818,-4.0818,-4.08,-4.0818,-4.0763,-4.0688,-4.0739,-4.0773,-4.0773,-4.0722,-4.0634,-4.0564,-4.0688,-4.0722,-4.0722,-4.0773,-4.0808,-4.0808,-4.0808,-4.0792,-4.0773,-4.0792,-4.0792,-4.0773,-4.0792,-4.0808,-4.0808,-4.0808,-4.0808,-4.0808,-4.0808,-4.0862,-4.0899,-3.9506,-3.9218,-3.9978,-3.9318,-3.8951,-3.897,-3.8909,-3.8854,-3.8854,-3.8744,-3.8707,-3.8707,-3.8707,-3.8707,-3.8707,-3.8707,-3.8707,-3.8707,-3.8707,-3.8707,0.0,-3.8707,0.0,0.0,0.0,0.0,0.0,0.0,0.0,0.0,-3.8799,-3.8854,-3.8854,-3.8964,-3.9001,-3.9001,-3.9019,-3.9001,-3.9001,-3.9001,-3.9294,-3.9955,-4.0047,-4.0322,-4.1038,-4.1097,-4.1097,-4.1056,-4.1097,-4.1079,-4.0987,-4.0983,-4.0799,-4.0359,-4.012,-4.0286,-4.102,-4.1097,-4.091,-4.0965,-4.1005,-4.102,-4.1056,-4.1015,-4.0873,-4.022,-4.011,-3.9871,-3.9326,-3.9245,-3.922,-3.9176,-3.9482,-3.9634,-3.9735,-3.9921,-3.9881,-3.9354,-3.9192,-3.9227,-4.2448,-4.2448,-4.2448,-4.2429,-4.2448,-4.2448,-4.1687,-4.0564,-4.0564,-4.0634,-4.0704,-4.0757,-4.0773,-4.0739,-4.0773,-4.0773,-4.0773,-4.0792,-4.0808,-4.0808,-4.0808,-4.0792,-4.0704,-4.0773,-4.0792,-4.0704,-4.0792,-4.0808,-4.0808,-4.0808,-4.0808,-4.0808,-4.0808,-4.1136,-4.1683,0.0,0.0,0.0,-4.0507,-4.0482,-4.0482,-3.996,-3.968,-3.9643,-3.9038,0.0,-3.8707,-3.8707,-3.8707,-3.8707,-3.8707,0.0,0.0,0.0,0.0,0.0,0.0,0.0,0.0,0.0,0.0,0.0,-3.9313,-3.9386,-3.8781,-3.9294,-3.9662,-3.968,-4.0267,-4.0653,-4.0653,-4.0653,-4.0653,-4.0653,-4.0653,-4.0726,-4.0873,-4.0891,-4.0946,-4.1093,-4.1097,-4.113,-4.1185,-4.1097,-4.1148,-4.1222,-4.1097,-4.1332,-4.1791,-4.1277,-4.0965,-4.1111,-4.124,-4.1134,-4.1097,-4.1185,-4.1258,-4.1158,-4.119,-4.1185,-4.1051,-4.1014,-4.1027,-4.0751,-4.0837,-4.0782,-4.0831,-4.1109,-4.1237,-4.1312,-4.1593,-4.14,-3.9939,-3.9566,-3.9571,-4.29,0.0,-4.29,-4.29,0.0,-4.29,-4.2429,-4.1687,-4.1742,-4.1833,-4.1887,-4.1923,-4.1905,-4.1832,-4.1851,-4.1832,-4.1851,-4.1851,-4.1832,-4.1851,-4.1851,-4.1814,-4.1778,-4.1796,-4.1814,-4.1778,-4.1796,-4.1851,-4.1832,-4.1851,-4.1851,-4.1851,-4.1851,-4.205,-4.2414,-4.2032,-4.1486,-4.0826,-4.0823,-4.0876,-4.0857,-4.0507,-4.0357,-4.0321,0.0,0.0,0.0,0.0,0.0,0.0,0.0,0.0,0.0,0.0,0.0,-3.8707,-3.8707,-3.8872,-3.9239,-3.9276,-3.946,-3.9882,-4.0267,-4.0322,-3.9918,-4.0267,-4.0506,-4.0506,-4.0873,-4.1097,-4.1097,-4.1097,-4.1097,-4.1097,-4.1097,-4.124,-4.1625,-4.1699,-4.1864,-4.2231,-4.2304,-4.2286,-4.2286,-4.2286,-4.2268,-4.2286,-4.2286,-4.2396,-4.2727,-4.2213,-4.1827,-4.2194,-4.2286,-4.2304,-4.2286,-4.2286,-4.2268,-4.2334,-4.2334,-4.2151,-4.1852,-4.1811,-4.1682,-4.1364,-4.1267,-4.1298,-4.1523,-4.1763,-4.1989,-4.2176,-4.2427,-4.2408,-4.1472,-4.1136,-4.1048,-4.2806,-4.29,-4.29,-4.29,-4.29,-4.29,-4.29,-4.29,0.0,0.0,0.0,-4.3067,-4.2994,-4.29,-4.29,-4.29,-4.29,-4.29,-4.29,-4.29,-4.29,-4.29,-4.29,-4.29,-4.29,-4.29,-4.29,-4.29,-4.29,-4.29,-4.29,-4.29,-4.2956,-4.2938,-4.2938,-4.292,-4.2304,-4.123,-4.1211,-4.1211,-4.1211,-4.1065,-4.1026,-4.1026,-4.0881,-4.0842,-4.0873,-4.0251,-3.9969,-4.0052,-3.9478,-3.9129,-3.9129,-3.9129,-3.9129,-3.9129,-3.9129,-3.9423,-4.0065,-4.0102,-4.0451,-4.1277,-4.1313,-4.1277,-4.1148,-4.124,-4.1332,-4.1332,-4.146,-4.1552,-4.1534,-4.1534,-4.1534,-4.1534,-4.1534,-4.1827,-4.2415,-4.2506,-4.2745,-4.3351,-4.3424,-4.3479,-4.3406,-4.3406,-4.3479,-4.3461,-4.3351,-4.3479,-4.3406,-4.291,-4.2708,-4.3222,-4.3259,-4.3406,-4.3461,-4.3406,-4.3479,-4.3351,-4.3387,-4.324,-4.2727,-4.2506,-4.2298,-4.1949,-4.1691,-4.1934,-4.223,-4.2566,-4.2702,-4.2946,-4.3195,-4.3368,-4.3367,-4.3157,-4.2878,-4.2555,-4.29,-4.29,-4.29,-4.29,-4.29,-4.29,-4.29,-4.2938,-4.2938,-4.2938,-4.2938,-4.2938,-4.29,-4.29,-4.29,-4.29,-4.29,-4.29,0.0,-4.29,-4.29,-4.29,-4.29,-4.29,-4.29,-4.29,-4.29,-4.29,-4.29,-4.29,-4.2938,-4.3012,-4.3049,-4.3049,-4.2938,-4.2811,-4.2594,-4.2704,-4.2759,-4.2759,-4.2159,-4.1812,-4.1792,-4.1172,-4.0808,-4.0789,-4.0781,-4.0741,-4.0775,-4.0785,-4.0781,-4.0781,-4.0744,-4.0781,-4.0781,-4.0763,-4.0836,-4.0928,-4.0946,-4.1277,-4.2047,-4.2139,-4.1864,-4.1203,-4.1754,-4.2121,-4.2158,-4.2708,-4.3149,-4.3167,-4.3075,-4.3039,-4.3094,-4.313,-4.3204,-4.3277,-4.3277,-4.3314,-4.3461,-4.3479,-4.3479,-4.3479,-4.3479,-4.3479,-4.3479,-4.3479,-4.3479,-4.3461,-4.3406,-4.3369,-4.3461,-4.3479,-4.3479,-4.3479,-4.3479,-4.3479,-4.3479,-4.3479,-4.3442,-4.3277,-4.3256,-4.3284,-4.3489,-4.3404,-4.3576,-4.3868,-4.431,-4.4332,-4.4429,-4.4647,-4.4882,-4.4863,-4.4824,-4.4461,-4.2338,-4.2555,-4.2806,-4.29,-4.29,-4.29,-4.29,-4.29,-4.29,-4.29,-4.29,-4.29,-4.29,-4.29,-4.29,-4.29,-4.29,-4.29,-4.29,-4.29,-4.29,-4.29,-4.29,-4.29,-4.29,-4.29,-4.29,-4.29,-4.29,-4.29,-4.29,-4.29,-4.2938,-4.2994,-4.2994,-4.2938,-4.29,-4.29,-4.2938,-4.2994,-4.2994,-4.2668,-4.2505,-4.2614,-4.225,-4.2103,-4.2209,-4.1805,-4.1635,-4.1669,-4.1299,-4.1097,-4.1097,-4.1097,-4.1097,-4.1097,-4.1097,-4.1295,-4.1735,-4.2158,-4.2543,-4.291,-4.2947,-4.28,-4.2433,-4.2727,-4.2947,-4.2947,-4.3296,-4.3479,-4.3479,-4.3479,-4.3479,-4.3479,-4.3479,-4.3479,-4.3479,-4.3479,-4.3479,-4.3479,-4.3479,-4.3479,-4.3479,-4.3479,-4.3479,-4.3479,-4.3479,-4.3479,-4.3479,-4.3479,-4.3479,-4.3479,-4.3479,-4.3479,-4.3479,-4.3479,-4.3479,-4.3479,-4.3479,-4.3479,-4.3513,-4.3615,-4.3749,-4.3781,-4.3986,-4.425,-4.4402,-4.465,-4.4868,-4.509,-4.5237,-4.5341,-4.54,-4.5419,-4.5112,-4.2157,-4.2418,-4.275,-4.29,-4.29,-4.29,-4.29,-4.29,-4.29,-4.29,-4.29,-4.29,-4.29,-4.29,-4.29,-4.29,-4.29,-4.29,-4.29,-4.29,-4.29,-4.29,-4.29,-4.29,-4.29,-4.29,-4.29,-4.29,-4.29,-4.29,-4.29,-4.29,-4.29,-4.29,-4.29,-4.29,-4.29,-4.29,-4.29,-4.29,-4.29,-4.29,-4.2938,-4.3049,-4.3104,-4.3178,-4.3286,-4.2774,-4.2496,-4.2527,-4.1992,-4.1644,-4.1644,-4.1644,-4.1644,-4.1644,-4.1644,-4.1919,-4.2525,-4.313,-4.3479,-4.3479,-4.3479,-4.3479,-4.3479,-4.3479,-4.3479,-4.3479,-4.3461,-4.3479,-4.3479,-4.3479,-4.3479,-4.3479,-4.3479,-4.3479,-4.3479,-4.3479,-4.3479,-4.3479,-4.3479,-4.3479,-4.3479,-4.3479,-4.3479,-4.3479,-4.3479,-4.3479,-4.3479,-4.3479,-4.3479,-4.3479,-4.3479,-4.3479,-4.3479,-4.3479,-4.3479,-4.3479,-4.3479,-4.3479,-4.3548,-4.3763,-4.3955,-4.386,-4.4173,-4.4511,-4.4617,-4.477,-4.5004,-4.5235,-4.5277,-4.5317,-4.5359,-4.5378,-4.536,-4.2056,-4.2806,-4.29,-4.29,-4.29,-4.29,-4.29,-4.29,-4.29,-4.29,-4.29,-4.29,-4.29,-4.29,-4.29,-4.29,-4.29,-4.29,-4.29,-4.29,-4.29,-4.29,-4.29,-4.29,-4.29,-4.29,-4.29,-4.29,-4.29,-4.29,-4.29,-4.29,-4.29,-4.29,-4.29,-4.29,-4.29,-4.29,-4.29,-4.29,-4.29,-4.29,-4.29,-4.292,-4.3049,-4.3104,-4.3141,-4.3196,-4.3266,-4.332,-4.3243,-4.3222,-4.324,-4.324,-4.324,-4.3222,-4.3222,-4.3314,-4.3369,-4.3442,-4.3479,-4.3479,-4.3479,-4.3479,-4.3479,-4.3479,-4.3479,-4.3479,-4.3479,-4.3479,-4.3479,-4.3479,-4.3479,-4.3479,-4.3479,-4.3479,-4.3479,-4.3479,-4.3479,-4.3479,-4.3479,-4.3479,-4.3479,-4.3479,-4.3479,-4.3479,-4.3479,-4.3479,-4.3479,-4.3479,-4.3479,-4.3479,-4.3479,-4.3479,-4.3479,-4.3479,-4.3479,-4.3479,-4.3479,-4.3513,-4.3582,-4.3795,-4.4048,-4.4173,-4.4519,-4.4838,-4.5023,-4.5235,-4.5235,-4.5256,-4.5277,-4.5297,-4.5298,-4.5317,-4.5298,-4.1888,-4.2516,-4.2788,-4.29,-4.29,-4.29,-4.29,-4.29,-4.29,-4.29,-4.29,-4.29,-4.29,-4.29,-4.29,-4.29,-4.29,-4.29,-4.29,-4.29,-4.29,-4.29,-4.29,-4.29,-4.29,-4.29,-4.29,-4.29,-4.29,-4.29,-4.29,-4.29,-4.29,-4.29,-4.29,-4.29,-4.29,-4.29,-4.29,-4.29,-4.29,-4.29,-4.2938,-4.2994,-4.3049,-4.3141,-4.316,-4.3305,-4.3394,-4.3394,-4.3463,-4.3479,-4.3479,-4.3479,-4.3479,-4.3479,-4.3479,-4.3479,-4.3479,-4.3479,-4.3479,-4.3479,-4.3479,-4.3479,-4.3479,-4.3479,-4.3479,-4.3479,-4.3479,-4.3479,-4.3479,-4.3479,-4.3479,-4.3479,-4.3479,-4.3479,-4.3479,-4.3479,-4.3479,-4.3479,-4.3479,-4.3479,-4.3479,-4.3479,-4.3479,-4.3479,-4.3479,-4.3479,-4.3479,-4.3479,-4.3479,-4.3479,-4.3479,-4.3479,-4.3479,-4.3479,-4.3479,-4.3479,-4.3479,-4.3513,-4.3781,-4.403,-4.4289,-4.4383,-4.477,-4.5,-4.4934,-4.5194,-4.5277,-4.5277,-4.5277,-4.5277,-4.5277,-4.5277,-4.5277,-4.1846,-4.24,-4.2768,-4.29,-4.29,-4.29,-4.29,-4.29,-4.29,-4.29,-4.29,-4.29,-4.29,-4.29,-4.29,-4.29,-4.29,-4.29,-4.29,-4.29,-4.29,-4.29,-4.29,-4.29,-4.29,-4.29,-4.29,-4.29,-4.29,-4.29,-4.29,-4.29,-4.29,-4.29,-4.29,-4.29,-4.29,-4.29,-4.29,-4.29,-4.29,-4.29,-4.2956,-4.3031,-4.3104,-4.3123,-4.3196,-4.3287,-4.334,-4.3394,-4.3393,-4.3463,-4.3479,-4.3497,-4.3497,-4.3479,-4.3479,-4.3479,-4.3479,-4.3479,-4.3479,-4.3479,-4.3479,-4.3479,-4.3479,-4.3479,-4.3479,-4.3479,-4.3479,-4.3479,-4.3479,-4.3479,-4.3479,-4.3479,-4.3479,-4.3479,-4.3479,-4.3479,-4.3479,-4.3479,-4.3479,-4.3479,-4.3479,-4.3479,-4.3479,-4.3479,-4.3479,-4.3479,-4.3479,-4.3479,-4.3479,-4.3479,-4.3479,-4.3479,-4.3479,-4.3479,-4.3479,-4.3479,-4.3479,-4.3582,-4.386,-4.4132,-4.4402,-4.4438,-4.4953,-4.5213,-4.5109,-4.5235,-4.5277,-4.5277,-4.5277,-4.5277,-4.5277,-4.5277,-4.5277,-4.2056,-4.2806,-4.29,-4.29,-4.29,-4.29,-4.29,-4.29,-4.29,-4.29,-4.29,-4.29,-4.29,-4.29,-4.29,-4.29,-4.29,-4.29,-4.29,-4.29,-4.29,-4.29,-4.29,-4.29,-4.29,-4.29,-4.29,-4.29,-4.29,-4.29,-4.29,-4.29,-4.29,-4.29,-4.29,-4.29,-4.29,-4.29,-4.29,-4.29,-4.29,-4.29,-4.29,-4.2938,-4.3031,-4.3086,-4.3086,-4.3178,-4.3251,-4.3394,-4.3305,-4.3322,-4.3463,-4.3428,-4.3446,-4.3497,-4.3479,-4.3479,-4.3479,-4.3479,-4.3479,-4.3479,-4.3479,-4.3479,-4.3479,-4.3479,-4.3479,-4.3479,-4.3479,-4.3479,-4.3479,-4.3479,-4.3479,-4.3479,-4.3479,-4.3479,-4.3479,-4.3479,-4.3479,-4.3479,-4.3479,-4.3479,-4.3479,-4.3479,-4.3479,-4.3479,-4.3479,-4.3479,-4.3479,-4.3479,-4.3479,-4.3479,-4.3479,-4.3479,-4.3479,-4.3479,-4.3479,-4.3479,-4.3479,-4.3548,-4.3712,-4.3931,-4.4231,-4.4538,-4.4976,-4.5235,-4.5275,-4.5297,-4.5297,-4.5277,-4.5277,-4.5277,-4.5277,-4.5277,-4.5277,-4.2056,-4.2882,-4.29,-4.29,-4.29,-4.29,-4.29,-4.29,-4.29,-4.29,-4.29,-4.29,-4.29,-4.29,-4.29,-4.29,-4.29,-4.29,-4.29,-4.29,-4.29,-4.29,-4.29,-4.29,-4.29,-4.29,-4.29,-4.29,-4.29,-4.29,-4.29,-4.29,-4.29,-4.29,-4.29,-4.29,-4.29,-4.29,-4.29,-4.29,-4.29,-4.29,-4.29,-4.29,-4.2938,-4.2994,-4.2975,-4.3068,-4.3178,-4.3215,-4.3251,-4.3376,-4.3446,-4.3446,-4.3463,-4.3479,-4.3479,-4.3479,-4.3479,-4.3479,-4.3479,-4.3479,-4.3479,-4.3479,-4.3479,-4.3479,-4.3479,-4.3479,-4.3479,-4.3479,-4.3479,-4.3479,-4.3479,-4.3479,-4.3479,-4.3479,-4.3479,-4.3479,-4.3479,-4.3479,-4.3479,-4.3479,-4.3479,-4.3479,-4.3479,-4.3479,-4.3479,-4.3479,-4.3479,-4.3479,-4.3479,-4.3479,-4.3479,-4.3479,-4.3479,-4.3479,-4.3479,-4.3479,-4.3548,-4.3777,-4.398,-4.4114,-4.4402,-4.4789,-4.5173,-4.5256,-4.5297,-4.5297,-4.5277,-4.5277,-4.5277,-4.5277,-4.5277,-4.5277,-4.5277,-4.2098,-4.2673,-4.2844,-4.2806,-4.2711,-4.2844,-4.29,-4.29,-4.29,-4.29,-4.29,-4.29,-4.29,-4.29,-4.29,-4.29,-4.29,-4.29,-4.29,-4.29,-4.29,-4.29,-4.29,-4.29,-4.29,-4.29,-4.29,-4.29,-4.29,-4.29,-4.29,-4.29,-4.29,-4.29,-4.29,-4.29,-4.29,-4.29,-4.29,-4.29,-4.29,-4.29,-4.29,-4.29,-4.29,-4.29,-4.29,-4.2994,-4.3067,-4.3104,-4.3196,-4.3269,-4.3305,-4.3411,-4.3481,-4.3463,-4.3497,-4.3479,-4.3479,-4.3479,-4.3479,-4.3479,-4.3479,-4.3479,-4.3479,-4.3479,-4.3479,-4.3479,-4.3479,-4.3479,-4.3479,-4.3479,-4.3479,-4.3479,-4.3479,-4.3479,-4.3479,-4.3479,-4.3479,-4.3479,-4.3479,-4.3479,-4.3479,-4.3479,-4.3479,-4.3479,-4.3479,-4.3479,-4.3479,-4.3479,-4.3479,-4.3479,-4.3479,-4.3479,-4.3479,-4.3479,-4.3513,-4.3513,-4.3548,-4.3841,-4.4143,-4.4318,-4.4591,-4.5019,-4.5235,-4.5256,-4.5277,-4.5277,-4.5277,-4.5277,-4.5277,-4.5277,-4.5277,-4.5277,-4.5277,-4.2157,-4.2257,-4.2691,-4.2577,-4.2279,-4.2634,-4.29,-4.2844,-4.2882,-4.29,-4.29,-4.29,-4.29,-4.29,-4.29,-4.29,-4.29,-4.29,-4.29,-4.29,-4.29,-4.29,-4.29,-4.29,-4.29,-4.29,-4.29,-4.29,-4.29,-4.29,-4.29,-4.29,-4.29,-4.29,-4.29,-4.29,-4.29,-4.29,-4.29,-4.29,-4.29,-4.29,-4.29,-4.29,-4.29,-4.29,-4.29,-4.29,-4.2938,-4.3049,-4.2994,-4.2975,-4.316,-4.3305,-4.3411,-4.3411,-4.3481,-4.3479,-4.3479,-4.3479,-4.3479,-4.3479,-4.3479,-4.3479,-4.3479,-4.3479,-4.3479,-4.3479,-4.3479,-4.3479,-4.3479,-4.3479,-4.3479,-4.3479,-4.3479,-4.3479,-4.3479,-4.3479,-4.3479,-4.3479,-4.3479,-4.3479,-4.3479,-4.3479,-4.3479,-4.3479,-4.3479,-4.3479,-4.3479,-4.3479,-4.3479,-4.3479,-4.3479,-4.3479,-4.3479,-4.3479,-4.3513,-4.3513,-4.3582,-4.3763,-4.4102,-4.4346,-4.4643,-4.5023,-4.5235,-4.5297,-4.5277,-4.5277,-4.5277,-4.5277,-4.5277,-4.5277,-4.5277,-4.5277,-4.5277,-4.1717,-4.1717,-4.1888,-4.1846,-4.1785,-4.2198,-4.2418,-4.2458,-4.275,-4.29,-4.29,-4.29,-4.29,-4.29,-4.29,-4.29,-4.29,-4.29,-4.29,-4.29,-4.29,-4.29,-4.29,-4.29,-4.29,-4.29,-4.29,-4.29,-4.29,-4.29,-4.29,-4.29,-4.29,-4.29,-4.29,-4.29,-4.29,-4.29,-4.29,-4.29,-4.29,-4.29,-4.29,-4.29,-4.29,-4.29,-4.29,-4.29,-4.2938,-4.2938,-4.3068,-4.3196,-4.3358,-4.3446,-4.3463,-4.3481,-4.3497,-4.3479,-4.3479,-4.3479,-4.3479,-4.3479,-4.3479,-4.3479,-4.3479,-4.3479,-4.3479,-4.3479,-4.3479,-4.3479,-4.3479,-4.3479,-4.3479,-4.3479,-4.3479,-4.3479,-4.3479,-4.3479,-4.3479,-4.3479,-4.3479,-4.3479,-4.3479,-4.3479,-4.3479,-4.3479,-4.3479,-4.3479,-4.3479,-4.3479,-4.3479,-4.3479,-4.3479,-4.3479,-4.3479,-4.3513,-4.3548,-4.3582,-4.3649,-4.3855,-4.4173,-4.4374,-4.4695,-4.5,-4.5213,-4.5297,-4.5297,-4.5277,-4.5277,-4.5277,-4.5277,-4.5277,-4.5277,-4.5277,-4.5277,-4.123,-4.1258,-4.1437,-4.141,-4.1321,-4.176,-4.1931,-4.1973,-4.2239,-4.236,-4.236,-4.236,-4.24,-4.236,-4.236,-4.248,-4.2616,-4.2634,-4.2768,-4.2882,-4.29,-4.29,-4.29,-4.29,-4.29,-4.29,-4.29,-4.29,-4.29,-4.29,-4.29,-4.29,-4.29,-4.29,-4.29,-4.29,-4.29,-4.29,-4.29,-4.29,-4.29,-4.29,-4.29,-4.29,-4.29,-4.29,-4.29,-4.29,-4.29,-4.292,-4.3032,-4.316,-4.334,-4.3322,-4.3358,-4.3393,-4.3393,-4.3393,-4.3428,-4.3481,-4.3463,-4.3497,-4.3479,-4.3479,-4.3479,-4.3479,-4.3479,-4.3479,-4.3479,-4.3479,-4.3479,-4.3479,-4.3479,-4.3479,-4.3479,-4.3479,-4.3479,-4.3479,-4.3479,-4.3479,-4.3479,-4.3479,-4.3479,-4.3479,-4.3479,-4.3479,-4.3479,-4.3479,-4.3479,-4.3479,-4.3479,-4.3479,-4.3479,-4.3479,-4.3479,-4.3513,-4.36,-4.3667,-4.3716,-4.4053,-4.4411,-4.4438,-4.4624,-4.5023,-4.5297,-4.5297,-4.5277,-4.5277,-4.5277,-4.5277,-4.5277,-4.5277,-4.5277,-4.5277,-4.5277,-4.0754,-4.0802,-4.123,-4.1139,-4.0832,-4.1276,-4.1437,-4.1481,-4.1525,-4.1613,-4.1569,-4.1613,-4.1587,-4.1525,-4.1656,-4.1846,-4.2115,-4.2157,-4.2338,-4.2634,-4.2768,-4.2806,-4.2882,-4.29,-4.29,-4.29,-4.29,-4.29,-4.29,-4.29,-4.29,-4.29,-4.29,-4.29,-4.29,-4.29,-4.29,-4.29,-4.29,-4.29,-4.29,-4.29,-4.29,-4.29,-4.29,-4.29,-4.29,-4.29,-4.29,-4.29,-4.2938,-4.3013,-4.3086,-4.3104,-4.316,-4.3214,-4.3214,-4.3305,-4.334,-4.3376,-4.3393,-4.3444,-4.3444,-4.3479,-4.3497,-4.3497,-4.3479,-4.3479,-4.3479,-4.3479,-4.3479,-4.3479,-4.3479,-4.3479,-4.3479,-4.3479,-4.3479,-4.3479,-4.3479,-4.3479,-4.3479,-4.3479,-4.3479,-4.3479,-4.3479,-4.3479,-4.3479,-4.3479,-4.3479,-4.3479,-4.3479,-4.3479,-4.3479,-4.3479,-4.3479,-4.3479,-4.3582,-4.3749,-4.3781,-4.4042,-4.4493,-4.4599,-4.472,-4.5087,-4.5277,-4.5277,-4.5277,-4.5277,-4.5277,-4.5277,-4.5277,-4.5277,-4.5277,-4.5277,-4.5277,-4.0254,-4.0303,-4.0434,-4.0385,-4.0353,-4.0784,-4.0972,-4.1019,-4.1348,-4.1437,-4.1481,-4.1481,-4.1455,-4.1481,-4.1481,-4.1587,-4.1656,-4.1656,-4.1717,-4.1931,-4.2239,-4.2577,-4.2844,-4.29,-4.29,-4.2882,-4.29,-4.29,-4.29,-4.29,-4.29,-4.29,-4.29,-4.29,-4.29,-4.29,-4.29,-4.29,-4.29,-4.29,-4.29,-4.29,-4.29,-4.29,-4.29,-4.29,-4.29,-4.29,-4.2938,-4.3049,-4.3031,-4.3086,-4.3142,-4.3142,-4.3178,-4.3178,-4.3214,-4.3214,-4.3251,-4.3251,-4.3251,-4.3268,-4.3358,-4.3411,-4.3411,-4.3481,-4.3497,-4.3479,-4.3479,-4.3479,-4.3479,-4.3479,-4.3479,-4.3479,-4.3479,-4.3479,-4.3479,-4.3479,-4.3479,-4.3479,-4.3479,-4.3479,-4.3479,-4.3479,-4.3479,-4.3479,-4.3479,-4.3479,-4.3479,-4.3479,-4.3479,-4.3479,-4.3479,-4.3479,-4.3479,-4.3479,-4.3582,-4.3795,-4.386,-4.3873,-4.4402,-4.4814,-4.5019,-4.5297,-4.5297,-4.5277,-4.5277,-4.5277,-4.5277,-4.5277,-4.5277,-4.5277,-4.5277,-4.5277,-4.5277,-4.0037,-4.0054,-4.007,-4.0087,-4.0138,-4.0385,-4.0483,-4.058,-4.0784,-4.0908,-4.0908,-4.0908,-4.0908,-4.0908,-4.0926,-4.1065,-4.1185,-4.123,-4.1321,-4.1525,-4.1785,-4.2279,-4.2673,-4.2577,-4.2498,-4.2844,-4.2691,-4.2711,-4.2844,-4.29,-4.29,-4.29,-4.29,-4.29,-4.29,-4.29,-4.29,-4.29,-4.29,-4.29,-4.29,-4.29,-4.29,-4.29,-4.29,-4.29,-4.29,-4.29,-4.2938,-4.2994,-4.2994,-4.3068,-4.3142,-4.3087,-4.3087,-4.3142,-4.3105,-4.3087,-4.3142,-4.316,-4.3178,-4.3214,-4.3286,-4.3305,-4.3322,-4.3358,-4.3375,-4.3428,-4.3446,-4.3463,-4.3479,-4.3479,-4.3479,-4.3479,-4.3479,-4.3479,-4.3479,-4.3479,-4.3479,-4.3479,-4.3479,-4.3479,-4.3479,-4.3479,-4.3479,-4.3479,-4.3479,-4.3479,-4.3479,-4.3479,-4.3479,-4.3479,-4.3479,-4.3479,-4.3479,-4.3479,-4.3479,-4.3697,-4.3968,-4.3949,-4.4289,-4.4857,-4.5129,-4.5297,-4.5297,-4.5277,-4.5277,-4.5277,-4.5277,-4.5277,-4.5277,-4.5277,-4.5277,-4.5277,-4.5277,-3.9901,-3.9901,-4.002,-4.007,-4.007,-4.0138,-4.0171,-4.0121,-4.0171,-4.0171,-4.0171,-4.0121,-4.0254,-4.0087,-4.0303,-4.0353,-4.0707,-4.0754,-4.1001,-4.1213,-4.1393,-4.1743,-4.244,-4.1973,-4.2056,-4.2498,-4.2279,-4.236,-4.2537,-4.2729,-4.2806,-4.2788,-4.2844,-4.29,-4.29,-4.29,-4.29,-4.29,-4.29,-4.29,-4.29,-4.29,-4.29,-4.29,-4.29,-4.29,-4.29,-4.29,-4.29,-4.29,-4.29,-4.2975,-4.3049,-4.2938,-4.2938,-4.3031,-4.2994,-4.2975,-4.3049,-4.3086,-4.3086,-4.3123,-4.3178,-4.3178,-4.3214,-4.3214,-4.3286,-4.3376,-4.3376,-4.3411,-4.3463,-4.3479,-4.3479,-4.3479,-4.3479,-4.3479,-4.3479,-4.3479,-4.3479,-4.3479,-4.3479,-4.3479,-4.3479,-4.3479,-4.3479,-4.3479,-4.3479,-4.3479,-4.3479,-4.3479,-4.3479,-4.3479,-4.3479,-4.3479,-4.3479,-4.3479,-4.3479,-4.3582,-4.398,-4.4143,-4.4289,-4.4714,-4.5087,-4.5277,-4.5277,-4.5277,-4.5277,-4.5277,-4.5277,-4.5277,-4.5277,-4.5277,-4.5277,-4.5277,-4.5277,-3.9729,-3.9729,-3.9884,-3.9935,-3.9952,-4.002,-4.007,-4.0087,-4.0087,-4.0087,-4.0087,-4.0087,-4.0087,-4.0087,-4.0138,-4.0171,-4.0254,-4.0303,-4.0483,-4.0832,-4.0514,-4.0955,-4.1613,-4.1481,-4.163,-4.1785,-4.1743,-4.1717,-4.1888,-4.2198,-4.232,-4.236,-4.2616,-4.29,-4.2844,-4.2768,-4.29,-4.29,-4.29,-4.2882,-4.2882,-4.2882,-4.2844,-4.2806,-4.2844,-4.29,-4.29,-4.29,-4.29,-4.29,-4.29,-4.2938,-4.2956,-4.2938,-4.2938,-4.2938,-4.2938,-4.2938,-4.2938,-4.2956,-4.2956,-4.2975,-4.3068,-4.3123,-4.3123,-4.3142,-4.3214,-4.3251,-4.3232,-4.3305,-4.3411,-4.3463,-4.3497,-4.3479,-4.3479,-4.3479,-4.3479,-4.3479,-4.3479,-4.3479,-4.3479,-4.3479,-4.3479,-4.3479,-4.3479,-4.3479,-4.3479,-4.3479,-4.3479,-4.3479,-4.3479,-4.3479,-4.3479,-4.3479,-4.3479,-4.3513,-4.3548,-4.3615,-4.3936,-4.4231,-4.4374,-4.4584,-4.4953,-4.5173,-4.5277,-4.5256,-4.5194,-4.5277,-4.5277,-4.5277,-4.5277,-4.5277,-4.5277,-4.5277,-4.5277,-3.959,-3.9642,-3.9746,-3.9833,-3.9884,-3.9986,-4.0037,-4.0087,-4.0087,-4.0087,-4.0087,-4.0087,-4.0087,-4.0087,-4.0087,-4.0087,-4.0087,-4.0121,-4.0221,-4.0402,-4.0221,-4.0385,-4.0707,-4.0908,-4.1019,-4.1366,-4.1276,-4.1276,-4.1525,-4.17,-4.1888,-4.1888,-4.2139,-4.218,-4.2221,-4.2262,-4.236,-4.2498,-4.2595,-4.2673,-4.2844,-4.2673,-4.24,-4.236,-4.2458,-4.2595,-4.2537,-4.2806,-4.29,-4.29,-4.29,-4.29,-4.29,-4.29,-4.29,-4.29,-4.29,-4.29,-4.29,-4.29,-4.29,-4.29,-4.2994,-4.2994,-4.2994,-4.305,-4.3087,-4.3142,-4.316,-4.3215,-4.3305,-4.334,-4.3393,-4.3428,-4.3428,-4.3463,-4.3479,-4.3479,-4.3479,-4.3479,-4.3479,-4.3479,-4.3479,-4.3479,-4.3479,-4.3479,-4.3479,-4.3479,-4.3479,-4.3479,-4.3479,-4.3479,-4.3479,-4.3479,-4.3479,-4.3513,-4.3615,-4.3716,-4.3923,-4.4162,-4.4336,-4.4557,-4.4814,-4.4929,-4.5,-4.5045,-4.5023,-4.5132,-4.5256,-4.5277,-4.5277,-4.5277,-4.5297,-4.5297,-4.5297,-3.9484,-3.9501,-3.9625,-3.9729,-3.9849,-3.9833,-3.9935,-4.0087,-4.0087,-4.007,-4.0087,-4.0087,-4.0087,-4.0087,-4.0087,-4.0087,-4.0087,-4.0087,-4.0171,-4.0121,-4.0138,-4.0171,-4.0254,-4.0303,-4.0514,-4.1185,-4.0879,-4.0926,-4.1139,-4.1366,-4.141,-4.1393,-4.1525,-4.1656,-4.1569,-4.1525,-4.176,-4.2074,-4.2098,-4.2239,-4.248,-4.2239,-4.1913,-4.1743,-4.1888,-4.2157,-4.2279,-4.2555,-4.2806,-4.29,-4.29,-4.29,-4.29,-4.29,-4.29,-4.29,-4.29,-4.29,-4.29,-4.29,-4.29,-4.29,-4.29,-4.29,-4.2938,-4.2938,-4.2975,-4.3031,-4.3086,-4.3141,-4.3196,-4.3214,-4.3251,-4.3322,-4.3376,-4.3411,-4.3463,-4.3497,-4.3463,-4.3479,-4.3479,-4.3479,-4.3479,-4.3479,-4.3479,-4.3479,-4.3479,-4.3479,-4.3479,-4.3479,-4.3479,-4.3479,-4.3479,-4.3479,-4.3479,-4.3479,-4.3582,-4.3682,-4.3878,-4.3968,-4.4132,-4.4173,-4.4318,-4.4538,-4.4617,-4.4695,-4.4819,-4.4957,-4.5087,-4.5194,-4.5256,-4.5256,-4.5256,-4.5275,-4.5297,-3.9325,-3.9325,-3.9484,-3.959,-3.9729,-3.9729,-3.9867,-4.0087,-3.9986,-3.9986,-4.0087,-4.0087,-4.0087,-4.007,-4.0087,-4.0087,-4.0087,-4.0087,-4.0087,-4.0087,-4.0087,-4.0087,-4.0087,-4.0121,-4.0204,-4.0254,-4.0254,-4.0353,-4.0483,-4.0707,-4.0879,-4.1001,-4.1213,-4.1393,-4.1393,-4.1481,-4.1437,-4.1587,-4.1613,-4.1717,-4.1785,-4.17,-4.1569,-4.1455,-4.163,-4.1864,-4.2157,-4.2297,-4.2498,-4.2844,-4.29,-4.29,-4.29,-4.29,-4.29,-4.29,-4.29,-4.29,-4.29,-4.29,-4.29,-4.29,-4.29,-4.29,-4.29,-4.29,-4.2938,-4.2938,-4.3049,-4.3104,-4.3104,-4.3142,-4.3196,-4.3214,-4.3269,-4.3305,-4.3376,-4.3411,-4.3446,-4.3463,-4.3444,-4.3479,-4.3479,-4.3479,-4.3479,-4.3479,-4.3479,-4.3479,-4.3479,-4.3479,-4.3479,-4.3479,-4.3479,-4.3479,-4.3479,-4.3479,-4.3513,-4.3513,-4.3649,-4.3649,-4.3712,-4.3664,-4.3777,-4.4084,-4.4318,-4.4457,-4.4591,-4.4745,-4.477,-4.477,-4.4976,-4.5173,-4.5132,-4.5087,-4.5275,-3.9288,-3.9325,-3.9379,-3.9501,-3.959,-3.9573,-3.9694,-3.9884,-3.9833,-3.9884,-3.9935,-3.9935,-3.9969,-4.002,-4.0037,-4.0037,-4.0087,-4.0087,-4.0087,-4.0087,-4.0087,-4.0087,-4.0087,-4.0087,-4.0087,-4.0121,-4.0138,-4.0087,-4.0121,-4.0303,-4.0434,-4.0483,-4.0707,-4.0784,-4.0784,-4.0754,-4.0926,-4.1065,-4.1139,-4.1276,-4.1393,-4.1276,-4.1139,-4.1185,-4.1393,-4.176,-4.2157,-4.2498,-4.2673,-4.2844,-4.29,-4.29,-4.29,-4.29,-4.29,-4.29,-4.29,-4.29,-4.29,-4.29,-4.29,-4.29,-4.29,-4.29,-4.29,-4.29,-4.29,-4.2938,-4.2938,-4.3012,-4.2994,-4.3013,-4.3068,-4.3123,-4.316,-4.3196,-4.3269,-4.3305,-4.3322,-4.3393,-4.3428,-4.3463,-4.3479,-4.3479,-4.3479,-4.3479,-4.3479,-4.3479,-4.3479,-4.3479,-4.3479,-4.3479,-4.3479,-4.3479,-4.3479,-4.3479,-4.3479,-4.3479,-4.3479,-4.3479,-4.3479,-4.3513,-4.3582,-4.3777,-4.398,-4.4162,-4.4279,-4.4402,-4.4402,-4.4438,-4.4643,-4.4838,-4.4887,-4.4934,-4.5151,-3.9288,-3.9288,-3.9288,-3.9379,-3.9501,-3.9501,-3.9537,-3.9677,-3.9677,-3.9729,-3.9849,-3.9781,-3.9833,-3.9935,-3.9935,-3.9935,-4.007,-4.007,-4.0087,-4.0087,-4.0087,-4.0087,-4.0087,-4.0087,-4.0087,-4.0087,-4.0087,-4.0087,-4.0087,-4.0121,-4.0121,-4.0171,-4.0121,-4.0087,-4.0171,-4.0254,-4.0402,-4.0531,-4.0676,-4.0879,-4.1065,-4.099,-4.0802,-4.0849,-4.1276,-4.1717,-4.2157,-4.2458,-4.2711,-4.2844,-4.29,-4.29,-4.29,-4.29,-4.29,-4.29,-4.29,-4.29,-4.29,-4.29,-4.29,-4.29,-4.29,-4.29,-4.29,-4.29,-4.29,-4.29,-4.29,-4.2938,-4.2938,-4.29,-4.2956,-4.3049,-4.3049,-4.3086,-4.316,-4.3178,-4.3214,-4.3286,-4.3393,-4.3393,-4.3375,-4.3463,-4.3428,-4.3463,-4.3463,-4.3479,-4.3479,-4.3479,-4.3479,-4.3479,-4.3479,-4.3479,-4.3479,-4.3479,-4.3479,-4.3479,-4.3479,-4.3479,-4.3479,-4.3479,-4.3563,-4.3631,-4.3697,-4.3905,-4.3999,-4.4121,-4.4192,-4.4279,-4.4402,-4.4565,-4.477,-4.4957,-4.5151,-3.9288,-3.9288,-3.9288,-3.9379,-3.9501,-3.9395,-3.9468,-3.9677,-3.959,-3.959,-3.9746,-3.9677,-3.9729,-3.9781,-3.9901,-3.9901,-3.9935,-4.002,-4.0087,-4.0087,-4.0087,-4.0087,-4.0087,-4.0087,-4.0087,-4.0087,-4.0087,-4.0087,-4.0087,-4.0087,-4.0087,-4.0087,-4.0087,-4.0087,-4.0087,-4.0087,-4.0121,-4.0171,-4.0221,-4.0254,-4.0385,-4.0676,-4.0802,-4.1019,-4.1303,-4.1785,-4.2198,-4.2458,-4.2537,-4.2882,-4.29,-4.29,-4.29,-4.29,-4.29,-4.29,-4.29,-4.29,-4.29,-4.29,-4.29,-4.29,-4.29,-4.29,-4.29,-4.29,-4.29,-4.29,-4.29,-4.29,-4.29,-4.29,-4.2882,-4.2938,-4.2956,-4.3012,-4.3086,-4.3068,-4.3105,-4.3142,-4.3196,-4.3232,-4.3196,-4.3322,-4.3411,-4.3446,-4.3481,-4.3463,-4.3479,-4.3479,-4.3479,-4.3479,-4.3479,-4.3479,-4.3479,-4.3479,-4.3479,-4.3479,-4.3479,-4.3479,-4.3479,-4.3479,-4.3479,-4.3548,-4.3615,-4.3649,-4.373,-4.386,-4.3986,-4.4121,-4.4202,-4.4465,-4.4776,-4.4976,-4.5129,-3.9288,-3.9288,-3.9288,-3.9342,-3.9379,-3.9342,-3.9395,-3.9432,-3.9432,-3.9484,-3.9537,-3.9537,-3.9537,-3.9573,-3.9798,-3.9884,-3.9952,-4.0037,-4.0087,-4.0087,-4.0087,-4.0087,-4.0087,-4.0087,-4.0087,-4.0087,-4.0087,-4.0087,-4.0087,-4.007,-4.0087,-4.0087,-4.0087,-4.0087,-4.0087,-4.0087,-4.0138,-4.0138,-4.0121,-4.0271,-4.0483,-4.0707,-4.1065,-4.1525,-4.176,-4.2098,-4.2458,-4.2595,-4.2673,-4.29,-4.29,-4.29,-4.29,-4.29,-4.29,-4.29,-4.29,-4.29,-4.29,-4.29,-4.29,-4.29,-4.29,-4.29,-4.29,-4.29,-4.29,-4.29,-4.29,-4.29,-4.29,-4.29,-4.29,-4.29,-4.29,-4.2938,-4.2994,-4.2975,-4.2975,-4.2995,-4.3032,-4.305,-4.3087,-4.316,-4.3286,-4.3376,-4.3411,-4.3428,-4.3463,-4.3479,-4.3479,-4.3479,-4.3479,-4.3479,-4.3479,-4.3479,-4.3479,-4.3479,-4.3479,-4.3479,-4.3479,-4.3479,-4.3479,-4.3479,-4.3513,-4.3548,-4.3532,-4.3582,-4.3763,-4.3905,-4.4042,-4.4327,-4.4599,-4.48,-4.4957,-3.9288,-3.9288,-3.9288,-3.9288,-3.9288,-3.9288,-3.9342,-3.9325,-3.9342,-3.9379,-3.9395,-3.9379,-3.9379,-3.9484,-3.9694,-3.9729,-3.9798,-3.9935,-3.9986,-4.0037,-4.0037,-3.9986,-3.9986,-3.9986,-3.9969,-4.0037,-3.9969,-3.9969,-3.9969,-3.9969,-4.0037,-4.0087,-4.0087,-4.0087,-4.0087,-4.0087,-4.0087,-4.0087,-4.0087,-4.0254,-4.0531,-4.0707,-4.123,-4.176,-4.2157,-4.2418,-4.2806,-4.29,-4.2882,-4.29,-4.29,-4.29,-4.29,-4.29,-4.29,-4.29,-4.29,-4.29,-4.29,-4.29,-4.29,-4.29,-4.29,-4.29,-4.29,-4.29,-4.29,-4.29,-4.29,-4.29,-4.29,-4.29,-4.29,-4.29,-4.29,-4.29,-4.29,-4.2938,-4.2938,-4.2938,-4.2975,-4.2938,-4.2975,-4.3032,-4.316,-4.3269,-4.334,-4.3376,-4.3393,-4.3444,-4.3463,-4.3463,-4.3497,-4.3497,-4.3479,-4.3479,-4.3479,-4.3479,-4.3479,-4.3479,-4.3479,-4.3479,-4.3479,-4.3479,-4.3479,-4.3479,-4.3479,-4.3513,-4.3548,-4.3828,-4.406,-4.4162,-4.4374,-4.4599,-4.4868,-3.9288,-3.9288,-3.9288,-3.9288,-3.9288,-3.9288,-3.9288,-3.9288,-3.9288,-3.9342,-3.9342,-3.9325,-3.9325,-3.9379,-3.9484,-3.9537,-3.9537,-3.9677,-3.9781,-3.9781,-3.9729,-3.9781,-3.9781,-3.9781,-3.9764,-3.9781,-3.9781,-3.9764,-3.9713,-3.9781,-3.9935,-4.0087,-4.0037,-4.0087,-4.007,-4.007,-4.007,-4.0087,-4.0087,-4.0121,-4.0336,-4.0611,-4.1111,-4.1569,-4.2015,-4.2418,-4.2862,-4.29,-4.29,-4.29,-4.29,-4.29,-4.29,-4.29,-4.29,-4.29,-4.29,-4.29,-4.29,-4.29,-4.29,-4.29,-4.29,-4.29,-4.29,-4.29,-4.29,-4.29,-4.29,-4.29,-4.29,-4.29,-4.29,-4.29,-4.29,-4.29,-4.29,-4.29,-4.29,-4.29,-4.29,-4.29,-4.29,-4.2957,-4.305,-4.316,-4.3269,-4.3286,-4.3286,-4.3322,-4.3376,-4.3411,-4.3481,-4.3497,-4.3497,-4.3497,-4.3479,-4.3479,-4.3479,-4.3479,-4.3479,-4.3479,-4.3479,-4.3479,-4.3479,-4.3479,-4.3479,-4.3479,-4.3582,-4.3846,-4.4067,-4.4151,-4.4365,-4.4599,-4.4868,-3.9288,-3.9288,-3.9288,-3.9288,-3.9288,-3.9288,-3.9288,-3.9288,-3.9288,-3.9288,-3.9288,-3.9288,-3.9288,-3.9342,-3.9448,-3.9484,-3.9484,-3.9625,-3.9677,-3.9677,-3.9677,-3.9677,-3.9677,-3.9677,-3.9729,-3.9677,-3.9677,-3.9677,-3.9729,-3.9677,-3.9729,-3.9833,-3.9884,-3.9935,-3.9935,-4.002,-4.007,-4.0087,-4.0121,-4.0221,-4.0531,-4.0707,-4.1157,-4.1888,-4.2015,-4.2418,-4.2806,-4.29,-4.29,-4.29,-4.29,-4.29,-4.29,-4.29,-4.29,-4.29,-4.2882,-4.29,-4.29,-4.29,-4.29,-4.29,-4.29,-4.29,-4.29,-4.29,-4.29,-4.29,-4.29,-4.29,-4.29,-4.29,-4.29,-4.29,-4.29,-4.29,-4.29,-4.29,-4.29,-4.29,-4.29,-4.29,-4.29,-4.2938,-4.2994,-4.3086,-4.316,-4.3214,-4.3214,-4.3214,-4.3269,-4.3305,-4.3376,-4.3411,-4.3428,-4.3463,-4.3479,-4.3479,-4.3479,-4.3479,-4.3479,-4.3479,-4.3479,-4.3479,-4.3479,-4.3479,-4.3479,-4.3479,-4.3582,-4.3716,-4.3923,-4.414,-4.4365,-4.4572,-4.477,-3.9288,-3.9288,-3.9288,-3.9288,-3.9288,-3.9288,-3.9288,-3.9288,-3.9288,-3.9288,-3.9288,-3.9288,-3.9288,-3.9342,-3.9379,-3.9448,-3.9432,-3.952,-3.9573,-3.9573,-3.959,-3.9573,-3.9573,-3.9573,-3.9537,-3.9573,-3.9573,-3.9573,-3.952,-3.9573,-3.9573,-3.9573,-3.9573,-3.9677,-3.9833,-3.9935,-4.002,-4.0037,-4.0138,-4.0221,-4.0531,-4.0563,-4.0879,-4.163,-4.1803,-4.2198,-4.2595,-4.2768,-4.2768,-4.2768,-4.275,-4.2788,-4.2806,-4.2806,-4.29,-4.2844,-4.275,-4.2768,-4.2844,-4.29,-4.29,-4.29,-4.29,-4.29,-4.29,-4.29,-4.29,-4.29,-4.29,-4.29,-4.29,-4.29,-4.29,-4.29,-4.29,-4.29,-4.29,-4.29,-4.29,-4.29,-4.29,-4.29,-4.29,-4.29,-4.2938,-4.2994,-4.3031,-4.305,-4.3087,-4.3105,-4.316,-4.3233,-4.3269,-4.3305,-4.334,-4.3411,-4.3428,-4.3463,-4.3463,-4.3479,-4.3479,-4.3479,-4.3479,-4.3479,-4.3479,-4.3479,-4.3479,-4.3479,-4.3479,-4.3513,-4.3697,-4.3923,-4.4121,-4.4318,-4.4465,-3.9288,-3.9288,-3.9288,-3.9288,-3.9288,-3.9288,-3.9288,-3.9288,-3.9288,-3.9288,-3.9288,-3.9288,-3.9288,-3.9325,-3.9325,-3.9342,-3.9342,-3.9325,-3.9379,-3.9379,-3.9379,-3.9325,-3.9325,-3.9379,-3.9379,-3.9342,-3.9379,-3.9379,-3.9325,-3.9379,-3.9379,-3.9395,-3.9379,-3.9484,-3.9694,-3.9849,-3.9901,-3.9901,-4.0037,-4.007,-4.0121,-4.0154,-4.0466,-4.0908,-4.1303,-4.1717,-4.2115,-4.244,-4.2458,-4.2279,-4.2498,-4.2498,-4.2279,-4.2555,-4.2673,-4.2729,-4.2378,-4.2418,-4.2788,-4.2844,-4.2806,-4.29,-4.29,-4.29,-4.29,-4.29,-4.29,-4.29,-4.29,-4.29,-4.29,-4.29,-4.29,-4.29,-4.29,-4.29,-4.29,-4.29,-4.29,-4.29,-4.29,-4.29,-4.29,-4.29,-4.29,-4.2938,-4.29,-4.2938,-4.2957,-4.2975,-4.3086,-4.3123,-4.316,-4.3196,-4.3233,-4.334,-4.3376,-4.3411,-4.3446,-4.3463,-4.3479,-4.3479,-4.3479,-4.3479,-4.3479,-4.3479,-4.3479,-4.3479,-4.3479,-4.3479,-4.3479,-4.3631,-4.386,-4.406,-4.425,-3.9288,-3.9288,-3.9288,-3.9288,-3.9288,-3.9288,-3.9288,-3.9288,-3.9288,-3.9288,-3.9288,-3.9288,-3.9288,-3.9288,-3.9288,-3.9288,-3.9288,-3.9288,-3.9288,-3.9288,-3.9288,-3.9342,-3.9288,-3.9288,-3.9288,-3.9288,-3.9288,-3.9288,-3.9325,-3.9288,-3.9288,-3.9288,-3.9342,-3.9379,-3.9537,-3.9694,-3.9798,-3.9781,-3.9781,-3.9833,-3.9833,-3.9884,-4.007,-4.0514,-4.0814,-4.1168,-4.1587,-4.1913,-4.1913,-4.1743,-4.2015,-4.1931,-4.1803,-4.2015,-4.2015,-4.2015,-4.176,-4.1803,-4.1955,-4.2015,-4.232,-4.2634,-4.2806,-4.2806,-4.2882,-4.29,-4.29,-4.29,-4.29,-4.29,-4.29,-4.29,-4.29,-4.29,-4.29,-4.29,-4.29,-4.29,-4.29,-4.29,-4.29,-4.29,-4.2882,-4.29,-4.29,-4.29,-4.29,-4.29,-4.2938,-4.2938,-4.2994,-4.2994,-4.3031,-4.3086,-4.316,-4.3233,-4.3323,-4.3359,-4.3376,-4.3428,-4.3463,-4.3497,-4.3479,-4.3479,-4.3479,-4.3479,-4.3479,-4.3479,-4.3479,-4.3479,-4.3479,-4.3479,-4.3631,-4.386,-4.4048,-3.9288,-3.9288,-3.9288,-3.9288,-3.9288,-3.9288,-3.9288,-3.9288,-3.9288,-3.9288,-3.9288,-3.9288,-3.9288,-3.9288,-3.9288,-3.9288,-3.9288,-3.9288,-3.9288,-3.9288,-3.9288,-3.9288,-3.9288,-3.9288,-3.9288,-3.9288,-3.9288,-3.9288,-3.9288,-3.9288,-3.9288,-3.9288,-3.9288,-3.9325,-3.9432,-3.9537,-3.9642,-3.9642,-3.9677,-3.9729,-3.9729,-3.9781,-3.9867,-4.0137,-4.04,-4.072,-4.0984,-4.1213,-4.1348,-4.1303,-4.1348,-4.1366,-4.1366,-4.1393,-4.1437,-4.1481,-4.1481,-4.1455,-4.1366,-4.1525,-4.1888,-4.2221,-4.24,-4.2498,-4.2577,-4.2595,-4.2634,-4.2691,-4.2768,-4.2768,-4.2673,-4.2711,-4.2806,-4.2806,-4.2806,-4.2806,-4.2806,-4.2806,-4.2711,-4.2729,-4.2711,-4.275,-4.2844,-4.2882,-4.29,-4.29,-4.29,-4.29,-4.29,-4.29,-4.29,-4.2938,-4.2938,-4.2994,-4.3086,-4.3123,-4.3196,-4.3287,-4.3323,-4.3376,-4.3411,-4.3446,-4.3463,-4.3497,-4.3479,-4.3479,-4.3479,-4.3479,-4.3479,-4.3479,-4.3479,-4.3479,-4.3479,-4.3649,-4.3878,-3.9288,-3.9288,-3.9288,-3.9288,-3.9288,-3.9288,-3.9288,-3.9288,-3.9288,-3.9288,-3.9288,-3.9288,-3.9288,-3.9288,-3.9288,-3.9288,-3.9288,-3.9288,-3.9288,-3.9288,-3.9288,-3.9288,-3.9288,-3.9288,-3.9288,-3.9288,-3.9288,-3.9288,-3.9288,-3.9288,-3.9288,-3.9288,-3.9288,-3.9342,-3.9379,-3.9432,-3.9501,-3.9537,-3.9573,-3.9573,-3.9573,-3.9625,-3.9677,-3.985,-4.0087,-4.0269,-4.0497,-4.0767,-4.0797,-4.0844,-4.0984,-4.1001,-4.1047,-4.1168,-4.1348,-4.1437,-4.1348,-4.1094,-4.0926,-4.1139,-4.1276,-4.1437,-4.1437,-4.17,-4.2015,-4.2198,-4.2198,-4.2279,-4.2378,-4.232,-4.2279,-4.2458,-4.2655,-4.2655,-4.2673,-4.2673,-4.2634,-4.2555,-4.2458,-4.2418,-4.2378,-4.2418,-4.2673,-4.2806,-4.2806,-4.29,-4.29,-4.29,-4.29,-4.29,-4.29,-4.29,-4.2938,-4.29,-4.2975,-4.3031,-4.3086,-4.3178,-4.3215,-4.3269,-4.3359,-4.3429,-4.3465,-4.3481,-4.3497,-4.3479,-4.3479,-4.3479,-4.3479,-4.3479,-4.3479,-4.3479,-4.3479,-4.3479,-4.3649,-3.9288,-3.9288,-3.9288,-3.9288,-3.9288,-3.9288,-3.9288,-3.9288,-3.9288,-3.9288,-3.9288,-3.9288,-3.9288,-3.9288,-3.9288,-3.9288,-3.9288,-3.9288,-3.9288,-3.9288,-3.9288,-3.9288,-3.9288,-3.9288,-3.9288,-3.9288,-3.9288,-3.9288,-3.9288,-3.9288,-3.9288,-3.9288,-3.9288,-3.9288,-3.9342,-3.9325,-3.9325,-3.9379,-3.9415,-3.9432,-3.9432,-3.9484,-3.9432,-3.9573,-3.9677,-3.9799,-3.9952,-4.0087,-4.012,-4.012,-4.0137,-4.0154,-4.0254,-4.0303,-4.0402,-4.0466,-4.0483,-4.0451,-4.0353,-4.0451,-4.058,-4.0611,-4.0611,-4.1001,-4.141,-4.1674,-4.1656,-4.1803,-4.1931,-4.1888,-4.1846,-4.1973,-4.2139,-4.2139,-4.2139,-4.2139,-4.2098,-4.1973,-4.1931,-4.1888,-4.1846,-4.2157,-4.24,-4.2595,-4.2673,-4.2806,-4.29,-4.2862,-4.29,-4.29,-4.29,-4.29,-4.29,-4.29,-4.29,-4.2938,-4.3012,-4.3086,-4.3123,-4.316,-4.3233,-4.3323,-4.3394,-4.3429,-4.3463,-4.3497,-4.3479,-4.3479,-4.3479,-4.3479,-4.3479,-4.3479,-4.3479,-4.3479,-4.3479,-3.8898,-3.8914,-3.8882,-3.8788,-3.8551,-3.8551,-3.8551,-3.8623,-3.9077,-3.9288,-3.9288,-3.9288,-3.9288,-3.9288,-3.9288,-3.9288,-3.9288,-3.9288,-3.9288,-3.9288,-3.9288,-3.9288,-3.9288,-3.9288,-3.9288,-3.9288,-3.9288,-3.9288,-3.9288,-3.9288,-3.9288,-3.9288,-3.9288,-3.9288,-3.9342,-3.9342,-3.9342,-3.9342,-3.9342,-3.9288,-3.9288,-3.9288,-3.9288,-3.9342,-3.9379,-3.9432,-3.9448,-3.9573,-3.9642,-3.9625,-3.9642,-3.9729,-3.9833,-3.9901,-3.9952,-4.007,-4.0171,-4.0171,-4.0171,-4.0121,-4.0121,-4.0087,-4.0138,-4.0385,-4.0754,-4.1065,-4.1157,-4.1276,-4.141,-4.1499,-4.141,-4.1393,-4.1437,-4.1525,-4.1525,-4.1525,-4.1437,-4.1303,-4.1303,-4.1303,-4.1481,-4.1785,-4.2015,-4.2279,-4.236,-4.2279,-4.2378,-4.2555,-4.2634,-4.2806,-4.2844,-4.29,-4.29,-4.29,-4.29,-4.29,-4.2956,-4.2994,-4.2994,-4.3068,-4.316,-4.3251,-4.3287,-4.3359,-4.3446,-4.3463,-4.3497,-4.3479,-4.3479,-4.3479,-4.3479,-4.3479,-4.3479,-4.3479,-4.3479,-3.8222,-3.8238,-3.8222,-3.7937,-3.7413,-3.7488,-3.7488,-3.7531,-3.8606,-3.9148,-3.904,-3.9094,-3.8985,-3.886,-3.8969,-3.9077,-3.9148,-3.9202,-3.9288,-3.9272,-3.9288,-3.9288,-3.9288,-3.9288,-3.9288,-3.9288,-3.9288,-3.9288,-3.9288,-3.9288,-3.9288,-3.9288,-3.9288,-3.9288,-3.9288,-3.9288,-3.9288,-3.9288,-3.9288,-3.9288,-3.9288,-3.9288,-3.9288,-3.9288,-3.9342,-3.9342,-3.9325,-3.9395,-3.9501,-3.9554,-3.959,-3.9625,-3.9729,-3.9798,-3.9849,-3.9901,-3.9986,-4.0037,-4.0037,-4.002,-4.007,-4.007,-4.0121,-4.0171,-4.0451,-4.0628,-4.0707,-4.0802,-4.0879,-4.0926,-4.0879,-4.0908,-4.1001,-4.1001,-4.1019,-4.1001,-4.0955,-4.0879,-4.0784,-4.0832,-4.1094,-4.1348,-4.1481,-4.1717,-4.1973,-4.1785,-4.1846,-4.2115,-4.2297,-4.2498,-4.2711,-4.2806,-4.2882,-4.2882,-4.29,-4.29,-4.29,-4.2938,-4.2938,-4.2956,-4.3031,-4.3123,-4.3178,-4.3287,-4.3376,-4.3446,-4.3463,-4.3463,-4.3444,-4.3479,-4.3479,-4.3479,-4.3479,-4.3479,-4.3479,-3.7589,-3.7589,-3.7605,-3.7531,-3.7413,-3.7354,-3.7354,-3.7429,-3.7722,-3.7838,-3.7838,-3.7895,-3.7895,-3.801,-3.8423,-3.8535,-3.859,-3.8843,-3.9218,-3.9164,-3.9148,-3.9094,-3.9272,-3.9148,-3.9272,-3.9288,-3.9288,-3.9288,-3.9288,-3.9288,-3.9288,-3.9288,-3.9288,-3.9288,-3.9288,-3.9288,-3.9288,-3.9288,-3.9288,-3.9288,-3.9288,-3.9288,-3.9288,-3.9288,-3.9288,-3.9288,-3.9342,-3.9342,-3.9342,-3.9395,-3.9379,-3.9432,-3.9537,-3.9677,-3.9729,-3.9729,-3.9781,-3.9884,-3.9935,-3.9986,-3.9986,-4.0087,-4.0087,-4.0087,-4.0171,-4.0221,-4.032,-4.0353,-4.0353,-4.0336,-4.0385,-4.0483,-4.0514,-4.0531,-4.0531,-4.0514,-4.0514,-4.0434,-4.0303,-4.0483,-4.0737,-4.0879,-4.1001,-4.1185,-4.1437,-4.1525,-4.1569,-4.17,-4.1846,-4.2015,-4.2418,-4.2577,-4.2844,-4.2882,-4.2882,-4.29,-4.29,-4.29,-4.29,-4.2938,-4.2956,-4.3049,-4.3123,-4.3233,-4.334,-4.3376,-4.3411,-4.3411,-4.3428,-4.3463,-4.3497,-4.3463,-4.3479,-4.3479,-4.3479,-3.6951,-3.6951,-3.6951,-3.6784,-3.6616,-3.6554,-3.6554,-3.6554,-3.6554,-3.6554,-3.6662,-3.7071,-3.7354,-3.737,-3.778,-3.7879,-3.7937,-3.8254,-3.8327,-3.8383,-3.8606,-3.8606,-3.8717,-3.8882,-3.9094,-3.9218,-3.9272,-3.9288,-3.9288,-3.9288,-3.9288,-3.9288,-3.9288,-3.9288,-3.9288,-3.9288,-3.9288,-3.9288,-3.9288,-3.9288,-3.9288,-3.9288,-3.9288,-3.9288,-3.9288,-3.9288,-3.9288,-3.9288,-3.9288,-3.9288,-3.9325,-3.9325,-3.9432,-3.9537,-3.959,-3.9625,-3.9677,-3.9729,-3.9781,-3.9849,-3.9901,-4.0003,-4.0087,-4.0087,-4.0087,-4.0171,-4.0171,-4.0221,-4.0221,-4.0221,-4.0221,-4.0254,-4.0254,-4.0254,-4.0254,-4.0254,-4.0254,-4.0204,-4.0171,-4.0254,-4.0385,-4.0434,-4.0514,-4.0514,-4.0737,-4.0832,-4.0908,-4.1185,-4.1321,-4.1543,-4.1973,-4.2279,-4.248,-4.2788,-4.29,-4.29,-4.29,-4.29,-4.29,-4.2938,-4.2938,-4.2994,-4.3031,-4.316,-4.3233,-4.3269,-4.3305,-4.334,-4.3376,-4.3411,-4.3446,-4.3481,-4.3463,-4.3479,-4.3479,-3.6243,-3.6305,-3.6305,-3.6022,-3.5569,-3.5489,-3.5554,-3.5554,-3.5554,-3.5554,-3.5733,-3.6662,-3.7071,-3.7131,-3.7251,-3.7251,-3.737,-3.7663,-3.7546,-3.7546,-3.7531,-3.7879,-3.8108,-3.8222,-3.8535,-3.8969,-3.9202,-3.9272,-3.9288,-3.9288,-3.9288,-3.9288,-3.9288,-3.9288,-3.9288,-3.9288,-3.9288,-3.9288,-3.9288,-3.9288,-3.9288,-3.9288,-3.9288,-3.9288,-3.9288,-3.9288,-3.9288,-3.9288,-3.9288,-3.9288,-3.9288,-3.9342,-3.9325,-3.9432,-3.9448,-3.9484,-3.952,-3.9625,-3.9694,-3.9746,-3.9798,-3.9901,-3.9986,-4.0037,-4.0037,-4.0087,-4.0087,-4.0087,-4.0087,-4.007,-4.007,-4.0087,-4.0087,-4.0087,-4.0087,-4.0087,-4.0087,-4.0087,-4.0087,-4.0087,-4.0121,-4.0121,-4.0121,-4.0121,-4.0171,-4.0221,-4.0353,-4.0531,-4.0784,-4.1094,-4.1437,-4.176,-4.2015,-4.232,-4.2673,-4.2882,-4.2844,-4.29,-4.29,-4.29,-4.29,-4.2938,-4.2994,-4.3067,-4.3141,-4.316,-4.3196,-4.3233,-4.3305,-4.3359,-4.3429,-4.3446,-4.3463,-4.3479,-4.3479,-3.5539,-3.5683,-3.5683,-3.5619,-3.5504,-3.5489,-3.5489,-3.5489,-3.5489,-3.5489,-3.5554,-3.5619,-3.5861,-3.591,-3.643,-3.66,-3.6662,-3.6951,-3.7294,-3.7413,-3.7131,-3.737,-3.7589,-3.7706,-3.7994,-3.8407,-3.8898,-3.9255,-3.9148,-3.9218,-3.9288,-3.9288,-3.9288,-3.9288,-3.9288,-3.9288,-3.9288,-3.9288,-3.9288,-3.9288,-3.9288,-3.9288,-3.9288,-3.9288,-3.9288,-3.9288,-3.9288,-3.9288,-3.9288,-3.9288,-3.9288,-3.9288,-3.9325,-3.9325,-3.9395,-3.9395,-3.9432,-3.9484,-3.9537,-3.9606,-3.9659,-3.9746,-3.9833,-3.9833,-3.9833,-3.9884,-3.9935,-3.9986,-3.9986,-4.007,-4.007,-4.007,-4.0087,-4.0087,-4.0087,-4.0087,-4.0087,-4.0087,-4.0087,-4.0087,-4.0121,-4.0121,-4.0121,-4.0121,-4.0121,-4.0171,-4.0171,-4.0353,-4.0385,-4.0659,-4.0908,-4.1185,-4.1499,-4.1888,-4.2239,-4.2711,-4.2788,-4.2844,-4.29,-4.29,-4.29,-4.29,-4.2956,-4.3012,-4.3049,-4.3013,-4.3068,-4.3123,-4.3233,-4.3305,-4.3359,-4.3411,-4.3463,-4.3479,-4.3497]}]]